[[{"header":{"parameterUnit":"m.s-1","parameterCategory":1,"la1":31.0,"la2":29.5877,"lo1":-88.7671,"lo2":-86.6584,"dy":0.0162,"dx":0.0185,"nx":115,"ny":88,"refTime":"2025-11-05T12:00:00:Z","depth":0,"parameterNumber":2,"parameterNumberName":"U-component_of_WINDS"},"data":[0.0,0.0,0.0,0.0,0.0,0.0,0.0,0.0,0.0,0.0,0.0,0.0,0.0,0.0,0.0,0.0,0.0,0.0,0.0,0.0,0.0,0.0,0.0,0.0,0.0,0.0,0.0,0.0,0.0,0.0,0.0,0.0,0.0,0.0,0.0,0.0,0.0,0.0,0.0,0.0,0.0,0.0,0.0,0.0,0.0,0.0,0.0,0.0,0.0,0.0,0.0,0.0,0.0,0.0,0.0,0.0,0.0,0.0,0.0,0.0,0.0,0.0,0.0,0.0,0.0,0.0,0.0,0.0,0.0,0.0,0.0,0.0,0.0,0.0,0.0,0.0,0.0,0.0,0.0,0.0,0.0,0.0,0.0,0.0,0.0,0.0,0.0,0.0,0.0,0.0,0.0,0.0,0.0,0.0,0.0,0.0,0.0,0.0,0.0,0.0,0.0,0.0,0.0,0.0,0.0,0.0,0.0,0.0,0.0,0.0,0.0,0.0,0.0,0.0,0.0,0.0,0.0,0.0,0.0,0.0,0.0,0.0,0.0,0.0,0.0,0.0,0.0,0.0,0.0,0.0,0.0,0.0,0.0,0.0,0.0,0.0,0.0,0.0,0.0,0.0,0.0,0.0,0.0,0.0,0.0,0.0,0.0,0.0,0.0,0.0,0.0,0.0,0.0,0.0,0.0,0.0,0.0,0.0,0.0,0.0,0.0,0.0,0.0,0.0,0.0,0.0,0.0,0.0,0.0,0.0,0.0,0.0,0.0,0.0,0.0,0.0,0.0,0.0,0.0,0.0,0.0,0.0,0.0,0.0,0.0,0.0,0.0,0.0,0.0,0.0,0.0,0.0,0.0,0.0,0.0,0.0,0.0,0.0,0.0,0.0,0.0,0.0,0.0,0.0,0.0,0.0,0.0,0.0,0.0,0.0,0.0,0.0,0.0,0.0,0.0,0.0,0.0,0.0,0.0,0.0,0.0,0.0,0.0,0.0,0.0,0.0,0.0,0.0,0.0,0.0,0.0,0.0,0.0,0.0,0.0,0.0,0.0,0.0,0.0,0.0,0.0,0.0,0.0,0.0,0.0,0.0,0.0,0.0,0.0,0.0,0.0,0.0,0.0,0.0,0.0,0.0,0.0,0.0,0.0,0.0,0.0,0.0,0.0,0.0,0.0,0.0,0.0,0.0,0.0,0.0,0.0,0.0,0.0,0.0,0.0,0.0,0.0,0.0,0.0,0.0,0.0,0.0,0.0,0.0,0.0,0.0,0.0,0.0,0.0,0.0,0.0,0.0,0.0,0.0,0.0,0.0,0.0,0.0,0.0,0.0,0.0,0.0,0.0,0.0,0.0,0.0,0.0,0.0,0.0,0.0,0.0,0.0,0.0,0.0,0.0,0.0,0.0,0.0,0.0,0.0,0.0,0.0,0.0,0.0,0.0,0.0,0.0,0.0,0.0,0.0,0.0,0.0,0.0,0.0,0.0,0.0,0.0,0.0,0.0,0.0,0.0,0.0,0.0,0.0,0.0,0.0,0.0,0.0,0.0,0.0,0.0,0.0,0.0,0.0,0.0,0.0,0.0,0.0,0.0,0.0,0.0,0.0,0.0,0.0,0.0,0.0,0.0,0.0,0.0,0.0,0.0,0.0,0.0,0.0,0.0,0.0,0.0,0.0,0.0,0.0,0.0,0.0,0.0,0.0,0.0,0.0,0.0,0.0,0.0,0.0,0.0,0.0,0.0,0.0,0.0,0.0,0.0,0.0,0.0,0.0,0.0,0.0,0.0,0.0,0.0,0.0,0.0,0.0,0.0,0.0,0.0,0.0,0.0,0.0,0.0,0.0,0.0,0.0,0.0,0.0,0.0,0.0,0.0,0.0,0.0,0.0,0.0,0.0,0.0,0.0,0.0,0.0,0.0,0.0,0.0,0.0,0.0,0.0,0.0,0.0,0.0,0.0,0.0,0.0,0.0,0.0,0.0,0.0,0.0,0.0,0.0,0.0,0.0,0.0,0.0,0.0,0.0,0.0,0.0,0.0,0.0,0.0,0.0,0.0,0.0,0.0,0.0,0.0,0.0,0.0,0.0,0.0,0.0,0.0,0.0,0.0,0.0,0.0,0.0,0.0,0.0,0.0,0.0,0.0,0.0,0.0,0.0,0.0,0.0,0.0,0.0,0.0,0.0,0.0,0.0,0.0,0.0,0.0,0.0,0.0,0.0,0.0,0.0,0.0,0.0,0.0,0.0,0.0,0.0,0.0,0.0,0.0,0.0,0.0,0.0,0.0,0.0,0.0,0.0,0.0,0.0,0.0,0.0,0.0,0.0,0.0,0.0,0.0,0.0,0.0,0.0,0.0,0.0,0.0,0.0,0.0,0.0,0.0,0.0,0.0,0.0,0.0,0.0,0.0,0.0,0.0,0.0,0.0,0.0,0.0,0.0,0.0,0.0,0.0,0.0,0.0,0.0,0.0,0.0,0.0,0.0,0.0,0.0,0.0,0.0,0.0,0.0,0.0,0.0,0.0,0.0,0.0,0.0,0.0,0.0,0.0,0.0,0.0,0.0,0.0,0.0,0.0,0.0,0.0,0.0,0.0,0.0,0.0,0.0,0.0,0.0,0.0,0.0,0.0,0.0,0.0,0.0,0.0,0.0,0.0,0.0,0.0,0.0,0.0,0.0,0.0,0.0,0.0,0.0,0.0,0.0,0.0,0.0,0.0,0.0,0.0,0.0,0.0,0.0,0.0,0.0,0.0,0.0,0.0,0.0,0.0,0.0,0.0,0.0,0.0,0.0,0.0,0.0,0.0,0.0,0.0,0.0,0.0,0.0,0.0,0.0,0.0,0.0,0.0,0.0,0.0,0.0,0.0,0.0,0.0,0.0,0.0,0.0,0.0,0.0,0.0,0.0,0.0,0.0,0.0,0.0,0.0,0.0,0.0,0.0,0.0,0.0,0.0,0.0,0.0,0.0,0.0,0.0,0.0,0.0,0.0,0.0,0.0,0.0,0.0,0.0,0.0,0.0,0.0,0.0,0.0,0.0,0.0,0.0,0.0,0.0,0.0,0.0,0.0,0.0,0.0,0.0,0.0,0.0,0.0,0.0,0.0,0.0,0.0,0.0,0.0,0.0,0.0,0.0,0.0,0.0,0.0,0.0,0.0,0.0,0.0,0.0,0.0,0.0,0.0,0.0,0.0,0.0,0.0,0.0,0.0,0.0,0.0,0.0,0.0,0.0,0.0,0.0,0.0,0.0,0.0,0.0,0.0,0.0,0.0,0.0,0.0,0.0,0.0,0.0,0.0,0.0,0.0,0.0,0.0,0.0,0.0,0.0,0.0,0.0,0.0,0.0,0.0,0.0,0.0,0.0,0.0,0.0,0.0,0.0,0.0,0.0,0.0,0.0,0.0,0.0,0.0,0.0,0.0,0.0,0.0,0.0,0.0,0.0,0.0,0.0,0.0,0.0,0.0,0.0,0.0,0.0,0.0,0.0,0.0,0.0,0.0,0.0,0.0,0.0,0.0,0.0,0.0,0.0,0.0,0.0,0.0,0.0,0.0,0.0,0.0,0.0,0.0,0.0,0.0,0.0,0.0,0.0,0.0,0.0,0.0,0.0,0.0,0.0,0.0,0.0,0.0,0.0,0.0,0.0,0.0,0.0,0.0,0.0,0.0,0.0,0.0,0.0,0.0,0.0,0.0,0.0,0.0,0.0,0.0,0.0,0.0,0.0,0.0,0.0,0.0,0.0,0.0,0.0,0.0,0.0,0.0,0.0,0.0,0.0,0.0,0.0,0.0,0.0,0.0,0.0,0.0,0.0,0.0,0.0,0.0,0.0,0.0,0.0,0.0,0.0,0.0,0.0,0.0,0.0,0.0,0.0,0.0,0.0,0.0,0.0,0.0,0.0,0.0,0.0,0.0,0.0,0.0,0.0,0.0,0.0,0.0,0.0,0.0,0.0,0.0,0.0,0.0,0.0,0.0,0.0,0.0,0.0,0.0,0.0,0.0,0.0,0.0,0.0,0.0,0.0,0.0,0.0,0.0,0.0,0.0,0.0,0.0,0.0,0.0,0.0,0.0,0.0,0.0,0.0,0.0,0.0,0.0,0.0,0.0,0.0,0.0,0.0,0.0,0.0,0.0,0.0,0.0,0.0,0.0,0.0,0.0,0.0,0.0,0.0,0.0,0.0,0.0,0.0,0.0,0.0,0.0,0.0,0.0,0.0,0.0,0.0,0.0,0.0,0.0,0.0,0.0,0.0,0.0,0.0,0.0,-3.0918,0.0,0.0,0.0,0.0,0.0,0.0,0.0,0.0,0.0,0.0,0.0,0.0,0.0,0.0,0.0,0.0,0.0,0.0,0.0,0.0,0.0,0.0,0.0,0.0,0.0,0.0,0.0,0.0,0.0,0.0,0.0,0.0,0.0,0.0,0.0,0.0,0.0,0.0,0.0,0.0,0.0,0.0,0.0,0.0,0.0,0.0,0.0,0.0,0.0,0.0,0.0,0.0,0.0,0.0,0.0,0.0,0.0,0.0,0.0,0.0,0.0,0.0,0.0,0.0,0.0,0.0,0.0,0.0,0.0,0.0,0.0,0.0,0.0,0.0,0.0,0.0,0.0,0.0,0.0,0.0,0.0,0.0,0.0,0.0,0.0,0.0,0.0,0.0,0.0,0.0,0.0,0.0,0.0,0.0,0.0,0.0,0.0,0.0,0.0,0.0,0.0,0.0,0.0,0.0,0.0,0.0,0.0,0.0,0.0,0.0,-3.2226,-3.0957,-3.1367,-3.1387,-3.0918,0.0,0.0,0.0,0.0,0.0,0.0,0.0,0.0,0.0,0.0,0.0,0.0,0.0,0.0,0.0,0.0,0.0,0.0,0.0,0.0,0.0,0.0,0.0,0.0,0.0,0.0,0.0,0.0,0.0,0.0,0.0,0.0,0.0,0.0,0.0,0.0,0.0,0.0,0.0,0.0,0.0,0.0,0.0,0.0,0.0,0.0,0.0,0.0,0.0,0.0,0.0,0.0,0.0,0.0,0.0,0.0,0.0,0.0,0.0,0.0,0.0,0.0,0.0,0.0,0.0,0.0,0.0,0.0,0.0,0.0,0.0,0.0,0.0,0.0,0.0,0.0,0.0,0.0,0.0,0.0,0.0,0.0,0.0,0.0,0.0,0.0,0.0,0.0,0.0,0.0,0.0,0.0,0.0,0.0,0.0,0.0,0.0,0.0,0.0,0.0,0.0,0.0,0.0,0.0,0.0,0.0,0.0,0.0,0.0,0.0,0.0,0.0,-3.25,-3.2363,-3.1523,0.0,0.0,0.0,0.0,0.0,0.0,0.0,0.0,0.0,0.0,0.0,0.0,0.0,0.0,0.0,0.0,0.0,0.0,0.0,0.0,0.0,0.0,0.0,0.0,0.0,0.0,0.0,0.0,0.0,0.0,0.0,0.0,0.0,0.0,0.0,0.0,0.0,0.0,0.0,0.0,0.0,0.0,0.0,0.0,0.0,0.0,0.0,0.0,0.0,0.0,0.0,0.0,0.0,0.0,0.0,0.0,0.0,0.0,0.0,0.0,0.0,0.0,0.0,0.0,0.0,0.0,0.0,0.0,0.0,0.0,0.0,0.0,0.0,0.0,0.0,0.0,0.0,0.0,0.0,0.0,0.0,0.0,0.0,0.0,0.0,0.0,0.0,0.0,0.0,0.0,0.0,0.0,0.0,0.0,0.0,0.0,0.0,0.0,0.0,0.0,0.0,0.0,0.0,0.0,0.0,0.0,0.0,0.0,0.0,0.0,-3.2539,-3.541,-3.4824,0.0,-3.3262,0.0,0.0,0.0,0.0,0.0,0.0,0.0,0.0,0.0,0.0,0.0,0.0,0.0,0.0,0.0,0.0,0.0,0.0,0.0,0.0,0.0,0.0,0.0,0.0,0.0,0.0,0.0,0.0,0.0,0.0,0.0,0.0,0.0,0.0,0.0,0.0,0.0,0.0,0.0,0.0,0.0,0.0,0.0,0.0,0.0,0.0,0.0,0.0,0.0,0.0,0.0,0.0,0.0,0.0,0.0,0.0,0.0,0.0,0.0,0.0,0.0,0.0,0.0,0.0,0.0,0.0,0.0,0.0,0.0,0.0,0.0,0.0,0.0,0.0,0.0,0.0,0.0,0.0,0.0,0.0,0.0,0.0,0.0,0.0,0.0,0.0,0.0,0.0,0.0,0.0,0.0,0.0,0.0,0.0,0.0,0.0,0.0,0.0,0.0,0.0,0.0,0.0,0.0,0.0,0.0,0.0,0.0,0.0,0.0,0.0,-3.3828,-3.5195,-3.4883,-3.4297,0.0,0.0,0.0,0.0,0.0,0.0,0.0,0.0,0.0,0.0,0.0,0.0,0.0,0.0,0.0,0.0,0.0,0.0,0.0,0.0,0.0,0.0,0.0,0.0,0.0,0.0,0.0,0.0,0.0,0.0,0.0,0.0,0.0,0.0,0.0,0.0,0.0,0.0,0.0,0.0,0.0,0.0,0.0,0.0,0.0,0.0,0.0,0.0,0.0,0.0,0.0,0.0,0.0,0.0,0.0,0.0,0.0,0.0,0.0,0.0,0.0,0.0,0.0,0.0,0.0,0.0,0.0,0.0,0.0,0.0,0.0,0.0,0.0,0.0,0.0,0.0,0.0,0.0,0.0,0.0,0.0,0.0,0.0,0.0,0.0,0.0,0.0,0.0,0.0,0.0,0.0,0.0,0.0,0.0,0.0,0.0,0.0,0.0,0.0,0.0,0.0,0.0,0.0,0.0,0.0,0.0,0.0,0.0,0.0,0.0,-3.3906,-3.4687,-3.5371,-3.5664,-3.4941,-3.3144,0.0,0.0,0.0,0.0,0.0,0.0,0.0,0.0,0.0,0.0,0.0,0.0,0.0,0.0,0.0,0.0,0.0,0.0,0.0,0.0,0.0,0.0,0.0,0.0,0.0,0.0,0.0,0.0,0.0,0.0,0.0,0.0,0.0,0.0,0.0,0.0,0.0,0.0,0.0,0.0,0.0,0.0,0.0,0.0,0.0,0.0,0.0,0.0,0.0,0.0,0.0,0.0,0.0,0.0,0.0,0.0,0.0,0.0,0.0,0.0,0.0,0.0,0.0,0.0,0.0,0.0,0.0,0.0,0.0,0.0,0.0,0.0,0.0,0.0,0.0,0.0,0.0,0.0,0.0,0.0,0.0,0.0,0.0,0.0,0.0,0.0,0.0,0.0,0.0,0.0,0.0,0.0,0.0,0.0,0.0,0.0,0.0,0.0,0.0,0.0,0.0,0.0,0.0,0.0,0.0,0.0,0.0,0.0,0.0,-3.5078,-3.4687,-3.7148,-3.7988,-3.6484,0.0,0.0,0.0,0.0,0.0,0.0,0.0,0.0,0.0,0.0,0.0,0.0,0.0,0.0,0.0,0.0,0.0,0.0,0.0,0.0,0.0,0.0,0.0,0.0,0.0,0.0,0.0,0.0,0.0,0.0,0.0,0.0,0.0,0.0,0.0,0.0,0.0,0.0,0.0,0.0,0.0,0.0,0.0,0.0,0.0,0.0,0.0,0.0,0.0,0.0,0.0,0.0,0.0,0.0,0.0,0.0,0.0,0.0,0.0,0.0,0.0,0.0,0.0,0.0,0.0,0.0,0.0,0.0,0.0,0.0,0.0,0.0,0.0,0.0,0.0,0.0,0.0,0.0,0.0,0.0,0.0,0.0,0.0,0.0,0.0,0.0,0.0,0.0,0.0,0.0,0.0,0.0,0.0,0.0,0.0,0.0,0.0,0.0,0.0,0.0,0.0,0.0,0.0,0.0,0.0,0.0,0.0,0.0,0.0,-3.3574,-3.4004,-3.6269,-4.0234,-3.7168,-3.5059,0.0,0.0,0.0,0.0,0.0,0.0,0.0,0.0,0.0,0.0,0.0,0.0,0.0,0.0,0.0,0.0,0.0,0.0,0.0,0.0,0.0,0.0,0.0,0.0,0.0,0.0,0.0,0.0,0.0,0.0,0.0,0.0,0.0,0.0,0.0,0.0,0.0,0.0,0.0,0.0,0.0,0.0,0.0,0.0,0.0,0.0,0.0,0.0,0.0,0.0,0.0,0.0,0.0,0.0,0.0,0.0,0.0,0.0,0.0,0.0,0.0,0.0,0.0,0.0,0.0,0.0,0.0,0.0,0.0,0.0,0.0,0.0,0.0,0.0,0.0,0.0,0.0,0.0,0.0,0.0,0.0,0.0,0.0,0.0,0.0,0.0,0.0,0.0,0.0,0.0,0.0,0.0,0.0,0.0,0.0,0.0,0.0,0.0,0.0,0.0,0.0,0.0,0.0,0.0,0.0,0.0,0.0,0.0,0.0,-3.2536,0.0,-3.7656,0.0,-3.666,-3.4297,0.0,0.0,0.0,0.0,0.0,0.0,0.0,0.0,0.0,0.0,0.0,0.0,0.0,0.0,0.0,0.0,0.0,0.0,0.0,0.0,0.0,0.0,0.0,0.0,0.0,0.0,0.0,0.0,0.0,0.0,0.0,0.0,0.0,0.0,0.0,0.0,0.0,0.0,0.0,0.0,0.0,0.0,0.0,0.0,0.0,0.0,0.0,0.0,0.0,0.0,0.0,0.0,0.0,0.0,0.0,0.0,0.0,0.0,0.0,0.0,0.0,0.0,0.0,0.0,0.0,0.0,0.0,0.0,0.0,0.0,0.0,0.0,0.0,0.0,0.0,0.0,0.0,0.0,0.0,0.0,0.0,0.0,0.0,0.0,0.0,0.0,0.0,0.0,0.0,0.0,0.0,0.0,0.0,0.0,0.0,0.0,0.0,0.0,0.0,0.0,0.0,0.0,0.0,0.0,0.0,0.0,0.0,0.0,-3.2536,-3.5719,-3.8317,-3.8513,-3.6148,-3.6716,-3.4414,0.0,0.0,0.0,0.0,0.0,0.0,0.0,0.0,0.0,0.0,0.0,0.0,0.0,0.0,0.0,0.0,0.0,0.0,0.0,0.0,0.0,0.0,0.0,0.0,0.0,0.0,0.0,0.0,0.0,0.0,0.0,0.0,0.0,0.0,0.0,0.0,0.0,0.0,0.0,0.0,0.0,0.0,0.0,0.0,0.0,0.0,0.0,0.0,0.0,0.0,0.0,0.0,0.0,0.0,0.0,0.0,0.0,0.0,0.0,0.0,0.0,0.0,0.0,0.0,0.0,0.0,0.0,0.0,0.0,0.0,0.0,0.0,0.0,0.0,0.0,0.0,0.0,0.0,0.0,0.0,0.0,0.0,0.0,0.0,0.0,0.0,0.0,0.0,0.0,0.0,0.0,0.0,0.0,0.0,0.0,0.0,0.0,0.0,0.0,0.0,0.0,0.0,0.0,0.0,0.0,0.0,0.0,0.0,0.0,-3.4152,-3.6096,-3.7894,-3.9274,-3.5759,-3.373,0.0,0.0,0.0,0.0,0.0,0.0,0.0,0.0,0.0,0.0,0.0,0.0,0.0,0.0,0.0,0.0,0.0,0.0,0.0,0.0,0.0,0.0,0.0,0.0,0.0,0.0,0.0,0.0,0.0,0.0,0.0,0.0,0.0,0.0,0.0,0.0,0.0,0.0,0.0,0.0,0.0,0.0,0.0,0.0,0.0,0.0,0.0,0.0,0.0,0.0,0.0,0.0,0.0,0.0,0.0,0.0,0.0,0.0,0.0,0.0,0.0,0.0,0.0,0.0,0.0,0.0,0.0,0.0,0.0,0.0,0.0,0.0,0.0,0.0,0.0,0.0,0.0,0.0,0.0,0.0,0.0,0.0,0.0,0.0,0.0,0.0,0.0,0.0,0.0,0.0,0.0,0.0,0.0,0.0,0.0,0.0,0.0,0.0,0.0,0.0,0.0,0.0,0.0,0.0,0.0,0.0,0.0,0.0,0.0,-3.482,-3.7011,-3.8816,-4.0047,-3.6176,-3.404,-3.4004,0.0,0.0,0.0,0.0,0.0,0.0,0.0,0.0,0.0,0.0,0.0,0.0,0.0,0.0,0.0,0.0,0.0,0.0,0.0,0.0,0.0,0.0,0.0,0.0,0.0,0.0,0.0,0.0,0.0,0.0,0.0,0.0,0.0,0.0,0.0,0.0,0.0,0.0,0.0,0.0,0.0,0.0,0.0,0.0,0.0,0.0,0.0,0.0,0.0,0.0,0.0,0.0,0.0,0.0,0.0,0.0,0.0,0.0,0.0,0.0,0.0,0.0,0.0,0.0,0.0,0.0,0.0,0.0,0.0,0.0,0.0,0.0,0.0,0.0,0.0,0.0,0.0,0.0,0.0,0.0,0.0,0.0,0.0,0.0,0.0,0.0,0.0,0.0,0.0,0.0,0.0,0.0,0.0,0.0,0.0,0.0,0.0,0.0,0.0,0.0,0.0,0.0,0.0,0.0,0.0,0.0,0.0,0.0,-3.7063,-4.0466,-4.1104,-3.8832,-3.7739,-3.5317,0.0,0.0,0.0,0.0,0.0,0.0,0.0,0.0,0.0,0.0,0.0,0.0,0.0,0.0,0.0,0.0,0.0,0.0,0.0,0.0,0.0,0.0,0.0,0.0,0.0,0.0,0.0,0.0,0.0,0.0,0.0,0.0,0.0,0.0,0.0,0.0,0.0,0.0,0.0,0.0,0.0,0.0,0.0,0.0,0.0,0.0,0.0,0.0,0.0,0.0,0.0,0.0,0.0,0.0,0.0,0.0,0.0,0.0,0.0,0.0,0.0,0.0,0.0,0.0,0.0,0.0,0.0,0.0,0.0,0.0,0.0,0.0,0.0,0.0,0.0,0.0,0.0,0.0,0.0,0.0,0.0,0.0,0.0,0.0,0.0,0.0,0.0,0.0,0.0,0.0,0.0,0.0,0.0,0.0,0.0,0.0,0.0,0.0,0.0,0.0,0.0,0.0,0.0,0.0,0.0,0.0,0.0,0.0,0.0,-3.8085,-4.1345,-4.2786,-4.212,-3.8982,-3.6464,0.0,0.0,0.0,0.0,0.0,0.0,0.0,0.0,0.0,0.0,0.0,0.0,0.0,0.0,0.0,0.0,0.0,0.0,0.0,0.0,0.0,0.0,0.0,0.0,0.0,0.0,0.0,0.0,0.0,0.0,0.0,0.0,0.0,0.0,0.0,0.0,0.0,0.0,0.0,0.0,0.0,0.0,0.0,0.0,0.0,0.0,0.0,0.0,0.0,0.0,0.0,0.0,0.0,0.0,0.0,0.0,0.0,0.0,0.0,0.0,0.0,0.0,0.0,0.0,0.0,0.0,0.0,0.0,0.0,0.0,0.0,0.0,0.0,0.0,0.0,0.0,0.0,0.0,0.0,0.0,0.0,0.0,0.0,0.0,0.0,0.0,0.0,0.0,0.0,0.0,0.0,0.0,0.0,0.0,0.0,0.0,0.0,0.0,0.0,0.0,0.0,0.0,0.0,0.0,0.0,0.0,0.0,0.0,-3.7038,-3.84,-4.1733,-4.3335,-4.3017,-4.0312,-3.7946,0.0,0.0,0.0,0.0,0.0,0.0,0.0,0.0,0.0,0.0,0.0,0.0,0.0,0.0,0.0,0.0,0.0,0.0,0.0,0.0,0.0,0.0,0.0,0.0,0.0,0.0,0.0,0.0,0.0,0.0,0.0,0.0,0.0,0.0,0.0,0.0,0.0,0.0,0.0,0.0,0.0,0.0,0.0,0.0,0.0,0.0,0.0,0.0,0.0,0.0,0.0,0.0,0.0,0.0,0.0,0.0,0.0,0.0,0.0,0.0,0.0,0.0,0.0,0.0,0.0,0.0,0.0,0.0,0.0,0.0,0.0,0.0,0.0,0.0,0.0,0.0,0.0,0.0,0.0,0.0,0.0,0.0,0.0,0.0,0.0,0.0,0.0,0.0,0.0,0.0,0.0,0.0,0.0,0.0,0.0,0.0,0.0,0.0,0.0,0.0,0.0,0.0,0.0,0.0,0.0,0.0,0.0,0.0,-3.7644,-3.8558,-4.1846,-4.3232,-4.2432,-4.134,-3.9265,0.0,0.0,0.0,0.0,0.0,0.0,0.0,0.0,0.0,0.0,0.0,0.0,0.0,0.0,0.0,0.0,0.0,0.0,0.0,0.0,0.0,0.0,0.0,0.0,0.0,0.0,0.0,0.0,0.0,0.0,0.0,0.0,0.0,0.0,0.0,0.0,0.0,0.0,0.0,0.0,0.0,0.0,0.0,0.0,0.0,0.0,0.0,0.0,0.0,0.0,0.0,0.0,0.0,0.0,0.0,0.0,0.0,0.0,0.0,0.0,0.0,0.0,0.0,0.0,0.0,0.0,0.0,0.0,0.0,0.0,0.0,0.0,0.0,0.0,0.0,0.0,0.0,0.0,0.0,0.0,0.0,0.0,0.0,0.0,0.0,0.0,0.0,0.0,0.0,0.0,0.0,0.0,0.0,0.0,0.0,0.0,0.0,0.0,0.0,0.0,0.0,0.0,0.0,0.0,0.0,0.0,0.0,0.0,-3.7934,-3.9445,-4.2156,-4.3507,-4.331,-4.0579,-3.8124,0.0,0.0,0.0,0.0,0.0,0.0,0.0,0.0,0.0,0.0,0.0,0.0,0.0,0.0,0.0,0.0,0.0,0.0,0.0,0.0,0.0,0.0,0.0,0.0,0.0,0.0,0.0,0.0,0.0,0.0,0.0,0.0,0.0,0.0,0.0,0.0,0.0,0.0,0.0,0.0,0.0,0.0,0.0,0.0,0.0,0.0,0.0,0.0,-3.2695,0.0,0.0,0.0,0.0,0.0,0.0,0.0,0.0,0.0,0.0,0.0,0.0,0.0,0.0,0.0,0.0,0.0,0.0,0.0,0.0,0.0,0.0,0.0,0.0,0.0,0.0,0.0,0.0,0.0,0.0,0.0,0.0,0.0,0.0,0.0,0.0,0.0,0.0,0.0,0.0,0.0,0.0,0.0,0.0,0.0,0.0,0.0,0.0,0.0,0.0,0.0,0.0,0.0,0.0,0.0,0.0,0.0,0.0,0.0,-3.7659,-3.9754,-4.1548,-4.2472,-4.2394,-4.035,-3.8398,0.0,0.0,0.0,0.0,0.0,0.0,0.0,0.0,0.0,0.0,0.0,0.0,0.0,0.0,0.0,0.0,0.0,0.0,0.0,0.0,0.0,0.0,0.0,0.0,0.0,0.0,0.0,0.0,0.0,0.0,0.0,0.0,0.0,0.0,0.0,0.0,0.0,0.0,0.0,0.0,0.0,0.0,0.0,0.0,0.0,0.0,0.0,0.0,0.0,0.0,0.0,0.0,0.0,0.0,0.0,0.0,0.0,0.0,0.0,0.0,0.0,0.0,0.0,0.0,0.0,0.0,0.0,0.0,0.0,0.0,0.0,0.0,0.0,0.0,0.0,0.0,0.0,0.0,0.0,0.0,0.0,0.0,0.0,0.0,0.0,0.0,0.0,0.0,0.0,0.0,0.0,0.0,0.0,0.0,0.0,0.0,0.0,0.0,0.0,0.0,0.0,0.0,0.0,0.0,0.0,0.0,0.0,-3.4765,-3.7187,-3.996,-4.082,-4.1133,-4.0996,-4.0293,-3.8887,-3.6758,0.0,0.0,0.0,0.0,0.0,0.0,0.0,0.0,0.0,0.0,0.0,0.0,0.0,0.0,0.0,0.0,0.0,0.0,0.0,0.0,0.0,0.0,0.0,0.0,0.0,0.0,0.0,0.0,0.0,0.0,0.0,0.0,0.0,0.0,0.0,0.0,0.0,0.0,-3.0234,-3.166,0.0,0.0,0.0,0.0,0.0,0.0,0.0,0.0,-3.3086,0.0,0.0,0.0,0.0,0.0,0.0,0.0,0.0,0.0,0.0,0.0,0.0,0.0,0.0,0.0,0.0,0.0,0.0,0.0,0.0,0.0,0.0,0.0,0.0,0.0,0.0,0.0,0.0,0.0,0.0,0.0,0.0,0.0,0.0,0.0,0.0,0.0,0.0,0.0,0.0,0.0,0.0,0.0,0.0,0.0,0.0,0.0,0.0,0.0,0.0,0.0,0.0,0.0,0.0,0.0,0.0,-3.5125,-3.5031,-3.6873,-4.0786,-4.1092,-4.0859,-4.0137,-3.998,-3.8066,-3.4277,0.0,0.0,0.0,0.0,0.0,0.0,0.0,0.0,0.0,0.0,0.0,0.0,0.0,0.0,0.0,0.0,0.0,0.0,0.0,0.0,0.0,0.0,0.0,0.0,0.0,0.0,0.0,0.0,0.0,0.0,0.0,0.0,0.0,0.0,0.0,0.0,0.0,0.0,0.0,-3.4121,-3.4609,0.0,0.0,0.0,0.0,0.0,0.0,0.0,0.0,-3.4004,0.0,0.0,0.0,0.0,0.0,0.0,0.0,0.0,0.0,0.0,0.0,0.0,0.0,0.0,0.0,0.0,0.0,0.0,0.0,0.0,0.0,0.0,0.0,0.0,0.0,0.0,0.0,0.0,0.0,0.0,0.0,0.0,0.0,0.0,0.0,0.0,0.0,0.0,0.0,0.0,0.0,0.0,0.0,0.0,0.0,0.0,0.0,0.0,0.0,0.0,0.0,0.0,0.0,0.0,0.0,-3.3728,-3.488,-3.6816,-3.9682,-3.9843,-3.9648,-3.9238,-3.8359,-3.6484,0.0,0.0,0.0,0.0,0.0,0.0,0.0,0.0,0.0,0.0,0.0,0.0,0.0,0.0,0.0,0.0,0.0,0.0,0.0,0.0,0.0,0.0,0.0,0.0,0.0,0.0,0.0,0.0,0.0,0.0,0.0,0.0,0.0,0.0,0.0,0.0,0.0,0.0,0.0,0.0,-3.5078,-3.5684,-3.6562,0.0,0.0,0.0,0.0,0.0,0.0,-3.4902,-3.4492,0.0,0.0,0.0,0.0,0.0,0.0,0.0,0.0,0.0,0.0,0.0,0.0,0.0,0.0,0.0,0.0,0.0,0.0,0.0,0.0,0.0,0.0,0.0,0.0,0.0,0.0,0.0,0.0,0.0,0.0,0.0,0.0,0.0,0.0,0.0,0.0,0.0,0.0,0.0,0.0,0.0,0.0,0.0,0.0,0.0,0.0,0.0,0.0,0.0,0.0,0.0,0.0,0.0,0.0,0.0,-3.2168,-3.4531,-3.668,-3.8496,-3.8613,-3.8516,-3.832,-3.6816,-3.5019,0.0,0.0,0.0,0.0,0.0,0.0,0.0,0.0,0.0,0.0,0.0,0.0,0.0,0.0,0.0,0.0,0.0,0.0,0.0,0.0,0.0,0.0,0.0,0.0,0.0,0.0,0.0,0.0,0.0,0.0,0.0,0.0,0.0,0.0,0.0,0.0,0.0,0.0,0.0,0.0,0.0,-3.7187,-3.7519,-3.7129,0.0,0.0,0.0,0.0,-3.5723,-3.5898,0.0,0.0,0.0,0.0,0.0,0.0,0.0,0.0,0.0,0.0,0.0,0.0,0.0,0.0,0.0,0.0,0.0,0.0,0.0,0.0,0.0,0.0,0.0,0.0,0.0,0.0,0.0,0.0,0.0,0.0,0.0,0.0,0.0,0.0,0.0,0.0,0.0,0.0,0.0,0.0,0.0,0.0,0.0,0.0,0.0,0.0,0.0,0.0,0.0,0.0,0.0,0.0,0.0,0.0,0.0,0.0,-3.2109,-3.3926,-3.6055,-3.8457,-3.8594,-3.8242,-3.7461,-3.6504,-3.4473,0.0,0.0,0.0,0.0,0.0,0.0,0.0,0.0,0.0,0.0,0.0,0.0,0.0,0.0,0.0,0.0,0.0,0.0,0.0,0.0,0.0,0.0,0.0,0.0,0.0,0.0,0.0,0.0,0.0,0.0,0.0,0.0,0.0,0.0,0.0,0.0,0.0,0.0,0.0,0.0,0.0,-4.0078,-3.8652,-3.9023,-3.9101,0.0,0.0,-3.8418,-3.918,-3.9941,0.0,0.0,0.0,0.0,0.0,0.0,0.0,0.0,0.0,0.0,0.0,0.0,0.0,0.0,0.0,0.0,0.0,0.0,0.0,0.0,0.0,0.0,0.0,0.0,0.0,0.0,0.0,0.0,0.0,0.0,0.0,0.0,0.0,0.0,0.0,0.0,0.0,0.0,0.0,0.0,0.0,0.0,0.0,0.0,0.0,0.0,0.0,0.0,0.0,0.0,0.0,0.0,0.0,0.0,0.0,-2.8965,-3.1445,-3.4082,-3.5996,-3.707,-3.7129,-3.6934,-3.6582,-3.4805,-3.2695,0.0,0.0,0.0,0.0,0.0,0.0,0.0,0.0,0.0,0.0,0.0,0.0,0.0,0.0,0.0,0.0,0.0,0.0,0.0,0.0,0.0,0.0,0.0,0.0,0.0,0.0,0.0,0.0,0.0,0.0,0.0,0.0,0.0,0.0,0.0,0.0,0.0,0.0,0.0,0.0,0.0,0.0,-4.0039,-4.041,0.0,0.0,0.0,-4.0039,-3.9902,0.0,0.0,0.0,0.0,0.0,0.0,0.0,0.0,0.0,0.0,0.0,0.0,0.0,0.0,0.0,0.0,0.0,0.0,0.0,0.0,0.0,0.0,0.0,0.0,0.0,0.0,0.0,0.0,0.0,0.0,0.0,0.0,0.0,0.0,0.0,0.0,0.0,0.0,0.0,0.0,0.0,0.0,0.0,0.0,0.0,0.0,0.0,0.0,0.0,0.0,0.0,0.0,0.0,0.0,0.0,0.0,0.0,-3.0918,-3.4258,-3.6016,-3.6016,-3.6016,-3.6016,-3.5976,-3.373,0.0,0.0,0.0,0.0,0.0,0.0,0.0,0.0,0.0,0.0,0.0,0.0,0.0,0.0,0.0,0.0,0.0,0.0,0.0,0.0,0.0,0.0,0.0,0.0,0.0,0.0,0.0,-2.1816,0.0,0.0,0.0,0.0,0.0,0.0,0.0,0.0,0.0,0.0,0.0,0.0,0.0,0.0,-3.9707,-4.1016,-4.1758,-4.2148,0.0,0.0,-4.1523,-4.0664,-4.0898,-4.0,0.0,0.0,0.0,0.0,0.0,0.0,0.0,0.0,0.0,0.0,0.0,0.0,0.0,0.0,0.0,0.0,0.0,0.0,0.0,0.0,0.0,0.0,0.0,0.0,0.0,0.0,0.0,0.0,0.0,0.0,0.0,0.0,0.0,0.0,0.0,0.0,0.0,0.0,0.0,0.0,0.0,0.0,0.0,0.0,0.0,0.0,0.0,0.0,0.0,0.0,0.0,0.0,0.0,0.0,0.0,-3.0937,-3.4258,-3.5996,-3.6016,-3.6016,-3.6016,-3.5976,-3.4258,-3.2519,0.0,0.0,0.0,0.0,0.0,0.0,0.0,0.0,0.0,0.0,0.0,0.0,0.0,0.0,0.0,0.0,0.0,0.0,0.0,0.0,0.0,0.0,0.0,0.0,0.0,0.0,0.0,0.0,0.0,0.0,0.0,0.0,0.0,0.0,0.0,0.0,0.0,0.0,0.0,0.0,0.0,-4.1074,-4.1191,-4.3242,-4.4746,0.0,0.0,-4.3242,-4.2363,-4.3574,-4.2695,-3.6934,0.0,0.0,0.0,0.0,0.0,0.0,0.0,0.0,0.0,0.0,0.0,0.0,0.0,0.0,0.0,0.0,0.0,0.0,0.0,0.0,0.0,0.0,0.0,0.0,0.0,0.0,0.0,0.0,0.0,0.0,0.0,0.0,0.0,0.0,0.0,0.0,0.0,0.0,0.0,0.0,0.0,0.0,0.0,0.0,0.0,0.0,0.0,0.0,0.0,0.0,0.0,0.0,0.0,-2.8633,-3.0879,-3.373,-3.5449,-3.5976,-3.6016,-3.6016,-3.6016,-3.4297,-3.2617,0.0,0.0,0.0,0.0,0.0,0.0,0.0,0.0,0.0,0.0,0.0,0.0,0.0,0.0,0.0,0.0,0.0,0.0,0.0,0.0,0.0,0.0,0.0,0.0,0.0,0.0,0.0,0.0,-2.7109,-2.7441,-2.7773,0.0,0.0,0.0,0.0,0.0,0.0,0.0,0.0,0.0,0.0,-4.1758,-4.3301,-4.4394,0.0,0.0,-4.5078,-4.459,-4.4785,-4.3144,-4.0898,-3.8066,-3.6074,0.0,0.0,0.0,0.0,0.0,0.0,0.0,0.0,0.0,0.0,0.0,0.0,0.0,0.0,0.0,0.0,0.0,0.0,0.0,0.0,0.0,0.0,0.0,0.0,0.0,0.0,0.0,0.0,0.0,0.0,0.0,0.0,0.0,0.0,0.0,0.0,0.0,0.0,0.0,0.0,0.0,0.0,0.0,0.0,0.0,0.0,0.0,0.0,0.0,0.0,0.0,0.0,-2.8926,-3.1269,-3.3789,-3.5391,-3.5976,-3.6016,-3.6016,-3.5976,-3.457,-3.3008,0.0,0.0,0.0,0.0,0.0,0.0,0.0,0.0,0.0,0.0,0.0,0.0,0.0,0.0,0.0,0.0,0.0,0.0,0.0,0.0,0.0,0.0,0.0,0.0,0.0,0.0,0.0,0.0,-2.8672,-2.8496,-2.7969,0.0,0.0,0.0,0.0,0.0,0.0,0.0,0.0,0.0,0.0,-4.2305,-4.4316,-4.4824,-4.5137,-4.5469,-4.5,-4.4746,-4.5078,-4.2812,-4.0488,-3.8867,0.0,0.0,0.0,0.0,0.0,0.0,0.0,0.0,0.0,0.0,0.0,0.0,0.0,0.0,0.0,0.0,0.0,0.0,0.0,0.0,0.0,0.0,0.0,0.0,0.0,0.0,0.0,-2.832,0.0,0.0,-2.582,0.0,0.0,0.0,0.0,0.0,0.0,0.0,0.0,0.0,0.0,0.0,0.0,0.0,0.0,0.0,0.0,0.0,0.0,0.0,0.0,0.0,0.0,-3.0371,-3.2168,-3.4609,-3.5957,-3.6016,-3.6016,-3.6016,-3.5996,-3.5137,-3.3887,-3.2148,0.0,0.0,0.0,0.0,0.0,0.0,0.0,0.0,0.0,0.0,0.0,0.0,0.0,0.0,0.0,0.0,0.0,0.0,0.0,0.0,0.0,0.0,0.0,0.0,0.0,0.0,-2.9355,-2.9551,-2.8887,0.0,0.0,0.0,0.0,0.0,0.0,0.0,0.0,0.0,0.0,-4.0762,-4.2715,-4.3652,-4.4473,-4.4726,-4.3984,-4.3808,-4.3496,-4.2773,-4.3125,-4.248,0.0,0.0,0.0,0.0,0.0,0.0,0.0,0.0,0.0,0.0,0.0,0.0,0.0,0.0,0.0,0.0,0.0,0.0,0.0,0.0,0.0,0.0,0.0,0.0,0.0,0.0,0.0,-3.33,-3.1758,0.0,0.0,0.0,0.0,0.0,0.0,0.0,0.0,0.0,0.0,0.0,-3.5664,-3.7051,0.0,0.0,0.0,0.0,0.0,0.0,0.0,0.0,0.0,0.0,0.0,0.0,-2.9883,-3.2168,-3.4141,-3.541,-3.5976,-3.6016,-3.6016,-3.5996,-3.5156,-3.3359,-3.0547,0.0,0.0,0.0,0.0,0.0,0.0,0.0,0.0,0.0,0.0,0.0,0.0,0.0,0.0,0.0,0.0,0.0,0.0,0.0,0.0,0.0,0.0,0.0,0.0,0.0,-2.748,0.0,0.0,0.0,0.0,0.0,0.0,0.0,0.0,0.0,0.0,0.0,-3.7715,-4.0039,-4.2012,-4.3594,-4.4433,-4.4824,-4.5098,0.0,0.0,0.0,0.0,0.0,0.0,0.0,0.0,0.0,0.0,0.0,0.0,0.0,0.0,-4.3281,-3.7871,-3.5722,-3.4979,-3.5819,0.0,0.0,0.0,0.0,0.0,0.0,0.0,0.0,0.0,0.0,0.0,0.0,0.0,0.0,-3.6543,-3.5234,-3.4902,0.0,0.0,0.0,0.0,0.0,0.0,0.0,0.0,-3.7676,-3.9101,-3.9141,-4.0547,-4.0332,0.0,-3.7793,-3.4883,0.0,0.0,0.0,0.0,0.0,0.0,0.0,0.0,-3.0644,-3.2598,-3.4277,-3.543,-3.5976,-3.6016,-3.6016,-3.5996,-3.5156,-3.3516,-3.1016,-2.957,-2.8379,0.0,0.0,0.0,0.0,0.0,0.0,0.0,0.0,0.0,0.0,0.0,0.0,0.0,0.0,0.0,0.0,0.0,0.0,0.0,0.0,0.0,0.0,0.0,-2.8008,0.0,0.0,0.0,0.0,0.0,0.0,0.0,0.0,0.0,-3.5664,-3.8144,-4.0664,-4.2715,-4.3926,-4.4687,-4.4961,0.0,0.0,0.0,0.0,0.0,0.0,0.0,-4.2729,-4.3574,-4.3063,-4.2787,-4.3613,-4.5664,-4.7012,-4.6406,0.0,0.0,-4.2266,-4.0136,-3.9393,-4.0271,-4.0403,-4.065,-4.1491,-4.2346,-4.2908,0.0,0.0,0.0,0.0,0.0,0.0,0.0,0.0,-4.0156,-3.9687,0.0,-3.7949,0.0,0.0,0.0,0.0,-3.2734,-3.6641,0.0,0.0,-4.2851,-4.4062,-4.2558,-4.334,-4.291,-4.1426,-4.1973,-4.0137,-3.5996,-3.1094,0.0,0.0,0.0,0.0,0.0,0.0,-3.2637,-3.3457,-3.5117,-3.5996,-3.6016,-3.6016,-3.6016,-3.5996,-3.5156,-3.4297,-3.3457,-3.2598,-3.1055,-2.8594,-2.6777,0.0,0.0,0.0,0.0,0.0,0.0,0.0,0.0,0.0,0.0,0.0,0.0,0.0,0.0,0.0,0.0,0.0,0.0,0.0,0.0,-2.8574,0.0,0.0,0.0,0.0,0.0,0.0,0.0,0.0,0.0,0.0,-4.0,-4.1445,-4.3398,-4.5859,0.0,0.0,0.0,0.0,-4.4726,-4.3965,-4.3808,-4.3828,-4.3828,-4.4453,-4.4687,-4.3984,0.0,0.0,-4.6504,-4.7754,-4.834,-4.6758,-4.7851,-4.8906,-4.8769,-4.6542,-4.5271,-4.5974,-4.4912,-4.4278,-4.498,-4.5856,-4.6438,-4.451,0.0,0.0,0.0,0.0,-4.1465,-4.3223,-4.623,-4.5,-4.4336,-4.4004,-4.2519,0.0,0.0,0.0,0.0,0.0,0.0,-3.9863,-4.0566,-4.2969,-4.4141,-4.4297,-4.5137,-4.498,-4.3906,-4.2891,-4.1465,-3.9609,-3.6328,-3.3047,-2.9844,0.0,0.0,0.0,0.0,-3.3476,-3.4336,-3.543,-3.6016,-3.6016,-3.6016,-3.6016,-3.6016,-3.5156,-3.459,-3.4336,-3.3516,-3.2734,-3.1934,-2.9726,0.0,0.0,0.0,0.0,0.0,0.0,0.0,0.0,0.0,0.0,0.0,0.0,0.0,0.0,0.0,0.0,0.0,0.0,0.0,-2.7715,-2.8945,-2.9746,0.0,0.0,0.0,0.0,0.0,0.0,0.0,0.0,0.0,-4.3379,-4.3945,-4.4512,0.0,0.0,-4.5293,-4.5019,-4.4956,-4.5064,-4.5435,-4.5493,0.0,-4.5416,-4.5148,-4.5281,-4.6237,-4.7595,-4.8437,-4.8203,-4.8574,-4.8945,-4.8984,-4.8965,-4.9101,-4.9629,-4.8748,-4.7904,-4.8099,-4.8167,-4.8312,-4.8624,-4.9345,-4.9891,-4.9101,-4.6997,-4.4292,-4.3984,-4.5195,-4.5058,-4.666,-4.9355,-4.8301,-4.7851,-4.7773,-4.6387,-4.4336,-4.1836,-4.0312,0.0,0.0,0.0,-4.1855,-4.2754,-4.4101,-4.5,-4.5527,-4.6035,-4.584,-4.498,-4.3945,-4.2832,-4.166,-3.9766,-3.7187,-3.4004,0.0,0.0,-3.2441,-3.3418,-3.416,-3.4707,-3.5547,-3.6016,-3.6016,-3.6016,-3.6016,-3.5976,-3.5488,-3.5215,-3.5195,-3.4726,-3.4258,-3.3906,-3.1816,-2.9687,0.0,0.0,0.0,0.0,0.0,0.0,0.0,0.0,0.0,0.0,0.0,-2.4492,0.0,0.0,0.0,0.0,-2.6239,-2.819,-3.0092,-3.1041,0.0,0.0,0.0,0.0,0.0,0.0,0.0,-4.1426,-4.3279,-4.4546,-4.4937,-4.5224,-4.5573,-4.5952,-4.5698,-4.5462,-4.5434,0.0,-4.557,-4.608,-4.6158,-4.6145,-4.6109,-4.5688,-4.5848,-4.7233,-4.7899,-4.8464,-4.8804,-4.8863,-4.906,-4.9473,-4.9258,-4.9062,-4.957,-4.9236,-4.8898,-4.8898,-4.9259,-4.9579,-4.9577,-5.0008,-5.0379,-5.2582,-5.2263,-4.8318,-4.7167,-4.7969,-4.8769,-4.9551,-5.0293,-5.0273,-5.0293,-5.0234,-4.9394,-4.7578,-4.5058,-4.2676,0.0,-4.2734,-4.3555,-4.4316,-4.5137,-4.5937,-4.6289,-4.6289,-4.623,-4.5781,-4.498,-4.4863,-4.3984,-4.2402,-4.1562,-4.0391,-3.8769,-3.6328,-3.5039,-3.4922,-3.498,-3.498,-3.4922,-3.5703,-3.6074,-3.6016,-3.6016,-3.6016,-3.6016,-3.6016,-3.5957,-3.5898,-3.5879,-3.5508,-3.4609,-3.3086,-3.1074,-2.8613,0.0,0.0,0.0,0.0,0.0,0.0,0.0,0.0,0.0,0.0,0.0,0.0,0.0,0.0,0.0,-3.0774,0.0,-3.3516,-3.4338,0.0,0.0,0.0,-3.6968,-3.8821,-4.1773,-4.3457,-4.2793,0.0,0.0,-4.5207,-4.5632,-4.6414,-4.7264,-4.6685,-4.6184,-4.6109,-4.6059,-4.6072,-4.6091,-4.6091,-4.6087,-4.6068,-4.6022,-4.6293,-4.7063,-4.7294,-4.7596,-4.83,-4.8486,-4.8556,-4.8766,-4.8711,-4.8691,-4.8769,-4.8671,-4.8685,-4.8605,-4.8771,-4.8818,-4.8876,-4.8915,-4.8954,-5.1709,-5.1619,-5.0604,-5.0312,-5.0508,-5.0723,-5.0918,-5.1113,-5.1094,-5.1113,-5.1074,-5.0254,-4.8808,-4.6914,-4.5644,-4.5195,-4.5391,-4.5586,-4.5801,-4.5996,-4.6211,-4.6289,-4.625,-4.5625,-4.5215,-4.4941,-4.3652,-4.2812,-4.2383,-4.1582,-4.0996,-4.0527,-3.9297,-3.7988,-3.6738,-3.7344,-3.7363,-3.6699,-3.6894,-3.666,-3.6035,-3.6016,-3.6016,-3.6016,-3.6016,-3.5684,-3.5039,-3.5,-3.4609,-3.375,-3.2734,-3.1621,-3.0332,-2.7812,0.0,0.0,0.0,0.0,0.0,0.0,0.0,0.0,0.0,-2.9374,-2.5608,0.0,-3.0189,0.0,-3.3017,-3.5259,-3.6098,-3.7006,0.0,0.0,-3.9284,-4.0135,-4.3104,-4.3593,-4.4121,-4.5254,-4.6045,-4.636,-4.5929,-4.6025,-4.6162,-4.6336,-4.6227,-4.6118,-4.6098,-4.6063,-4.6018,-4.6018,-4.6018,-4.5993,-4.5922,-4.5966,-4.6104,-4.6364,-4.6429,-4.6498,-4.6709,-4.6732,-4.6953,-4.7532,-4.7184,-4.7103,-4.7702,-4.732,-4.6914,-4.7004,-4.7907,-4.8798,-4.8798,-4.8779,-4.8779,-5.1398,-5.1386,-5.1386,-5.1386,-5.1387,-5.1387,-5.1387,-5.1387,-5.1387,-5.1191,-5.0801,-5.0,-4.9082,-4.8144,-4.7285,-4.6875,-4.6855,-4.6484,-4.6289,-4.6289,-4.6289,-4.6094,-4.5703,-4.5234,-4.4805,-4.4375,-4.3437,-4.2773,-4.2383,-4.1953,-4.1562,-4.1211,-4.0723,-4.0,-3.9043,-3.8359,-3.7773,-3.7305,-3.6914,-3.6484,-3.6035,-3.6016,-3.6016,-3.6016,-3.6016,-3.5586,-3.4726,-3.4707,-3.4297,-3.3437,-3.2637,-3.1973,-3.1484,-2.9726,-2.8574,0.0,0.0,0.0,0.0,0.0,0.0,0.0,0.0,0.0,0.0,0.0,-3.2608,-3.2969,-3.6044,-3.8218,-3.8704,-3.989,-4.1167,-4.251,-4.2273,-4.3101,-4.5776,-4.5622,-4.5719,-4.6677,-4.6699,-4.6502,-4.617,-4.6024,-4.5958,-4.591,-4.5961,-4.5959,-4.5973,-4.5919,-4.5923,-4.5923,-4.5917,-4.588,-4.5814,-4.5854,-4.5922,-4.5944,-4.5959,-4.5974,-4.6035,-4.6063,-4.6251,-4.6679,-4.6433,-4.6235,-4.675,-4.6545,-4.6208,-4.6366,-4.7018,-4.7609,-4.7686,-4.7686,-4.7686,-5.14,-5.1387,-5.1288,-5.1249,-5.123,-5.1133,-5.1152,-5.123,-5.1113,-5.0683,-4.998,-4.9101,-4.873,-4.8672,-4.7832,-4.7441,-4.7383,-4.6641,-4.6289,-4.6289,-4.6289,-4.584,-4.5,-4.4883,-4.4375,-4.3555,-4.3437,-4.2988,-4.2266,-4.2246,-4.1894,-4.123,-4.1191,-4.1191,-4.1094,-3.8828,-3.7578,-3.7461,-3.6601,-3.6172,-3.6172,-3.6152,-3.6172,-3.6152,-3.5937,-3.543,-3.457,-3.4531,-3.4141,-3.3301,-3.2676,-3.2344,-3.2324,-3.1523,-3.0781,0.0,-2.9999,0.0,0.0,0.0,0.0,0.0,0.0,0.0,0.0,-3.5217,-3.5716,-3.639,-3.9372,-4.1292,-4.1269,-4.271,-4.3981,-4.4743,-4.4861,-4.5516,-4.7033,-4.7235,-4.7235,-4.7235,-4.7125,-4.6765,-4.6104,-4.5893,-4.5807,-4.5794,-4.5666,-4.5602,-4.564,-4.5743,-4.5775,-4.5684,-4.5652,-4.5608,-4.5768,-4.5807,-4.5814,-4.5814,-4.5827,-4.5828,-4.5964,-4.598,-4.6007,-4.6063,-4.6076,-4.6076,-4.6086,-4.6152,-4.6182,-4.6209,-4.6342,-4.6419,-4.6436,-4.6456,-4.6302,-5.1383,-5.1348,-5.0683,-5.043,-5.0371,-4.9668,-4.9785,-5.0371,-4.9668,-4.9277,-4.9082,-4.8223,-4.7851,-4.7773,-4.6933,-4.6543,-4.6543,-4.6387,-4.6289,-4.6289,-4.6289,-4.584,-4.498,-4.4277,-4.3476,-4.2637,-4.1992,-4.1582,-4.1426,-4.1426,-4.1348,-4.1211,-4.1191,-4.1191,-4.1152,0.0,0.0,0.0,-3.75,-3.7051,-3.7051,-3.7051,-3.7051,-3.7012,-3.5684,0.0,-3.3711,-3.3652,-3.3262,-3.25,-3.291,0.0,0.0,0.0,0.0,0.0,0.0,0.0,0.0,0.0,0.0,0.0,-3.8204,-3.7595,-3.6699,-3.9004,-4.038,-3.9973,-4.2318,-4.3892,-4.3886,-4.4831,-4.5548,-4.5725,-4.5802,-4.5986,-4.6332,-4.6352,-4.6336,-4.6352,-4.6279,-4.6177,-4.603,-4.5873,-4.5787,-4.5729,-4.522,-4.4871,-4.4833,-4.5355,-4.5529,-4.4968,-4.491,-4.5123,-4.5684,-4.5787,-4.5807,-4.5807,-4.5807,-4.5814,-4.5828,-4.5854,-4.5848,-4.5854,-4.5848,-4.5902,-4.6008,-4.6073,-4.6138,-4.6206,-4.6245,-4.6302,-4.6302,-4.6302,-4.6302,-5.117,-5.0762,-5.0371,-4.9961,0.0,-4.8633,-4.8516,-4.8906,-4.8906,-4.8652,-4.8203,-4.7324,-4.6953,-4.6953,-4.6504,-4.6289,-4.6289,-4.6289,-4.6289,-4.6289,-4.6289,-4.584,-4.498,-4.4551,-4.3652,-4.2422,-4.1992,-4.1582,-4.1211,-4.1191,-4.1191,-4.1191,-4.1191,-4.1191,-4.1172,-4.0332,-3.9473,-3.8613,-3.8164,-3.7949,-3.7949,-3.7949,-3.7949,-3.791,-3.709,0.0,0.0,0.0,0.0,0.0,0.0,0.0,0.0,0.0,0.0,-3.5898,-3.5996,-3.6327,-3.7144,-3.8334,-3.9568,-4.0757,-4.1631,-4.1353,-3.9597,-4.1815,-4.3111,-4.2763,-4.4233,-4.5181,-4.5207,-4.5641,-4.5935,-4.5991,-4.5963,-4.5983,-4.6022,-4.5993,-4.5963,-4.5938,-4.5927,-4.5892,-4.5892,-4.5467,-4.522,-4.5162,-4.4485,-4.3962,-4.404,-4.4678,-4.5007,-4.469,-4.4987,-4.5181,-4.522,-4.5594,-4.5807,-4.5807,-4.5807,-4.5807,-4.5807,-4.5807,-4.5807,-4.5807,-4.5807,-4.5848,-4.5922,-4.5998,-4.6057,-4.6147,-4.621,-4.6261,-4.6288,-4.6302,-4.6302,-5.0722,-4.9961,-4.9805,-4.9336,-4.8594,-4.7754,-4.7363,-4.7402,0.0,0.0,0.0,-4.6621,-4.6289,-4.6289,-4.6289,-4.6289,-4.6289,-4.6289,-4.6289,-4.6289,-4.6289,-4.584,-4.5019,-4.5019,-4.418,-4.2676,-4.2637,-4.2207,-4.1426,-4.1406,-4.1328,-4.1211,-4.1191,-4.1191,-4.1152,-4.0488,-3.9785,-3.9082,-3.8906,-3.8828,-3.8828,-3.8828,-3.8828,-3.8809,-3.8535,-3.8027,-3.7344,-3.7285,-3.6973,-3.6269,-3.6367,-3.6777,-3.748,-3.7676,-3.8164,-3.9004,-3.9863,-4.0343,-4.041,-4.1805,-4.2677,-4.2704,-4.3995,-4.4214,-4.2763,-4.3982,-4.4813,-4.4813,-4.5413,-4.5807,-4.5807,-4.5807,-4.5854,-4.5958,-4.5874,-4.5835,-4.5947,-4.5861,-4.5821,-4.5807,-4.5814,-4.5749,-4.5575,-4.5181,-4.4652,-4.4349,-4.3808,-4.3208,-4.3227,-4.382,-4.4439,-4.4613,-4.5045,-4.5258,-4.4736,-4.522,-4.5684,-4.5568,-4.5664,-4.5807,-4.5807,-4.5807,-4.5807,-4.5807,-4.5807,-4.5763,-4.568,-4.5686,-4.5733,-4.5643,-4.5713,-4.578,-4.5823,-4.5831,-4.589,-4.9862,-4.9023,-4.8281,-4.7891,-4.7715,-4.6836,-4.6504,-4.6484,-4.6621,-4.6601,-4.6465,-4.6367,-4.6289,-4.6289,-4.6289,-4.6289,-4.6289,-4.6289,-4.6289,-4.6289,-4.6289,-4.584,-4.5039,-4.5019,-4.4492,-4.3555,-4.3516,-4.3086,-4.2324,-4.2226,-4.1875,-4.1289,-4.1191,-4.1191,-4.1191,-4.1074,-4.0957,-4.082,-4.0117,-3.9726,-3.9726,-3.9707,-3.9707,-3.9648,-3.8301,-3.7422,-3.7305,-3.7324,-3.7246,-3.7148,-3.7832,-3.8301,-3.8437,-3.9121,-3.9941,-4.0781,-4.1554,-4.2279,-4.299,-4.3927,-4.4713,-4.5364,-4.5583,-4.551,-4.5304,-4.5471,-4.5633,-4.5626,-4.5729,-4.5807,-4.5807,-4.5807,-4.5814,-4.5834,-4.5801,-4.5814,-4.5841,-4.5801,-4.5807,-4.5807,-4.5807,-4.551,-4.5065,-4.5181,-4.4852,-4.3846,-4.3363,-4.3053,-4.2705,-4.2918,-4.375,-4.4407,-4.4697,-4.4407,-4.402,-4.4833,-4.5336,-4.4871,-4.5374,-4.5749,-4.5807,-4.5807,-4.5807,-4.5807,-4.5814,-4.5562,-4.5008,-4.487,-4.4744,-4.4282,-4.4176,-4.4206,-4.4332,-4.4328,-4.4662,-4.9414,-4.8203,-4.7754,-4.7324,-4.6855,-4.6465,-4.6289,-4.6289,-4.6289,-4.6289,-4.6289,-4.6289,-4.6289,-4.6289,-4.6289,-4.6289,-4.6289,-4.6289,-4.6289,-4.6289,-4.6289,-4.6094,-4.5723,-4.5723,-4.5254,-4.4453,-4.4414,-4.3965,-4.3144,-4.2637,-4.2207,-4.1816,-4.1426,-4.1191,-4.1191,-4.1191,-4.1191,-4.1191,-4.0801,-4.0605,-4.0605,-4.0605,-4.0605,-4.0586,-3.9805,-3.9414,-3.9414,-3.9414,-3.9434,-3.9414,-3.9805,-3.998,-3.9993,-4.0753,-4.1372,-4.1766,-4.2954,-4.3802,-4.4175,-4.4909,-4.5492,-4.5847,-4.5822,-4.5807,-4.5807,-4.5807,-4.5807,-4.5807,-4.5807,-4.5807,-4.5807,-4.5807,-4.5807,-4.5807,-4.5807,-4.5807,-4.5807,-4.5807,-4.5807,-4.5768,-4.5413,-4.5181,-4.5239,-4.4369,-4.4001,-4.3769,-4.3305,-4.2763,-4.3221,-4.3305,-4.344,-4.3846,-4.4265,-4.442,-4.4052,-4.4136,-4.4639,-4.5084,-4.5181,-4.5355,-4.5664,-4.5807,-4.5787,-4.5814,-4.5861,-4.5551,-4.4782,-4.471,-4.4397,-4.3753,-4.3583,-4.3767,-4.4201,-4.4406,-4.4543,-4.9023,-4.7598,-4.7383,-4.6914,-4.6308,-4.6289,-4.6289,-4.6289,-4.6289,-4.6289,-4.6289,-4.6289,-4.6289,-4.6289,-4.6289,-4.6289,-4.6289,-4.6289,-4.6289,-4.6289,-4.6289,-4.6289,-4.6289,-4.6289,-4.5937,-4.5351,-4.5293,-4.4844,-4.3984,-4.332,-4.2773,-4.2363,-4.1582,-4.1191,-4.1191,-4.1191,-4.1191,-4.1191,-4.1191,-4.1191,-4.1191,-4.1191,-4.1191,-4.1191,-4.1191,-4.1191,-4.1191,-4.1171,-4.119,-4.1171,-4.1149,-4.114,-4.1119,-4.203,-4.2539,-4.2653,-4.4109,-4.5034,-4.4988,-4.5473,-4.5807,-4.5807,-4.5807,-4.5807,-4.5807,-4.5807,-4.5807,-4.5807,-4.5807,-4.5722,-4.5529,-4.551,-4.5529,-4.5536,-4.551,-4.5587,-4.5768,-4.5807,-4.5807,-4.5729,-4.5258,-4.5104,-4.5084,-4.4001,-4.3479,-4.4168,-4.3247,-4.2899,-4.373,-4.3518,-4.3305,-4.3285,-4.404,-4.4465,-4.4253,-4.4136,-4.433,-4.5284,-4.491,-4.4813,-4.5123,-4.5297,-4.5517,-4.5485,-4.5764,-4.553,-4.4853,-4.47,-4.4331,-4.3472,-4.3198,-4.3436,-4.3672,-4.3801,-4.3957,-4.8476,-4.7539,-4.6816,-4.6367,-4.6289,-4.6289,-4.6289,-4.6289,-4.6289,-4.6289,-4.6289,-4.6289,-4.6289,-4.6289,-4.6289,-4.6289,-4.6289,-4.6289,-4.6289,-4.6289,-4.6289,-4.6289,-4.6289,-4.6289,-4.6269,-4.6152,-4.6133,-4.5683,-4.4902,-4.4746,-4.3926,-4.248,-4.1601,-4.123,-4.1211,-4.123,-4.123,-4.1191,-4.1191,-4.1191,-4.1191,-4.1191,-4.1191,-4.1191,-4.1191,-4.1191,-4.1191,-4.1144,-4.1114,-4.1091,-4.104,-4.1028,-4.1178,-4.2523,-4.3377,-4.3445,-4.4952,-4.5828,-4.5705,-4.5775,-4.5807,-4.5807,-4.5807,-4.5807,-4.5807,-4.5807,-4.5807,-4.5807,-4.5807,-4.551,-4.4813,-4.4794,-4.4852,-4.4833,-4.4845,-4.4987,-4.5671,-4.5807,-4.5807,-4.5807,-4.5613,-4.5452,-4.4968,-4.4987,-4.5065,-4.4581,-4.3827,-4.3131,-4.2995,-4.3227,-4.3118,-4.2866,-4.4085,-4.4491,-4.3311,-4.4272,-4.4627,-4.4008,-4.4214,-4.4414,-4.4363,-4.4556,-4.4755,-4.5246,-4.5428,-4.5538,-4.4893,-4.4702,-4.4163,-4.2855,-4.2422,-4.2382,-4.1734,-4.1753,-4.1986,-4.8848,-4.7598,-4.7226,-4.6758,-4.6328,-4.6289,-4.6289,-4.6289,-4.6289,-4.6289,-4.6289,-4.6289,-4.6289,-4.6289,-4.6289,-4.6289,-4.6289,-4.6289,-4.6289,-4.6289,-4.6289,-4.6289,-4.6289,-4.6289,-4.6289,-4.6289,-4.6289,-4.6113,-4.5723,-4.521,-4.4046,-4.2504,-4.244,-4.2303,-4.1896,-4.2303,-4.2555,-4.2557,-4.205,-4.1798,-4.1743,-4.135,-4.1117,-4.108,-4.1078,-4.1097,-4.1076,-4.104,-4.103,-4.1047,-4.1025,-4.1204,-4.1641,-4.2788,-4.3656,-4.4145,-4.5219,-4.5848,-4.5807,-4.5807,-4.5807,-4.5807,-4.5807,-4.5807,-4.5807,-4.5807,-4.5807,-4.5807,-4.5807,-4.5471,-4.4768,-4.5026,-4.5123,-4.4794,-4.5026,-4.5432,-4.5749,-4.5807,-4.5807,-4.5761,-4.5374,-4.522,-4.5297,-4.5587,-4.5432,-4.4775,-4.4253,-4.4027,-4.4143,-4.4175,-4.3686,-4.3302,-4.4605,-4.4859,-4.3337,-4.3498,-4.4137,-4.4259,-4.4376,-4.444,-4.4858,-4.5015,-4.5316,-4.5265,-4.557,-4.527,-4.4072,-4.3955,-4.3587,-4.234,-4.2107,-4.2142,-4.1265,-4.1518,-4.183,-4.9336,-4.7988,-4.748,-4.6875,-4.6308,-4.6289,-4.6289,-4.6289,-4.6289,-4.6289,-4.6289,-4.6289,-4.6289,-4.6289,-4.6289,-4.6289,-4.6289,-4.6289,-4.6289,-4.6289,-4.6289,-4.6289,-4.6289,-4.6289,-4.6289,-4.6289,-4.6289,-4.6289,-4.6169,-4.5326,-4.4195,-4.316,-4.3321,-4.3185,-4.2682,-4.3224,-4.3497,-4.3438,-4.2857,-4.2441,-4.2139,-4.1655,-4.1254,-4.1033,-4.099,-4.099,-4.099,-4.099,-4.0963,-4.0963,-4.0941,-4.1289,-4.2027,-4.289,-4.3819,-4.4827,-4.5478,-4.5807,-4.5807,-4.5807,-4.5807,-4.5807,-4.5807,-4.5807,-4.5807,-4.5807,-4.5807,-4.5807,-4.5807,-4.5471,-4.4813,-4.4891,-4.491,-4.4652,-4.5162,-4.5529,-4.5761,-4.5807,-4.5807,-4.5749,-4.5394,-4.5123,-4.5633,-4.5787,-4.5582,-4.5144,-4.5034,-4.4995,-4.5368,-4.4921,-4.4347,-4.3612,-4.4545,-4.4637,-4.3646,-4.4059,-4.43,-4.4418,-4.4679,-4.4785,-4.5371,-4.5304,-4.5245,-4.4715,-4.5342,-4.5244,-4.404,-4.3563,-4.3232,-4.207,-4.1733,-4.1908,-4.1246,-4.1693,-4.1654,-4.9668,-4.8613,-4.7031,-4.6367,-4.6289,-4.6289,-4.6289,-4.6289,-4.6289,-4.6289,-4.6289,-4.6289,-4.6289,-4.6289,-4.6289,-4.6289,-4.6289,-4.6289,-4.6289,-4.6289,-4.6289,-4.6289,-4.6289,-4.6289,-4.6289,-4.6289,-4.6289,-4.6265,-4.6144,-4.5237,-4.4773,-4.4627,-4.3915,-4.3509,-4.3443,-4.3576,-4.3529,-4.3654,-4.3518,-4.3047,-4.2277,-4.2116,-4.168,-4.113,-4.0987,-4.0981,-4.0977,-4.0941,-4.0912,-4.0893,-4.0851,-4.1183,-4.2002,-4.2892,-4.4131,-4.5497,-4.5768,-4.5807,-4.5807,-4.5807,-4.5807,-4.5807,-4.5807,-4.5807,-4.5807,-4.5807,-4.5807,-4.5807,-4.5749,-4.5374,-4.4775,-4.4311,-4.4098,-4.4562,-4.4671,-4.5084,-4.5722,-4.5807,-4.5807,-4.5807,-4.5703,-4.5678,-4.5794,-4.5807,-4.5861,-4.5842,-4.5894,-4.5711,-4.5176,-4.4911,-4.451,-4.3909,-4.378,-4.364,-4.3656,-4.416,-4.4896,-4.4821,-4.4343,-4.4603,-4.4283,-4.4091,-4.4159,-4.4265,-4.4884,-4.4812,-4.3953,-4.3381,-4.3025,-4.2265,-4.1495,-4.1267,-4.1148,-4.1129,-4.1148,-4.8867,-4.7969,-4.6797,-4.6289,-4.6289,-4.6289,-4.6289,-4.6289,-4.6289,-4.6289,-4.6289,-4.6289,-4.6289,-4.6289,-4.6289,-4.6289,-4.6289,-4.6289,-4.6289,-4.6289,-4.6289,-4.6289,-4.6289,-4.6289,-4.6289,-4.6289,-4.6264,-4.6191,-4.5901,-4.4615,-4.4171,-4.4575,-4.4364,-4.4209,-4.4286,-4.4713,-4.4971,-4.4907,-4.45,-4.4011,-4.3574,-4.2619,-4.1887,-4.1634,-4.1135,-4.0863,-4.0863,-4.0846,-4.0843,-4.0823,-4.0802,-4.1409,-4.2763,-4.4156,-4.5123,-4.571,-4.5807,-4.5807,-4.5807,-4.5807,-4.5807,-4.5807,-4.5807,-4.5807,-4.5807,-4.5807,-4.5807,-4.5729,-4.5278,-4.5045,-4.5316,-4.5065,-4.4794,-4.4697,-4.5065,-4.5452,-4.571,-4.5807,-4.5807,-4.5807,-4.5807,-4.5834,-4.5892,-4.5935,-4.5966,-4.6035,-4.6056,-4.592,-4.574,-4.5634,-4.5286,-4.4748,-4.4836,-4.5039,-4.4479,-4.4228,-4.4228,-4.3927,-4.3743,-4.4482,-4.4562,-4.4958,-4.516,-4.4617,-4.491,-4.4287,-4.3409,-4.2378,-4.2187,-4.2321,-4.1586,-4.1187,-4.1109,-4.1109,-4.1109,-4.8125,-4.7519,-4.666,-4.6289,-4.6289,-4.6289,-4.6289,-4.6289,-4.6289,-4.6289,-4.6289,-4.6289,-4.6289,-4.6289,-4.6289,-4.6289,-4.6289,-4.6289,-4.6289,-4.6289,-4.6268,-4.6267,-4.6266,-4.6242,-4.6239,-4.623,-4.6162,-4.6064,-4.5896,-4.478,-4.4362,-4.4588,-4.4852,-4.4852,-4.4794,-4.5413,-4.5807,-4.5691,-4.5239,-4.4775,-4.4136,-4.3047,-4.2125,-4.1622,-4.1067,-4.0797,-4.0797,-4.0797,-4.0951,-4.1139,-4.1184,-4.1951,-4.3653,-4.5045,-4.5807,-4.5807,-4.5807,-4.5807,-4.5807,-4.5807,-4.5807,-4.5807,-4.5807,-4.5807,-4.5807,-4.5807,-4.5807,-4.5671,-4.5374,-4.5258,-4.5626,-4.5787,-4.5568,-4.5142,-4.549,-4.5807,-4.5807,-4.5807,-4.5807,-4.5814,-4.5854,-4.5917,-4.5966,-4.6008,-4.6052,-4.6105,-4.6134,-4.6137,-4.6155,-4.614,-4.6013,-4.5491,-4.5475,-4.5383,-4.4863,-4.4355,-4.4355,-4.4082,-4.3906,-4.4531,-4.4824,-4.5391,-4.5508,-4.5039,-4.4414,-4.3672,-4.2761,-4.166,-4.154,-4.1926,-4.1626,-4.1129,-4.1109,-4.1109,-4.1109,-4.7578,-4.7422,-4.6641,-4.6289,-4.6289,-4.6289,-4.6289,-4.6289,-4.6289,-4.6289,-4.6289,-4.6289,-4.6289,-4.6289,-4.6289,-4.6289,-4.6289,-4.6289,-4.6269,-4.6288,-4.6235,-4.6183,-4.6181,-4.6145,-4.6115,-4.6109,-4.6002,-4.5968,-4.5922,-4.5499,-4.5059,-4.4852,-4.5297,-4.5239,-4.4639,-4.5432,-4.5807,-4.5787,-4.5691,-4.4987,-4.3556,-4.3382,-4.2667,-4.1338,-4.1087,-4.1023,-4.0951,-4.0855,-4.1145,-4.1816,-4.1912,-4.2802,-4.4311,-4.5336,-4.5807,-4.5807,-4.5807,-4.5807,-4.5807,-4.5807,-4.5807,-4.5807,-4.5807,-4.5807,-4.5807,-4.5807,-4.5807,-4.5787,-4.5749,-4.5787,-4.5768,-4.5807,-4.5761,-4.578,-4.5787,-4.5807,-4.5807,-4.5807,-4.5807,-4.5821,-4.5905,-4.5972,-4.6008,-4.6052,-4.6128,-4.6171,-4.6184,-4.6212,-4.625,-4.625,-4.6269,-4.6094,-4.584,-4.5508,-4.4941,-4.4414,-4.457,-4.4648,-4.4531,-4.4687,-4.4414,-4.4687,-4.4668,-4.4258,-4.3262,-4.2558,-4.2812,-4.1814,-4.142,-4.1571,-4.1232,-4.1148,-4.1109,-4.1109,-4.1109,-4.6719,-4.668,-4.6426,-4.6289,-4.6289,-4.6289,-4.6289,-4.6289,-4.6289,-4.6289,-4.6289,-4.6289,-4.6289,-4.6289,-4.6289,-4.6268,-4.6238,-4.6237,-4.6237,-4.6231,-4.6158,-4.6131,-4.6128,-4.6109,-4.6092,-4.5939,-4.5376,-4.539,-4.5589,-4.4724,-4.4427,-4.522,-4.5104,-4.5181,-4.5374,-4.5691,-4.5807,-4.5807,-4.5807,-4.5497,-4.4987,-4.4465,-4.3898,-4.3421,-4.286,-4.2512,-4.2473,-4.1435,-4.1216,-4.199,-4.199,-4.2802,-4.4369,-4.5374,-4.5787,-4.5807,-4.5807,-4.5807,-4.5807,-4.5807,-4.5807,-4.5807,-4.5807,-4.5807,-4.5807,-4.5807,-4.5807,-4.5807,-4.5807,-4.5807,-4.5807,-4.5807,-4.5807,-4.5807,-4.5807,-4.5807,-4.5807,-4.5807,-4.5807,-4.5801,-4.5923,-4.6022,-4.608,-4.6125,-4.6195,-4.623,-4.625,-4.6269,-4.6289,-4.6289,-4.6289,-4.623,-4.5918,-4.5762,-4.5488,-4.5098,-4.4922,-4.4824,-4.4687,-4.4394,-4.4121,-4.3984,-4.3926,-4.3359,-4.2344,-4.1992,-4.2226,-4.2046,-4.1535,-4.1452,-4.1445,-4.1325,-4.1168,-4.1109,-4.1109,-4.6289,-4.6289,-4.6289,-4.6289,-4.6289,-4.6289,-4.6289,-4.6289,-4.6289,-4.6289,-4.6289,-4.6289,-4.6289,-4.6289,-4.6247,-4.6198,-4.6156,-4.6098,-4.605,-4.6047,-4.608,-4.6056,-4.6048,-4.5998,-4.5973,-4.585,-4.5367,-4.535,-4.571,-4.4813,-4.462,-4.5162,-4.5142,-4.5104,-4.5394,-4.5671,-4.5807,-4.5807,-4.5807,-4.5645,-4.5316,-4.4871,-4.4446,-4.4072,-4.3569,-4.3324,-4.3208,-4.226,-4.2125,-4.286,-4.3247,-4.3982,-4.5007,-4.5529,-4.5807,-4.5807,-4.5807,-4.5807,-4.5807,-4.5807,-4.5807,-4.5807,-4.5807,-4.5807,-4.5807,-4.5807,-4.5807,-4.5807,-4.5807,-4.5807,-4.5807,-4.5807,-4.5807,-4.5807,-4.5807,-4.5807,-4.5807,-4.5807,-4.5807,-4.5834,-4.5904,-4.6022,-4.6091,-4.6155,-4.6234,-4.6289,-4.6289,-4.6289,-4.6289,-4.6289,-4.6289,-4.6289,-4.6211,-4.6152,-4.6211,-4.584,-4.5371,-4.5019,-4.4687,-4.4199,-4.3769,-4.375,-4.3691,-4.2773,-4.1797,-4.1777,-4.1951,-4.1597,-4.1204,-4.1374,-4.1503,-4.1325,-4.1109,-4.1109,-4.1109,-4.6289,-4.6289,-4.6289,-4.6289,-4.6289,-4.6289,-4.6289,-4.6289,-4.6289,-4.6289,-4.6289,-4.6289,-4.6289,-4.625,-4.6171,-4.6108,-4.6039,-4.593,-4.585,-4.5863,-4.5914,-4.5956,-4.5944,-4.5867,-4.5815,-4.5775,-4.575,-4.5782,-4.58,-4.5627,-4.542,-4.4949,-4.5432,-4.5432,-4.5123,-4.5471,-4.5807,-4.5807,-4.5807,-4.5452,-4.4871,-4.4768,-4.4407,-4.373,-4.3672,-4.3653,-4.3653,-4.3537,-4.3769,-4.4543,-4.5084,-4.5497,-4.5749,-4.5807,-4.5807,-4.5807,-4.5807,-4.5807,-4.5807,-4.5807,-4.5807,-4.5807,-4.5807,-4.5807,-4.5807,-4.5807,-4.5807,-4.5807,-4.5807,-4.5807,-4.5807,-4.5962,-4.6,-4.6,-4.5962,-4.5845,-4.5807,-4.5807,-4.5807,-4.5827,-4.5929,-4.6047,-4.6098,-4.616,-4.6238,-4.6269,-4.6289,-4.6289,-4.6289,-4.6289,-4.6289,-4.6289,-4.6289,-4.6289,-4.6289,-4.6211,-4.5762,-4.5566,-4.5078,-4.4375,-4.3457,-4.3242,-4.3008,-4.209,-4.168,-4.166,-4.152,-4.1245,-4.1103,-4.1212,-4.1228,-4.1129,-4.1109,-4.1109,-4.1109,-4.6289,-4.6289,-4.6289,-4.6289,-4.6289,-4.6289,-4.6289,-4.6289,-4.6289,-4.6289,-4.6289,-4.6289,-4.6247,-4.6168,-4.6117,-4.6021,-4.5915,-4.5836,-4.5764,-4.5725,-4.5771,-4.5759,-4.5778,-4.5742,-4.5719,-4.5734,-4.5821,-4.5841,-4.5817,-4.588,-4.577,-4.5517,-4.5645,-4.571,-4.5575,-4.5684,-4.5807,-4.5807,-4.5807,-4.5722,-4.551,-4.5452,-4.5401,-4.52,-4.5104,-4.5091,-4.5142,-4.5142,-4.491,-4.4652,-4.5374,-4.5807,-4.5807,-4.5807,-4.5807,-4.5807,-4.5807,-4.5807,-4.5807,-4.5807,-4.5807,-4.5807,-4.5884,-4.5807,-4.5807,-4.5826,-4.5826,-4.5807,-4.5807,-4.5865,-4.5942,-4.6406,-4.696,-4.7444,-4.6651,-4.5942,-4.5865,-4.5807,-4.5807,-4.5827,-4.5958,-4.6048,-4.6112,-4.6195,-4.6266,-4.6289,-4.6289,-4.6289,-4.6289,-4.6289,-4.6289,-4.6289,-4.6289,-4.6289,-4.6289,-4.6289,-4.6211,-4.6113,-4.5586,-4.4805,-4.3574,-4.2441,-4.1992,-4.1308,-4.1582,-4.166,-4.1406,-4.1127,-4.11,-4.1112,-4.1109,-4.1109,-4.1109,-4.1109,-4.1109,-4.6289,-4.6289,-4.6289,-4.6289,-4.6289,-4.6289,-4.6289,-4.6289,-4.6289,-4.6289,-4.6289,-4.6288,-4.6263,-4.6186,-4.6123,-4.6034,-4.5925,-4.5878,-4.5814,-4.5796,-4.579,-4.5754,-4.5719,-4.5688,-4.5688,-4.5715,-4.5778,-4.5778,-4.5769,-4.5873,-4.5873,-4.58,-4.5819,-4.5807,-4.5768,-4.5807,-4.5807,-4.5807,-4.5807,-4.5807,-4.5807,-4.5807,-4.5807,-4.5807,-4.5807,-4.5807,-4.5807,-4.5807,-4.5568,-4.5297,-4.5548,-4.5807,-4.5807,-4.5807,-4.5807,-4.5807,-4.5807,-4.5807,-4.5807,-4.5807,-4.5807,-4.5904,-4.6078,-4.6329,-4.6457,-4.6631,-4.6883,-4.6967,-4.6902,-4.6902,-4.696,-4.7366,-4.785,-4.8121,-4.7482,-4.6755,-4.6426,-4.6387,-4.6148,-4.5964,-4.5883,-4.6011,-4.6064,-4.6167,-4.6219,-4.6269,-4.6289,-4.6289,-4.6289,-4.6289,-4.6289,-4.6289,-4.6289,-4.6289,-4.6289,-4.6289,-4.6289,-4.625,-4.5879,-4.5137,-4.4199,-4.2676,-4.2363,-4.2129,-4.1894,-4.168,-4.1641,-4.1438,-4.1101,-4.1115,-4.1112,-4.1109,-4.1109,-4.1109,-4.1109,-4.6289,-4.6289,-4.6289,-4.6289,-4.6289,-4.6289,-4.6289,-4.6289,-4.6288,-4.6287,-4.6306,-4.6303,-4.6279,-4.6256,-4.6133,-4.6079,-4.6059,-4.5935,-4.5908,-4.5863,-4.5834,-4.5769,-4.5692,-4.5704,-4.5712,-4.5731,-4.5723,-4.5723,-4.5731,-4.5781,-4.5803,-4.5803,-4.5805,-4.58,-4.58,-4.5807,-4.5807,-4.5807,-4.5807,-4.5807,-4.5807,-4.5807,-4.5807,-4.5807,-4.5807,-4.5807,-4.5807,-4.5826,-4.5826,-4.5935,-4.5845,-4.5807,-4.5807,-4.5807,-4.5807,-4.5884,-4.5962,-4.6051,-4.6039,-4.6194,-4.6213,-4.6387,-4.6929,-4.7212,-4.7328,-4.7753,-4.8101,-4.8063,-4.8372,-4.8256,-4.8411,-4.8508,-4.8662,-4.8856,-4.872,-4.8256,-4.7599,-4.7289,-4.6902,-4.6097,-4.5975,-4.6036,-4.6044,-4.6118,-4.6152,-4.6269,-4.6289,-4.6289,-4.6289,-4.6289,-4.6289,-4.6289,-4.6289,-4.6289,-4.6289,-4.6289,-4.6289,-4.625,-4.5898,-4.5391,-4.5137,-4.416,-4.373,-4.3359,-4.2812,-4.2558,-4.2519,-4.214,-4.1551,-4.1253,-4.1363,-4.1226,-4.1109,-4.1109,-4.1109,-4.6289,-4.6289,-4.6289,-4.6289,-4.6289,-4.6289,-4.6328,-4.6366,-4.6326,-4.6383,-4.6303,-4.6301,-4.6228,-4.6153,-4.6176,-4.6052,-4.6093,-4.6042,-4.5881,-4.5802,-4.57,-4.5657,-4.5643,-4.5719,-4.5771,-4.5764,-4.5752,-4.5746,-4.5727,-4.5769,-4.5807,-4.5815,-4.5803,-4.5817,-4.58,-4.5807,-4.5807,-4.5807,-4.5807,-4.5807,-4.5807,-4.5807,-4.5807,-4.5807,-4.5807,-4.5807,-4.5807,-4.5807,-4.6129,-4.6477,-4.6271,-4.6032,-4.6,-4.5962,-4.5981,-4.6136,-4.6535,-4.6806,-4.6902,-4.7328,-4.7792,-4.7715,-4.7889,-4.8121,-4.8121,-4.8333,-4.8469,-4.8411,-4.8411,-4.8836,-4.9301,-4.9417,-4.9649,-4.9997,-5.0163,-4.9939,-4.9223,-4.8508,-4.7753,-4.7098,-4.681,-4.6692,-4.6204,-4.6167,-4.6211,-4.6289,-4.6289,-4.6289,-4.6289,-4.6289,-4.6289,-4.6289,-4.6289,-4.6289,-4.6289,-4.6289,-4.6289,-4.6289,-4.5996,-4.5762,-4.5527,-4.5137,-4.4531,-4.4023,-4.3555,-4.3418,-4.3398,-4.2786,-4.2178,-4.1917,-4.1596,-4.1441,-4.1304,-4.1226,-4.1109,-4.6289,-4.6289,-4.6289,-4.6543,-4.6875,-4.6933,-4.7127,-4.7359,-4.7044,-4.6905,-4.6825,-4.6529,-4.6241,-4.6255,-4.6604,-4.6777,-4.6816,-4.7075,-4.6925,-4.659,-4.6382,-4.6141,-4.5752,-4.5759,-4.5778,-4.5731,-4.5708,-4.5695,-4.5703,-4.5739,-4.5764,-4.5815,-4.5822,-4.5805,-4.58,-4.5807,-4.5807,-4.5807,-4.5807,-4.5807,-4.5807,-4.5807,-4.5807,-4.5807,-4.5845,-4.5942,-4.6399,-4.6426,-4.6883,-4.7347,-4.727,-4.7018,-4.6999,-4.7025,-4.6999,-4.7115,-4.7386,-4.7695,-4.7889,-4.8101,-4.8353,-4.8469,-4.874,-4.8972,-4.9146,-4.932,-4.9571,-4.9571,-4.9649,-4.9823,-5.0183,-5.026,-5.055,-5.0724,-5.0898,-5.0705,-5.0221,-4.9513,-4.8662,-4.7898,-4.7391,-4.7077,-4.6765,-4.6484,-4.625,-4.6308,-4.6289,-4.6289,-4.6289,-4.6289,-4.6289,-4.6289,-4.6289,-4.6289,-4.6289,-4.6289,-4.6289,-4.6289,-4.6211,-4.6113,-4.6016,-4.5586,-4.5098,-4.4785,-4.4531,-4.4316,-4.4175,-4.349,-4.2862,-4.2442,-4.2103,-4.1773,-4.1636,-4.1695,-4.1461,-4.6289,-4.6308,-4.6445,-4.6933,-4.7557,-4.7732,-4.816,-4.8643,-4.811,-4.7756,-4.7635,-4.6889,-4.671,-4.6845,-4.7253,-4.7606,-4.7901,-4.819,-4.7972,-4.7451,-4.732,-4.6829,-4.6312,-4.6081,-4.6044,-4.5815,-4.567,-4.5659,-4.5693,-4.5811,-4.5936,-4.587,-4.601,-4.5986,-4.5877,-4.5807,-4.5807,-4.5807,-4.5807,-4.5807,-4.5807,-4.5826,-4.5865,-4.6109,-4.6136,-4.6542,-4.7096,-4.7354,-4.7676,-4.8508,-4.8604,-4.8662,-4.872,-4.845,-4.8411,-4.8353,-4.843,-4.8585,-4.8662,-4.8798,-4.8952,-4.8836,-4.9417,-4.9842,-5.0035,-5.0326,-5.055,-5.0705,-5.0685,-5.0685,-5.0879,-5.0801,-5.0821,-5.0898,-5.0898,-5.0898,-5.0782,-5.026,-4.9533,-4.8762,-4.8289,-4.7962,-4.7311,-4.6855,-4.6566,-4.6328,-4.6308,-4.6289,-4.6289,-4.6289,-4.6289,-4.6289,-4.6289,-4.6289,-4.6289,-4.6289,-4.6289,-4.6289,-4.6289,-4.6289,-4.6289,-4.6016,-4.5664,-4.5801,-4.5625,-4.533,-4.4937,-4.4406,-4.3756,-4.3102,-4.2786,-4.2671,-4.2476,-4.2259,-4.2006,-4.6289,-4.6367,-4.709,-4.748,-4.7713,-4.8357,-4.8725,-4.8794,-4.8732,-4.8592,-4.8488,-4.7783,-4.7744,-4.8076,-4.7723,-4.7977,-4.8596,-4.8857,-4.8627,-4.8269,-4.8104,-4.7584,-4.6896,-4.6736,-4.6698,-4.646,-4.6144,-4.5853,-4.5986,-4.629,-4.6444,-4.609,-4.6534,-4.6622,-4.6148,-4.5845,-4.6051,-4.6148,-4.6116,-4.6097,-4.6078,-4.6097,-4.6329,-4.6806,-4.6883,-4.7347,-4.7966,-4.8217,-4.8585,-4.9378,-4.9475,-4.9815,-4.9939,-4.9165,-4.8662,-4.872,-4.9165,-4.9475,-4.9533,-5.0055,-5.0376,-5.0531,-5.0531,-5.0627,-5.0705,-5.0801,-5.0879,-5.0898,-5.0898,-5.0898,-5.0898,-5.0898,-5.0898,-5.0898,-5.0898,-5.0898,-5.0859,-5.0666,-5.0314,-4.9616,-4.9239,-4.8856,-4.8133,-4.7426,-4.6961,-4.6641,-4.6406,-4.6348,-4.6289,-4.6289,-4.6289,-4.6289,-4.6289,-4.6289,-4.6289,-4.6289,-4.6289,-4.6289,-4.6289,-4.6289,-4.6289,-4.6289,-4.625,-4.6172,-4.6172,-4.5975,-4.5581,-4.5167,-4.4731,-4.4136,-4.3881,-4.3686,-4.3313,-4.304,-4.3196,-4.6289,-4.6348,-4.6757,-4.7459,-4.8238,-4.8665,-4.9362,-5.0016,-4.9663,-4.9466,-4.9228,-4.866,-4.8408,-4.874,-4.8992,-4.9279,-4.9722,-4.9845,-4.9485,-4.9104,-4.8855,-4.8382,-4.7605,-4.7519,-4.75,-4.7413,-4.7086,-4.6873,-4.6977,-4.7394,-4.7331,-4.7283,-4.7592,-4.7545,-4.725,-4.7212,-4.7096,-4.7096,-4.7096,-4.7096,-4.7096,-4.7115,-4.7424,-4.7618,-4.7831,-4.8217,-4.8875,-4.9068,-4.9475,-5.0124,-5.0318,-5.055,-5.0511,-5.0241,-4.9668,-4.9726,-5.0047,-5.0318,-5.0318,-5.0724,-5.084,-5.0879,-5.0898,-5.0898,-5.0898,-5.0898,-5.0898,-5.0898,-5.0898,-5.0898,-5.0898,-5.0898,-5.0898,-5.0898,-5.0898,-5.0898,-5.0906,-5.0906,-5.0681,-5.0338,-4.9909,-4.9428,-4.8978,-4.825,-4.7512,-4.7012,-4.6621,-4.6484,-4.6426,-4.6426,-4.6484,-4.6289,-4.6289,-4.6289,-4.6289,-4.6289,-4.6289,-4.6289,-4.6289,-4.6289,-4.6289,-4.6289,-4.6289,-4.6269,-4.6289,-4.6289,-4.6167,-4.5753,-4.5453,-4.521,-4.5072,-4.4797,-4.4172,-4.3879,-4.4075,-4.6289,-4.6308,-4.6483,-4.7476,-4.8761,-4.9029,-4.9959,-5.1064,-5.0653,-5.036,-5.0241,-4.952,-4.9169,-4.9462,-5.0018,-5.0579,-5.1017,-5.0895,-5.0402,-4.9894,-4.9708,-4.9248,-4.8576,-4.8355,-4.8355,-4.8355,-4.8298,-4.8297,-4.8044,-4.8347,-4.8417,-4.8257,-4.84,-4.8508,-4.8314,-4.8101,-4.8392,-4.8411,-4.8411,-4.8411,-4.8411,-4.8411,-4.8508,-4.8643,-4.8662,-4.9068,-4.9823,-4.9939,-5.019,-5.0627,-5.084,-5.0879,-5.0898,-5.0898,-5.0898,-5.0898,-5.0898,-5.0898,-5.0879,-5.0859,-5.0898,-5.0898,-5.0898,-5.0898,-5.0898,-5.0898,-5.0898,-5.0898,-5.0898,-5.0898,-5.0898,-5.0898,-5.0898,-5.0898,-5.0898,-5.0914,-5.094,-5.0976,-5.1024,-5.072,-5.0391,-5.0013,-4.9535,-4.9277,-4.8594,-4.8008,-4.7598,-4.7129,-4.7051,-4.6836,-4.6758,-4.6426,-4.6289,-4.6289,-4.6289,-4.6289,-4.6289,-4.6289,-4.6289,-4.6289,-4.6289,-4.6289,-4.6289,-4.6289,-4.6289,-4.6306,-4.6303,-4.628,-4.5938,-4.5814,-4.6067,-4.587,-4.5207,-4.4953,-4.5051,-4.6289,-4.6367,-4.7089,-4.8004,-4.8898,-4.9556,-5.0447,-5.1258,-5.1199,-5.1258,-5.1082,-5.0397,-5.0338,-5.0822,-5.1015,-5.1177,-5.1155,-5.102,-5.084,-5.0488,-5.0429,-5.0018,-4.9365,-4.924,-4.924,-4.926,-4.924,-4.8779,-4.8681,-4.9099,-4.9007,-4.8742,-4.9165,-4.9243,-4.8798,-4.8798,-4.8411,-4.845,-4.8488,-4.8508,-4.8546,-4.8566,-4.8952,-4.9359,-4.9591,-4.9861,-5.0492,-5.0608,-5.0763,-5.0821,-5.0898,-5.0898,-5.0898,-5.0898,-5.0898,-5.0898,-5.0898,-5.0898,-5.0898,-5.0898,-5.0898,-5.0898,-5.0898,-5.0898,-5.0898,-5.0898,-5.0898,-5.0898,-5.0898,-5.0898,-5.0898,-5.0898,-5.0898,-5.0914,-5.0921,-5.0976,-5.103,-5.1042,-5.11,-5.1122,-5.083,-5.0511,-5.0117,-4.9941,-4.9687,-4.9121,-4.8555,-4.8066,-4.7617,-4.7383,-4.7109,-4.6797,-4.6348,-4.6289,-4.6289,-4.6289,-4.6289,-4.6289,-4.6289,-4.6289,-4.6289,-4.6289,-4.6289,-4.6289,-4.6306,-4.6304,-4.6301,-4.6276,-4.6228,-4.6223,-4.6223,-4.6262,-4.6184,-4.6066,-4.5851,-4.6289,-4.6327,-4.6696,-4.7375,-4.8228,-4.9023,-4.9856,-5.0653,-5.1199,-5.1394,-5.1355,-5.1043,-5.103,-5.1255,-5.1211,-5.1108,-5.1023,-5.0944,-5.0844,-5.0799,-5.0691,-5.05,-5.0231,-5.0125,-5.0144,-5.0067,-5.0115,-5.0048,-4.9797,-4.987,-4.9999,-4.9859,-5.0101,-5.026,-4.9668,-4.9765,-4.9815,-4.9854,-4.9861,-4.9815,-4.9823,-4.9823,-4.9977,-5.0337,-5.0337,-5.0569,-5.0782,-5.0898,-5.0898,-5.0898,-5.0898,-5.0898,-5.0898,-5.0898,-5.0898,-5.0898,-5.0898,-5.0898,-5.0898,-5.0917,-5.0898,-5.0898,-5.0898,-5.0898,-5.0898,-5.0898,-5.0898,-5.0898,-5.0898,-5.0898,-5.0898,-5.0898,-5.0898,-5.0914,-5.0974,-5.1043,-5.1097,-5.1142,-5.1174,-5.1223,-5.1245,-5.0931,-5.0625,-5.0371,-5.0176,-4.9844,-4.9277,-4.8769,-4.8242,-4.7812,-4.7519,-4.7207,-4.6719,-4.6289,-4.6289,-4.6289,-4.6289,-4.6289,-4.6289,-4.6289,-4.6289,-4.6289,-4.6288,-4.6305,-4.6302,-4.6301,-4.6297,-4.6274,-4.6248,-4.6264,-4.6302,-4.6302,-4.6302,-4.6262,-4.6105,-4.6289,-4.6306,-4.6303,-4.6786,-4.7638,-4.8255,-4.913,-5.0163,-5.0768,-5.118,-5.1375,-5.1353,-5.1288,-5.1207,-5.1099,-5.1027,-5.091,-5.0789,-5.073,-5.0712,-5.0693,-5.0673,-5.0577,-5.0635,-5.0635,-5.0683,-5.0577,-5.0539,-5.0624,-5.0717,-5.0722,-5.0899,-5.0728,-5.0801,-5.0859,-5.0743,-5.0666,-5.0685,-5.0705,-5.0724,-5.0763,-5.0782,-5.0801,-5.0879,-5.0898,-5.0898,-5.0898,-5.0898,-5.0898,-5.0898,-5.0898,-5.0898,-5.0898,-5.0898,-5.0898,-5.0898,-5.0898,-5.1072,-5.113,-5.113,-5.0956,-5.0898,-5.0898,-5.0898,-5.0898,-5.0898,-5.0898,-5.0898,-5.0898,-5.0898,-5.0898,-5.0898,-5.0937,-5.0988,-5.1037,-5.1111,-5.1167,-5.1199,-5.1255,-5.1299,-5.1337,-5.1359,-5.1055,-5.0762,-5.0566,-5.043,-5.0,-4.9473,-4.8984,-4.8476,-4.7969,-4.7676,-4.7207,-4.666,-4.6328,-4.6328,-4.6308,-4.6289,-4.6289,-4.6289,-4.6289,-4.6288,-4.6306,-4.6302,-4.6299,-4.6294,-4.629,-4.629,-4.6288,-4.6305,-4.6302,-4.6302,-4.6302,-4.6302,-4.6302,-4.6288,-4.6302,-4.6301,-4.6766,-4.7559,-4.765,-4.8621,-4.987,-5.0143,-5.0709,-5.1355,-5.1392,-5.1327,-5.1207,-5.1156,-5.1053,-5.0906,-5.0887,-5.0801,-5.0731,-5.0693,-5.0693,-5.0683,-5.0683,-5.0683,-5.0683,-5.0693,-5.0693,-5.0701,-5.0775,-5.0827,-5.088,-5.0901,-5.0898,-5.0898,-5.0898,-5.0898,-5.0898,-5.0898,-5.0898,-5.0898,-5.0898,-5.0898,-5.0898,-5.0898,-5.0898,-5.0898,-5.0898,-5.0898,-5.0898,-5.0898,-5.0898,-5.0898,-5.1053,-5.1111,-5.1138,-5.1304,-5.1602,-5.1873,-5.1486,-5.1014,-5.0937,-5.0995,-5.1091,-5.113,-5.1014,-5.0956,-5.1091,-5.1149,-5.0995,-5.0956,-5.0914,-5.0969,-5.1024,-5.1095,-5.117,-5.1225,-5.1272,-5.1325,-5.1365,-5.1387,-5.1387,-5.1387,-5.1074,-5.0996,-5.0879,-5.0879,-5.0371,-4.9902,-4.9375,-4.8613,-4.8125,-4.7715,-4.7148,-4.6484,-4.6367,-4.6308,-4.6289,-4.6289,-4.6289,-4.6289,-4.6288,-4.6304,-4.63,-4.6294,-4.6288,-4.6302,-4.6303,-4.6305,-4.6302,-4.6302,-4.6302,-4.6302,-4.6302,-4.6302,-4.6288,-4.6301,-4.6301,-4.6492,-4.6832,-4.7373,-4.7957,-4.8679,-4.9655,-5.0573,-5.1394,-5.139,-5.1265,-5.1113,-5.1058,-5.0979,-5.0801,-5.0766,-5.073,-5.0721,-5.0693,-5.0683,-5.0683,-5.0683,-5.0683,-5.0683,-5.0693,-5.0721,-5.0766,-5.0793,-5.0844,-5.0885,-5.0909,-5.0898,-5.0898,-5.0898,-5.0898,-5.0898,-5.0898,-5.0898,-5.0898,-5.0898,-5.0898,-5.0898,-5.0898,-5.0898,-5.0898,-5.0898,-5.0898,-5.0898,-5.0898,-5.0937,-5.1072,-5.1389,-5.1641,-5.1776,-5.2066,-5.255,-5.2705,-5.2221,-5.1718,-5.1699,-5.1718,-5.1699,-5.1738,-5.2105,-5.2066,-5.197,-5.1699,-5.1602,-5.1003,-5.1007,-5.1043,-5.1089,-5.1156,-5.1223,-5.1286,-5.133,-5.1348,-5.1387,-5.1387,-5.1387,-5.1387,-5.1367,-5.1348,-5.1328,-5.1348,-5.125,-5.0723,-5.0254,-4.9512,-4.8828,-4.8418,-4.7734,-4.7051,-4.668,-4.6348,-4.6289,-4.6289,-4.6289,-4.6289,-4.6306,-4.6301,-4.6296,-4.6291,-4.6305,-4.6302,-4.6302,-4.6302,-4.6302,-4.6302,-4.6302,-4.6302,-4.6302,-4.6302,-4.6288,-4.6302,-4.6301,-4.6295,-4.638,-4.6963,-4.7373,-4.784,-4.9091,-5.0379,-5.1375,-5.139,-5.1252,-5.1058,-5.1002,-5.0896,-5.0757,-5.0702,-5.0693,-5.0683,-5.0683,-5.0683,-5.0683,-5.0683,-5.0683,-5.0683,-5.0693,-5.0721,-5.0766,-5.0773,-5.0836,-5.0877,-5.0898,-5.0898,-5.0898,-5.0898,-5.0898,-5.0898,-5.0898,-5.0898,-5.0898,-5.0898,-5.0898,-5.0898,-5.0898,-5.0898,-5.0898,-5.0898,-5.0898,-5.0898,-5.0937,-5.1061,-5.1389,-5.1815,-5.2287,-5.2685,-5.3091,-5.3575,-5.3594,-5.313,-5.2616,-5.2589,-5.2589,-5.2569,-5.2751,-5.3149,-5.2956,-5.2705,-5.2569,-5.2318,-5.1591,-5.1721,-5.1661,-5.1726,-5.1303,-5.1288,-5.1331,-5.1387,-5.1387,-5.1387,-5.1387,-5.1387,-5.1387,-5.1387,-5.1387,-5.1387,-5.1387,-5.1367,-5.1191,-5.0781,-5.041,-4.9766,-4.9199,-4.8437,-4.7656,-4.7266,-4.6816,-4.6289,-4.6289,-4.6289,-4.6288,-4.6304,-4.63,-4.6295,-4.629,-4.6303,-4.6302,-4.6302,-4.6302,-4.6302,-4.6302,-4.6302,-4.6302,-4.6302,-4.6302,-4.6288,-4.6302,-4.6301,-4.6295,-4.6302,-4.6319,-4.6807,-4.7547,-4.8545,-4.9872,-5.1277,-5.1392,-5.1278,-5.1058,-5.102,-5.0896,-5.0757,-5.0702,-5.0683,-5.0683,-5.0683,-5.0683,-5.0683,-5.0683,-5.0683,-5.0683,-5.0683,-5.0692,-5.0739,-5.0793,-5.0855,-5.0888,-5.0909,-5.0898,-5.0898,-5.0898,-5.0898,-5.0898,-5.0898,-5.0898,-5.0898,-5.0898,-5.0898,-5.0898,-5.0898,-5.0898,-5.0898,-5.0898,-5.0898,-5.0898,-5.1091,-5.1389,-5.1931,-5.2318,-5.284,-5.344,-5.3575,-5.4039,-5.4581,-5.3884,-5.3633,-5.3517,-5.3478,-5.3459,-5.3478,-5.3614,-5.3691,-5.3536,-5.3478,-5.3428,-5.3096,-5.2763,-5.2516,-5.2329,-5.1943,-5.1683,-5.1774,-5.1699,-5.1758,-5.1484,-5.1387,-5.1387,-5.1387,-5.1387,-5.1387,-5.1387,-5.1387,-5.1387,-5.1367,-5.123,-5.0879,-5.0488,-4.9863,-4.9023,-4.8262,-4.7773,-4.7285,-4.666,-4.6289,-4.6289,-4.6306,-4.6303,-4.6299,-4.6294,-4.6288,-4.6302,-4.6302,-4.6302,-4.6302,-4.6302,-4.6302,-4.6302,-4.6302,-4.6302,-4.6302,-4.6288,-4.6301,-4.6301,-4.6297,-4.6288,-4.6303,-4.6495,-4.6963,-4.8213,-4.9774,-5.1141,-5.1394,-5.1302,-5.115,-5.1031,-5.0933,-5.0841,-5.0712,-5.0683,-5.0693,-5.0693,-5.0683,-5.0683,-5.0683,-5.0693,-5.0702,-5.0702,-5.072,-5.0775,-5.0819,-5.0861,-5.0901,-5.0909,-5.0898,-5.0898,-5.0898,-5.0898,-5.0898,-5.0898,-5.0898,-5.0898,-5.0898,-5.0898,-5.0898,-5.0898,-5.0898,-5.0898,-5.0898,-5.0937,-5.1072,-5.1331,-5.1912,-5.2531,-5.2975,-5.3962,-5.4465,-5.4697,-5.5258,-5.5528,-5.5219,-5.489,-5.4581,-5.4368,-5.4349,-5.4349,-5.4929,-5.4813,-5.4492,-5.4384,-5.4181,-5.3546,-5.3469,-5.3338,-5.3415,-5.3147,-5.2788,-5.2656,-5.2422,-5.2266,-5.168,-5.1387,-5.1387,-5.1387,-5.1387,-5.1387,-5.1387,-5.1387,-5.1387,-5.1387,-5.1387,-5.1191,-5.0937,-5.043,-4.959,-4.8848,-4.8242,-4.7363,-4.6543,-4.6289,-4.6289,-4.6305,-4.6301,-4.6295,-4.6288,-4.6303,-4.6302,-4.6302,-4.6302,-4.6302,-4.6302,-4.6302,-4.6302,-4.6302,-4.6302,-4.6302,-4.6015,-4.6302,-4.6301,-4.6299,-4.6293,-4.6305,-4.6573,-4.7276,-4.8369,-4.9774,-5.1121,-5.1394,-5.1327,-5.1203,-5.1099,-5.0991,-5.0898,-5.0805,-5.0721,-5.0712,-5.0693,-5.0683,-5.0693,-5.0693,-5.0683,-5.0693,-5.0702,-5.0729,-5.0838,-5.0883,-5.0897,-5.0909,-5.0898,-5.0898,-5.0898,-5.0898,-5.0898,-5.0898,-5.0898,-5.0898,-5.0898,-5.0898,-5.0898,-5.0898,-5.0898,-5.0898,-5.0898,-5.0937,-5.1053,-5.1409,-5.1873,-5.2539,-5.3227,-5.4,-5.4948,-5.5316,-5.5606,-5.5945,-5.5926,-5.5935,-5.5548,-5.5296,-5.5219,-5.5219,-5.5258,-5.5586,-5.5567,-5.5363,-5.5241,-5.4985,-5.4588,-5.449,-5.43,-5.4371,-5.4036,-5.3652,-5.334,-5.3105,-5.2578,-5.1992,-5.1445,-5.1426,-5.1387,-5.1387,-5.1387,-5.1387,-5.1387,-5.1387,-5.1387,-5.1387,-5.1387,-5.1191,-5.0859,-5.0098,-4.9297,-4.8574,-4.7617,-4.6484,-4.6288,-4.6306,-4.6301,-4.6296,-4.629,-4.6303,-4.6302,-4.6302,-4.6302,-4.6302,-4.6302,-4.6302,-4.6302,-4.6302,-4.6302,-4.6302,-4.6302,-4.5526,-4.6244,-4.6301,-4.6299,-4.6293,-4.6305,-4.7199,-4.8681,-4.8779,-4.9794,-5.1375,-5.1394,-5.1327,-5.123,-5.1191,-5.1067,-5.0916,-5.0863,-5.0797,-5.0739,-5.0692,-5.0693,-5.0693,-5.0693,-5.0693,-5.0682,-5.072,-5.0775,-5.0891,-5.0908,-5.0913,-5.0914,-5.0914,-5.0929,-5.0929,-5.0914,-5.0906,-5.0898,-5.0898,-5.0898,-5.0898,-5.0898,-5.0898,-5.0898,-5.0898,-5.0898,-5.0956,-5.1061,-5.1467,-5.1892,-5.2364,-5.3362,-5.4175,-5.4793,-5.5335,-5.5741,-5.5965,-5.5984,-5.6003,-5.6003,-5.5984,-5.578,-5.5857,-5.5954,-5.5935,-5.5935,-5.5857,-5.5869,-5.5808,-5.5973,-5.5979,-5.5591,-5.5233,-5.5004,-5.4665,-5.4316,-5.3984,-5.3555,-5.2969,-5.2363,-5.1719,-5.1484,-5.1406,-5.1387,-5.1387,-5.1387,-5.1387,-5.1387,-5.1387,-5.1387,-5.1387,-5.1387,-5.1016,-5.0547,-4.9785,-4.8965,-4.8027,-4.6953,-4.6404,-4.6305,-4.6299,-4.6312,-4.6287,-4.6303,-4.6302,-4.6302,-4.6302,-4.6302,-4.6302,-4.6302,-4.6302,-4.6302,-4.6302,-4.6302,-4.6302,-4.5505,-4.6282,-4.6297,-4.6295,-4.6293,-4.629,-4.7263,-4.8681,-4.8818,-4.9774,-5.1394,-5.1394,-5.1302,-5.1199,-5.1089,-5.0997,-5.0894,-5.0808,-5.0739,-5.0712,-5.0712,-5.0693,-5.0693,-5.0693,-5.0702,-5.072,-5.0747,-5.0801,-5.088,-5.0905,-5.0959,-5.1024,-5.0947,-5.0961,-5.0983,-5.094,-5.0929,-5.0906,-5.0914,-5.0898,-5.0898,-5.0898,-5.0898,-5.0898,-5.0898,-5.0917,-5.1061,-5.1525,-5.195,-5.2268,-5.3459,-5.4484,-5.4619,-5.5316,-5.5887,-5.5926,-5.5984,-5.6003,-5.6003,-5.6003,-5.6003,-5.6003,-5.6003,-5.6003,-5.6003,-5.6003,-5.6012,-5.6056,-5.6141,-5.6212,-5.6305,-5.6078,-5.5917,-5.5737,-5.5488,-5.5293,-5.4863,-5.4062,-5.3418,-5.2363,-5.1738,-5.1484,-5.1406,-5.1387,-5.1387,-5.1387,-5.1387,-5.1387,-5.1387,-5.1387,-5.1387,-5.1387,-5.123,-5.0781,-5.0117,-4.9316,-4.8398,-4.7518,-4.697,-4.6478,-4.6432,-4.6425,-4.6344,-4.6302,-4.6302,-4.6302,-4.6302,-4.6302,-4.6302,-4.6302,-4.6302,-4.6302,-4.6302,-4.6302,-4.6302,-4.4997,-4.5773,-4.6178,-4.6291,-4.629,-4.6291,-4.7089,-4.823,-4.8623,-4.9599,-5.0824,-5.1196,-5.1284,-5.1226,-5.1137,-5.1064,-5.0928,-5.0902,-5.0852,-5.0749,-5.0721,-5.0721,-5.0712,-5.0693,-5.0711,-5.0757,-5.0801,-5.0863,-5.0905,-5.0917,-5.0974,-5.1056,-5.0984,-5.1036,-5.1072,-5.1049,-5.0997,-5.0961,-5.0952,-5.0914,-5.0898,-5.0898,-5.0898,-5.0937,-5.0937,-5.1072,-5.1428,-5.2086,-5.2453,-5.308,-5.4542,-5.4967,-5.5161,-5.576,-5.5984,-5.6003,-5.6003,-5.6003,-5.6003,-5.6003,-5.6003,-5.6003,-5.6003,-5.6003,-5.6003,-5.6003,-5.6043,-5.6102,-5.6194,-5.63,-5.639,-5.6448,-5.6494,-5.6523,-5.6426,-5.6328,-5.5547,-5.4648,-5.3555,-5.2363,-5.1797,-5.1504,-5.1387,-5.1387,-5.1387,-5.1387,-5.1387,-5.1387,-5.1387,-5.1387,-5.1387,-5.1387,-5.1289,-5.1055,-5.0351,-4.9746,-4.9043,-4.822,-4.7496,-4.7061,-4.6799,-4.6482,-4.6342,-4.6302,-4.6302,-4.6302,-4.6302,-4.6302,-4.6302,-4.6302,-4.6302,-4.6302,-4.6302,-4.6302,-4.6302,-4.4156,-4.5109,-4.5944,-4.6288,-4.6302,-4.6308,-4.6754,-4.7557,-4.8318,-4.9224,-5.014,-5.0901,-5.1199,-5.1174,-5.117,-5.1097,-5.1004,-5.0959,-5.0874,-5.0782,-5.0775,-5.0767,-5.073,-5.0721,-5.0757,-5.0821,-5.0863,-5.0913,-5.0914,-5.0947,-5.1024,-5.1097,-5.1097,-5.1137,-5.1187,-5.1132,-5.1078,-5.1086,-5.1018,-5.0976,-5.0921,-5.0898,-5.0937,-5.108,-5.1215,-5.1409,-5.2105,-5.2674,-5.313,-5.4233,-5.4987,-5.5335,-5.5683,-5.5935,-5.5993,-5.6003,-5.6003,-5.6003,-5.6003,-5.6003,-5.6003,-5.6003,-5.6003,-5.6003,-5.6003,-5.6003,-5.6043,-5.6141,-5.6242,-5.6347,-5.6442,-5.6523,-5.6582,-5.6601,-5.6543,-5.6484,-5.6133,-5.5,-5.3574,-5.248,-5.1738,-5.1484,-5.1387,-5.1387,-5.1387,-5.1387,-5.1387,-5.1387,-5.1387,-5.1387,-5.1387,-5.1387,-5.1328,-5.1172,-5.0742,-5.0176,-4.9746,-4.902,-4.8216,-4.7585,-4.7263,-4.6811,-4.6302,-4.6302,-4.6302,-4.6302,-4.6302,-4.6302,-4.6302,-4.6302,-4.6302,-4.6302,-4.6302,-4.6302,-4.6302,-4.3627,-4.507,-4.5938,-4.6302,-4.6302,-4.6303,-4.6362,-4.6586,-4.7952,-4.906,-4.9987,-5.0735,-5.1146,-5.1074,-5.1128,-5.1081,-5.0965,-5.0947,-5.0869,-5.0819,-5.0801,-5.0812,-5.0785,-5.0766,-5.0821,-5.0874,-5.0916,-5.0956,-5.103,-5.1049,-5.1102,-5.1213,-5.1191,-5.1214,-5.1263,-5.1207,-5.1189,-5.1185,-5.1142,-5.1088,-5.109,-5.1076,-5.1111,-5.1591,-5.1927,-5.2314,-5.3011,-5.3846,-5.4213,-5.4813,-5.5432,-5.576,-5.5965,-5.5984,-5.6003,-5.6003,-5.6003,-5.6003,-5.6003,-5.6003,-5.6003,-5.6003,-5.6003,-5.6003,-5.6003,-5.6003,-5.6056,-5.6175,-5.629,-5.6383,-5.6484,-5.6562,-5.6621,-5.6621,-5.6601,-5.6601,-5.6582,-5.5156,-5.3613,-5.2734,-5.1894,-5.1601,-5.1504,-5.1406,-5.1387,-5.1387,-5.1387,-5.1387,-5.1387,-5.1387,-5.1387,-5.1387,-5.1387,-5.1211,-5.0898,-5.0663,-5.0271,-4.9799,-4.9071,-4.8419,-4.7766,-4.7139,-4.6573,-4.638,-4.6302,-4.6302,-4.6302,-4.6302,-4.6302,-4.6302,-4.6302,-4.6302,-4.6302,-4.6302,-4.6302,-4.3197,-4.4542,-4.5779,-4.6302,-4.6302,-4.6302,-4.6216,-4.6422,-4.7796,-4.8743,-4.9384,-5.0432,-5.1054,-5.1028,-5.1123,-5.1092,-5.0985,-5.0961,-5.0925,-5.0869,-5.0827,-5.081,-5.081,-5.0819,-5.0855,-5.0908,-5.0971,-5.1043,-5.1099,-5.1152,-5.1191,-5.1241,-5.1245,-5.1266,-5.1295,-5.1266,-5.1252,-5.1229,-5.1248,-5.1346,-5.1392,-5.1386,-5.1483,-5.202,-5.2424,-5.2918,-5.3815,-5.4619,-5.4929,-5.5238,-5.576,-5.5896,-5.5984,-5.6003,-5.6003,-5.6003,-5.6003,-5.6003,-5.6003,-5.6003,-5.6003,-5.6003,-5.6003,-5.6003,-5.6018,-5.6043,-5.6142,-5.6244,-5.6286,-5.6367,-5.6502,-5.6582,-5.6601,-5.6621,-5.6523,-5.6465,-5.6113,-5.5215,-5.418,-5.3496,-5.2734,-5.2207,-5.1992,-5.1543,-5.1504,-5.1387,-5.1387,-5.1387,-5.1387,-5.1387,-5.1387,-5.1387,-5.1387,-5.1387,-5.1211,-5.1053,-5.0837,-5.0363,-4.9868,-4.8924,-4.8078,-4.7412,-4.6866,-4.6612,-4.6397,-4.6302,-4.6302,-4.6302,-4.6302,-4.6302,-4.6302,-4.6302,-4.6302,-4.6302,-4.6302,-4.2809,-4.3897,-4.5586,-4.6302,-4.6302,-4.6302,-4.6214,-4.6333,-4.7655,-4.8302,-4.858,-5.0099,-5.0767,-5.105,-5.1187,-5.1118,-5.107,-5.1049,-5.1002,-5.0929,-5.0888,-5.0861,-5.0852,-5.0872,-5.0888,-5.0937,-5.1007,-5.1043,-5.1086,-5.1152,-5.1199,-5.1229,-5.1272,-5.1306,-5.1304,-5.1304,-5.1324,-5.1394,-5.1518,-5.1879,-5.1892,-5.1873,-5.2144,-5.2383,-5.2763,-5.3494,-5.4463,-5.5064,-5.5412,-5.5625,-5.5935,-5.5973,-5.6003,-5.6003,-5.6003,-5.6003,-5.6003,-5.6003,-5.6003,-5.6003,-5.6003,-5.6003,-5.6003,-5.601,-5.6024,-5.6119,-5.6216,-5.6285,-5.632,-5.6394,-5.6514,-5.6582,-5.6601,-5.6601,-5.6484,-5.6406,-5.5898,-5.539,-5.4765,-5.4141,-5.3496,-5.2871,-5.2363,-5.1894,-5.1562,-5.1445,-5.1387,-5.1387,-5.1387,-5.1387,-5.1387,-5.1387,-5.1387,-5.1387,-5.1386,-5.1305,-5.1128,-5.1005,-5.045,-4.9371,-4.8488,-4.8057,-4.749,-4.6788,-4.6612,-4.6612,-4.6399,-4.6302,-4.6302,-4.6321,-4.6302,-4.6302,-4.6302,-4.6302,-4.6302,-4.2279,-4.3852,-4.5588,-4.6287,-4.6302,-4.6287,-4.6164,-4.6124,-4.7007,-4.7674,-4.835,-4.9375,-5.0331,-5.098,-5.1218,-5.1226,-5.1152,-5.1125,-5.1004,-5.0906,-5.0901,-5.0882,-5.0874,-5.0885,-5.0901,-5.0937,-5.0976,-5.101,-5.1132,-5.1187,-5.1236,-5.1279,-5.1338,-5.1365,-5.1365,-5.1367,-5.1387,-5.1504,-5.2012,-5.2461,-5.2558,-5.2737,-5.3283,-5.3766,-5.4427,-5.4992,-5.552,-5.5741,-5.5849,-5.5945,-5.602,-5.602,-5.6003,-5.6003,-5.6003,-5.6003,-5.6003,-5.6003,-5.6003,-5.6003,-5.6003,-5.5993,-5.6018,-5.6064,-5.6105,-5.6188,-5.63,-5.641,-5.6436,-5.6476,-5.6562,-5.6601,-5.6621,-5.6621,-5.6543,-5.6543,-5.6308,-5.5801,-5.5234,-5.457,-5.3887,-5.332,-5.2773,-5.2207,-5.1562,-5.1465,-5.1387,-5.1387,-5.1387,-5.1387,-5.1387,-5.1387,-5.1387,-5.1386,-5.1385,-5.1401,-5.128,-5.1294,-5.1111,-5.0168,-4.9442,-4.8954,-4.8349,-4.7569,-4.7217,-4.7178,-4.6905,-4.6573,-4.6358,-4.6358,-4.6321,-4.6302,-4.6302,-4.6302,-4.6302]},{"header":{"parameterUnit":"m.s-1","parameterCategory":1,"la1":31.0,"la2":29.5877,"lo1":-88.7671,"lo2":-86.6584,"dy":0.0162,"dx":0.0185,"nx":115,"ny":88,"refTime":"2025-11-05T12:00:00:Z","depth":0,"parameterNumber":3,"parameterNumberName":"V-component_of_WINDS"},"data":[0.0,0.0,0.0,0.0,0.0,0.0,0.0,0.0,0.0,0.0,0.0,0.0,0.0,0.0,0.0,0.0,0.0,0.0,0.0,0.0,0.0,0.0,0.0,0.0,0.0,0.0,0.0,0.0,0.0,0.0,0.0,0.0,0.0,0.0,0.0,0.0,0.0,0.0,0.0,0.0,0.0,0.0,0.0,0.0,0.0,0.0,0.0,0.0,0.0,0.0,0.0,0.0,0.0,0.0,0.0,0.0,0.0,0.0,0.0,0.0,0.0,0.0,0.0,0.0,0.0,0.0,0.0,0.0,0.0,0.0,0.0,0.0,0.0,0.0,0.0,0.0,0.0,0.0,0.0,0.0,0.0,0.0,0.0,0.0,0.0,0.0,0.0,0.0,0.0,0.0,0.0,0.0,0.0,0.0,0.0,0.0,0.0,0.0,0.0,0.0,0.0,0.0,0.0,0.0,0.0,0.0,0.0,0.0,0.0,0.0,0.0,0.0,0.0,0.0,0.0,0.0,0.0,0.0,0.0,0.0,0.0,0.0,0.0,0.0,0.0,0.0,0.0,0.0,0.0,0.0,0.0,0.0,0.0,0.0,0.0,0.0,0.0,0.0,0.0,0.0,0.0,0.0,0.0,0.0,0.0,0.0,0.0,0.0,0.0,0.0,0.0,0.0,0.0,0.0,0.0,0.0,0.0,0.0,0.0,0.0,0.0,0.0,0.0,0.0,0.0,0.0,0.0,0.0,0.0,0.0,0.0,0.0,0.0,0.0,0.0,0.0,0.0,0.0,0.0,0.0,0.0,0.0,0.0,0.0,0.0,0.0,0.0,0.0,0.0,0.0,0.0,0.0,0.0,0.0,0.0,0.0,0.0,0.0,0.0,0.0,0.0,0.0,0.0,0.0,0.0,0.0,0.0,0.0,0.0,0.0,0.0,0.0,0.0,0.0,0.0,0.0,0.0,0.0,0.0,0.0,0.0,0.0,0.0,0.0,0.0,0.0,0.0,0.0,0.0,0.0,0.0,0.0,0.0,0.0,0.0,0.0,0.0,0.0,0.0,0.0,0.0,0.0,0.0,0.0,0.0,0.0,0.0,0.0,0.0,0.0,0.0,0.0,0.0,0.0,0.0,0.0,0.0,0.0,0.0,0.0,0.0,0.0,0.0,0.0,0.0,0.0,0.0,0.0,0.0,0.0,0.0,0.0,0.0,0.0,0.0,0.0,0.0,0.0,0.0,0.0,0.0,0.0,0.0,0.0,0.0,0.0,0.0,0.0,0.0,0.0,0.0,0.0,0.0,0.0,0.0,0.0,0.0,0.0,0.0,0.0,0.0,0.0,0.0,0.0,0.0,0.0,0.0,0.0,0.0,0.0,0.0,0.0,0.0,0.0,0.0,0.0,0.0,0.0,0.0,0.0,0.0,0.0,0.0,0.0,0.0,0.0,0.0,0.0,0.0,0.0,0.0,0.0,0.0,0.0,0.0,0.0,0.0,0.0,0.0,0.0,0.0,0.0,0.0,0.0,0.0,0.0,0.0,0.0,0.0,0.0,0.0,0.0,0.0,0.0,0.0,0.0,0.0,0.0,0.0,0.0,0.0,0.0,0.0,0.0,0.0,0.0,0.0,0.0,0.0,0.0,0.0,0.0,0.0,0.0,0.0,0.0,0.0,0.0,0.0,0.0,0.0,0.0,0.0,0.0,0.0,0.0,0.0,0.0,0.0,0.0,0.0,0.0,0.0,0.0,0.0,0.0,0.0,0.0,0.0,0.0,0.0,0.0,0.0,0.0,0.0,0.0,0.0,0.0,0.0,0.0,0.0,0.0,0.0,0.0,0.0,0.0,0.0,0.0,0.0,0.0,0.0,0.0,0.0,0.0,0.0,0.0,0.0,0.0,0.0,0.0,0.0,0.0,0.0,0.0,0.0,0.0,0.0,0.0,0.0,0.0,0.0,0.0,0.0,0.0,0.0,0.0,0.0,0.0,0.0,0.0,0.0,0.0,0.0,0.0,0.0,0.0,0.0,0.0,0.0,0.0,0.0,0.0,0.0,0.0,0.0,0.0,0.0,0.0,0.0,0.0,0.0,0.0,0.0,0.0,0.0,0.0,0.0,0.0,0.0,0.0,0.0,0.0,0.0,0.0,0.0,0.0,0.0,0.0,0.0,0.0,0.0,0.0,0.0,0.0,0.0,0.0,0.0,0.0,0.0,0.0,0.0,0.0,0.0,0.0,0.0,0.0,0.0,0.0,0.0,0.0,0.0,0.0,0.0,0.0,0.0,0.0,0.0,0.0,0.0,0.0,0.0,0.0,0.0,0.0,0.0,0.0,0.0,0.0,0.0,0.0,0.0,0.0,0.0,0.0,0.0,0.0,0.0,0.0,0.0,0.0,0.0,0.0,0.0,0.0,0.0,0.0,0.0,0.0,0.0,0.0,0.0,0.0,0.0,0.0,0.0,0.0,0.0,0.0,0.0,0.0,0.0,0.0,0.0,0.0,0.0,0.0,0.0,0.0,0.0,0.0,0.0,0.0,0.0,0.0,0.0,0.0,0.0,0.0,0.0,0.0,0.0,0.0,0.0,0.0,0.0,0.0,0.0,0.0,0.0,0.0,0.0,0.0,0.0,0.0,0.0,0.0,0.0,0.0,0.0,0.0,0.0,0.0,0.0,0.0,0.0,0.0,0.0,0.0,0.0,0.0,0.0,0.0,0.0,0.0,0.0,0.0,0.0,0.0,0.0,0.0,0.0,0.0,0.0,0.0,0.0,0.0,0.0,0.0,0.0,0.0,0.0,0.0,0.0,0.0,0.0,0.0,0.0,0.0,0.0,0.0,0.0,0.0,0.0,0.0,0.0,0.0,0.0,0.0,0.0,0.0,0.0,0.0,0.0,0.0,0.0,0.0,0.0,0.0,0.0,0.0,0.0,0.0,0.0,0.0,0.0,0.0,0.0,0.0,0.0,0.0,0.0,0.0,0.0,0.0,0.0,0.0,0.0,0.0,0.0,0.0,0.0,0.0,0.0,0.0,0.0,0.0,0.0,0.0,0.0,0.0,0.0,0.0,0.0,0.0,0.0,0.0,0.0,0.0,0.0,0.0,0.0,0.0,0.0,0.0,0.0,0.0,0.0,0.0,0.0,0.0,0.0,0.0,0.0,0.0,0.0,0.0,0.0,0.0,0.0,0.0,0.0,0.0,0.0,0.0,0.0,0.0,0.0,0.0,0.0,0.0,0.0,0.0,0.0,0.0,0.0,0.0,0.0,0.0,0.0,0.0,0.0,0.0,0.0,0.0,0.0,0.0,0.0,0.0,0.0,0.0,0.0,0.0,0.0,0.0,0.0,0.0,0.0,0.0,0.0,0.0,0.0,0.0,0.0,0.0,0.0,0.0,0.0,0.0,0.0,0.0,0.0,0.0,0.0,0.0,0.0,0.0,0.0,0.0,0.0,0.0,0.0,0.0,0.0,0.0,0.0,0.0,0.0,0.0,0.0,0.0,0.0,0.0,0.0,0.0,0.0,0.0,0.0,0.0,0.0,0.0,0.0,0.0,0.0,0.0,0.0,0.0,0.0,0.0,0.0,0.0,0.0,0.0,0.0,0.0,0.0,0.0,0.0,0.0,0.0,0.0,0.0,0.0,0.0,0.0,0.0,0.0,0.0,0.0,0.0,0.0,0.0,0.0,0.0,0.0,0.0,0.0,0.0,0.0,0.0,0.0,0.0,0.0,0.0,0.0,0.0,0.0,0.0,0.0,0.0,0.0,0.0,0.0,0.0,0.0,0.0,0.0,0.0,0.0,0.0,0.0,0.0,0.0,0.0,0.0,0.0,0.0,0.0,0.0,0.0,0.0,0.0,0.0,0.0,0.0,0.0,0.0,0.0,0.0,0.0,0.0,0.0,0.0,0.0,0.0,0.0,0.0,0.0,0.0,0.0,0.0,0.0,0.0,0.0,0.0,0.0,0.0,0.0,0.0,0.0,0.0,0.0,0.0,0.0,0.0,0.0,0.0,0.0,0.0,0.0,0.0,0.0,0.0,0.0,0.0,0.0,0.0,0.0,0.0,0.0,0.0,0.0,0.0,0.0,0.0,0.0,0.0,0.0,0.0,0.0,0.0,0.0,0.0,0.0,0.0,0.0,0.0,0.0,0.0,0.0,0.0,0.0,0.0,0.0,0.0,0.0,0.0,0.0,0.0,0.0,0.0,0.0,0.0,0.0,0.0,0.0,0.0,0.0,0.0,0.0,0.0,0.0,0.0,0.0,0.0,0.0,0.0,0.0,0.0,0.0,0.0,0.0,0.0,0.0,0.0,0.0,0.0,0.0,0.0,0.0,0.0,0.0,0.0,0.0,0.0,0.0,0.0,0.0,0.0,0.0,0.0,0.0,0.0,0.0,0.0,0.0,0.0,0.0,0.0,0.0,0.0,0.0,0.0,0.0,0.0,0.0,0.0,0.0,0.0,0.0,0.0,0.0,0.0,0.0,0.0,0.0,0.0,0.0,0.0,0.0,0.0,0.0,0.0,0.0,0.0,0.0,0.0,0.0,0.0,0.0,0.0,0.0,0.0,0.0,0.0,0.0,0.0,0.0,0.0,0.0,0.0,0.0,0.0,0.0,0.0,0.0,0.0,0.0,0.0,0.0,0.0,0.0,0.0,0.0,0.0,0.0,0.0,0.0,0.0,0.0,0.0,0.0,0.0,0.0,0.0,0.0,0.0,0.0,0.0,0.0,0.0,0.0,0.0,0.0,0.0,0.0,0.0,0.0,0.0,0.0,0.0,0.0,0.0,0.0,0.0,0.0,0.0,0.0,0.0,0.0,0.0,0.0,0.0,0.0,0.0,0.0,0.0,0.0,0.0,0.0,0.0,0.0,0.0,0.0,0.0,0.0,0.0,0.0,0.0,0.0,0.0,0.0,0.0,0.0,0.0,0.0,0.0,0.0,0.0,0.0,0.0,0.0,0.0,0.0,0.0,0.0,0.0,0.0,0.0,0.0,0.0,0.0,0.0,0.0,0.0,0.0,0.0,0.0,0.0,0.0,0.0,0.0,0.0,0.0,0.0,0.0,0.0,0.0,0.0,0.0,0.0,0.0,0.0,0.0,0.0,0.0,0.0,0.0,0.0,0.0,0.0,0.0,0.0,0.0,0.0,0.0,0.0,0.0,0.0,0.0,0.0,0.0,0.0,0.0,0.0,0.0,0.0,0.0,0.0,0.0,0.0,0.0,0.0,0.0,0.0,0.0,0.0,0.0,0.0,0.0,0.0,0.0,0.0,0.0,0.0,0.0,0.0,0.0,0.0,0.0,0.0,0.0,0.0,0.0,0.0,0.0,0.0,0.0,0.0,0.0,0.0,0.0,0.0,0.0,0.0,0.0,0.0,0.0,0.0,0.0,0.0,0.0,0.0,0.0,0.0,0.0,0.0,0.0,0.0,0.0,0.0,0.0,0.0,0.0,0.0,0.0,0.0,0.0,0.0,0.0,0.0,0.0,0.0,0.0,0.0,0.0,0.0,0.0,0.0,0.0,0.0,0.0,0.0,0.0,0.0,0.0,0.0,0.0,0.0,0.0,0.0,0.0,0.0,0.0,0.0,0.0,0.0,0.0,0.0,0.0,0.0,0.0,0.0,0.0,0.0,0.0,0.0,0.0,0.0,0.0,0.0,0.0,0.0,0.0,0.0,0.0,0.0,0.0,0.0,0.0,0.0,0.0,0.0,0.0,0.0,0.0,0.0,0.0,0.0,0.0,0.0,0.0,0.0,0.0,0.0,0.0,0.0,0.0,0.0,0.0,0.0,0.0,0.0,0.0,0.0,0.0,0.0,0.0,0.0,0.0,0.0,0.0,0.0,0.0,0.0,0.0,0.0,0.0,0.0,0.0,0.0,0.0,0.0,0.0,0.0,0.0,0.0,0.0,0.0,0.0,0.0,0.0,0.0,0.0,0.0,0.0,0.0,0.0,0.0,0.0,0.0,0.0,0.0,0.0,0.0,0.0,0.0,0.0,0.0,0.0,0.0,0.0,0.0,0.0,0.0,0.0,0.0,0.0,0.0,0.0,0.0,0.0,0.0,0.0,0.0,0.0,0.0,0.0,0.0,0.0,0.0,0.0,0.0,0.0,0.0,0.0,0.0,0.0,0.0,0.0,0.0,0.0,0.0,0.0,0.0,0.0,0.0,0.0,0.0,0.0,0.0,0.0,0.0,0.0,0.0,0.0,0.0,0.0,0.0,0.0,0.0,0.0,0.0,0.0,0.0,0.0,0.0,0.0,0.0,0.0,0.0,0.0,0.0,0.0,0.0,0.0,0.0,0.0,0.0,0.0,0.0,0.0,0.0,0.0,0.0,0.0,0.0,0.0,0.0,0.0,0.0,0.0,0.0,0.0,0.0,0.0,0.0,0.0,0.0,0.0,0.0,0.0,0.0,0.0,0.0,0.0,0.0,0.0,0.0,0.0,0.0,0.0,0.0,0.0,0.0,0.0,0.0,0.0,0.0,0.0,0.0,0.0,0.0,0.0,0.0,0.0,0.0,0.0,0.0,0.0,0.0,0.0,0.0,0.0,0.0,0.0,0.0,0.0,0.0,0.0,0.0,0.0,0.0,0.0,0.0,0.0,0.0,0.0,0.0,0.0,0.0,0.0,0.0,0.0,0.0,0.0,0.0,0.0,0.0,0.0,0.0,0.0,0.0,0.0,0.0,0.0,0.0,0.0,0.0,0.0,0.0,0.0,0.0,0.0,0.0,0.0,0.0,0.0,0.0,0.0,0.0,0.0,0.0,0.0,0.0,0.0,0.0,0.0,0.0,0.0,0.0,0.0,0.0,0.0,0.0,0.0,0.0,0.0,0.0,0.0,0.0,0.0,0.0,0.0,0.0,0.0,0.0,0.0,0.0,0.0,0.0,0.0,0.0,0.0,0.0,0.0,0.0,0.0,0.0,0.0,0.0,0.0,0.0,0.0,0.0,0.0,0.0,0.0,0.0,0.0,0.0,0.0,0.0,0.0,0.0,0.0,0.0,0.0,0.0,0.0,0.0,0.0,0.0,0.0,0.0,0.0,0.0,0.0,0.0,0.0,0.0,0.0,0.0,0.0,0.0,0.0,0.0,0.0,0.0,0.0,0.0,0.0,0.0,0.0,0.0,0.0,0.0,0.0,0.0,0.0,0.0,0.0,0.0,0.0,0.0,0.0,0.0,0.0,0.0,0.0,0.0,0.0,0.0,0.0,0.0,0.0,0.0,0.0,0.0,0.0,0.0,0.0,0.0,0.0,0.0,0.0,0.0,0.0,0.0,0.0,0.0,0.0,0.0,0.0,0.0,0.0,0.0,0.0,0.0,0.0,0.0,0.0,0.0,0.0,0.0,0.0,0.0,0.0,0.0,0.0,0.0,0.0,0.0,0.0,0.0,0.0,0.0,0.0,0.0,0.0,0.0,0.0,0.0,0.0,0.0,0.0,0.0,0.0,0.0,0.0,0.0,0.0,0.0,0.0,0.0,0.0,0.0,0.0,0.0,0.0,0.0,0.0,0.0,0.0,0.0,0.0,0.0,0.0,0.0,0.0,0.0,0.0,0.0,0.0,0.0,0.0,0.0,0.0,0.0,0.0,0.0,0.0,0.0,0.0,0.0,0.0,0.0,0.0,0.0,0.0,0.0,0.0,0.0,0.0,0.0,0.0,0.0,0.0,0.0,0.0,0.0,0.0,0.0,0.0,0.0,0.0,0.0,0.0,0.0,0.0,0.0,0.0,0.0,0.0,0.0,0.0,0.0,0.0,0.0,0.0,0.0,0.0,0.0,0.0,0.0,0.0,0.0,0.0,0.0,0.0,0.0,0.0,0.0,0.0,0.0,0.0,0.0,0.0,0.0,0.0,0.0,0.0,0.0,0.0,0.0,0.0,0.0,0.0,0.0,0.0,0.0,0.0,0.0,0.0,0.0,0.0,0.0,0.0,0.0,0.0,0.0,0.0,0.0,0.0,0.0,0.0,0.0,0.0,0.0,0.0,0.0,0.0,0.0,0.0,0.0,0.0,0.0,0.0,0.0,0.0,0.0,0.0,0.0,0.0,0.0,0.0,0.0,0.0,0.0,0.0,0.0,0.0,0.0,0.0,0.0,0.0,0.0,0.0,0.0,0.0,0.0,0.0,0.0,0.0,0.0,0.0,0.0,0.0,0.0,0.0,0.0,0.0,0.0,0.0,0.0,0.0,0.0,0.0,0.0,0.0,0.0,0.0,0.0,0.0,0.0,0.0,0.0,0.0,0.0,0.0,0.0,0.0,0.0,0.0,0.0,0.0,0.0,0.0,0.0,0.0,0.0,0.0426,0.0,0.0164,0.0,0.016,0.0,0.0,0.0,0.0,0.0,0.0,0.0,0.0,0.0,0.0,0.0,0.0,0.0,0.0,0.0,0.0,0.0,0.0,0.0,0.0,0.0,0.0,0.0,0.0,0.0,0.0,0.0,0.0,0.0,0.0,0.0,0.0,0.0,0.0,0.0,0.0,0.0,0.0,0.0,0.0,0.0,0.0,0.0,0.0,0.0,0.0,0.0,0.0,0.0,0.0,0.0,0.0,0.0,0.0,0.0,0.0,0.0,0.0,0.0,0.0,0.0,0.0,0.0,0.0,0.0,0.0,0.0,0.0,0.0,0.0,0.0,0.0,0.0,0.0,0.0,0.0,0.0,0.0,0.0,0.0,0.0,0.0,0.0,0.0,0.0,0.0,0.0,0.0,0.0,0.0,0.0,0.0,0.0,0.0,0.0,0.0,0.0,0.0,0.0,0.0,0.0,0.0,0.0,0.0,0.0,0.0,0.0,0.0,0.0,0.0461,0.1286,0.0502,0.0462,0.1302,0.0481,0.0,0.0,0.0,0.0,0.0,0.0,0.0,0.0,0.0,0.0,0.0,0.0,0.0,0.0,0.0,0.0,0.0,0.0,0.0,0.0,0.0,0.0,0.0,0.0,0.0,0.0,0.0,0.0,0.0,0.0,0.0,0.0,0.0,0.0,0.0,0.0,0.0,0.0,0.0,0.0,0.0,0.0,0.0,0.0,0.0,0.0,0.0,0.0,0.0,0.0,0.0,0.0,0.0,0.0,0.0,0.0,0.0,0.0,0.0,0.0,0.0,0.0,0.0,0.0,0.0,0.0,0.0,0.0,0.0,0.0,0.0,0.0,0.0,0.0,0.0,0.0,0.0,0.0,0.0,0.0,0.0,0.0,0.0,0.0,0.0,0.0,0.0,0.0,0.0,0.0,0.0,0.0,0.0,0.0,0.0,0.0,0.0,0.0,0.0,0.0,0.0,0.0,0.0,0.0,0.0,0.0,0.0,0.0,0.0,0.0,0.1379,0.1103,0.1116,0.1329,0.0468,0.0,0.0,0.0,0.0,0.0,0.0,0.0,0.0,0.0,0.0,0.0,0.0,0.0,0.0,0.0,0.0,0.0,0.0,0.0,0.0,0.0,0.0,0.0,0.0,0.0,0.0,0.0,0.0,0.0,0.0,0.0,0.0,0.0,0.0,0.0,0.0,0.0,0.0,0.0,0.0,0.0,0.0,0.0,0.0,0.0,0.0,0.0,0.0,0.0,0.0,0.0,0.0,0.0,0.0,0.0,0.0,0.0,0.0,0.0,0.0,0.0,0.0,0.0,0.0,0.0,0.0,0.0,0.0,0.0,0.0,0.0,0.0,0.0,0.0,0.0,0.0,0.0,0.0,0.0,0.0,0.0,0.0,0.0,0.0,0.0,0.0,0.0,0.0,0.0,0.0,0.0,0.0,0.0,0.0,0.0,0.0,0.0,0.0,0.0,0.0,0.0,0.0,0.0,0.0,0.0,0.0,0.0,0.0,0.0,0.0,0.2397,0.2102,0.1992,0.2011,0.1066,0.0408,0.0,0.0,0.0,0.0,0.0,0.0,0.0,0.0,0.0,0.0,0.0,0.0,0.0,0.0,0.0,0.0,0.0,0.0,0.0,0.0,0.0,0.0,0.0,0.0,0.0,0.0,0.0,0.0,0.0,0.0,0.0,0.0,0.0,0.0,0.0,0.0,0.0,0.0,0.0,0.0,0.0,0.0,0.0,0.0,0.0,0.0,0.0,0.0,0.0,0.0,0.0,0.0,0.0,0.0,0.0,0.0,0.0,0.0,0.0,0.0,0.0,0.0,0.0,0.0,0.0,0.0,0.0,0.0,0.0,0.0,0.0,0.0,0.0,0.0,0.0,0.0,0.0,0.0,0.0,0.0,0.0,0.0,0.0,0.0,0.0,0.0,0.0,0.0,0.0,0.0,0.0,0.0,0.0,0.0,0.0,0.0,0.0,0.0,0.0,0.0,0.0,0.0,0.0,0.0,0.0,0.0,0.0,0.0,0.0,0.4059,0.3362,0.2964,0.2971,0.2019,0.104,0.0,0.0,0.0,0.0,0.0,0.0,0.0,0.0,0.0,0.0,0.0,0.0,0.0,0.0,0.0,0.0,0.0,0.0,0.0,0.0,0.0,0.0,0.0,0.0,0.0,0.0,0.0,0.0,0.0,0.0,0.0,0.0,0.0,0.0,0.0,0.0,0.0,0.0,0.0,0.0,0.0,0.0,0.0,0.0,0.0,0.0,0.0,0.0,0.0,0.0,0.0,0.0,0.0,0.0,0.0,0.0,0.0,0.0,0.0,0.0,0.0,0.0,0.0,0.0,0.0,0.0,0.0,0.0,0.0,0.0,0.0,0.0,0.0,0.0,0.0,0.0,0.0,0.0,0.0,0.0,0.0,0.0,0.0,0.0,0.0,0.0,0.0,0.0,0.0,0.0,0.0,0.0,0.0,0.0,0.0,0.0,0.0,0.0,0.0,0.0,0.0,0.0,0.0,0.0,0.0,0.0,0.0,0.0,0.0,0.3458,0.3845,0.3743,0.2992,0.1319,0.0278,0.0,0.0,0.0,0.0,0.0,0.0,0.0,0.0,0.0,0.0,0.0,0.0,0.0,0.0,0.0,0.0,0.0,0.0,0.0,0.0,0.0,0.0,0.0,0.0,0.0,0.0,0.0,0.0,0.0,0.0,0.0,0.0,0.0,0.0,0.0,0.0,0.0,0.0,0.0,0.0,0.0,0.0,0.0,0.0,0.0,0.0,0.0,0.0,0.0,0.0,0.0,0.0,0.0,0.0,0.0,0.0,0.0,0.0,0.0,0.0,0.0,0.0,0.0,0.0,0.0,0.0,0.0,0.0,0.0,0.0,0.0,0.0,0.0,0.0,0.0,0.0,0.0,0.0,0.0,0.0,0.0,0.0,0.0,0.0,0.0,0.0,0.0,0.0,0.0,0.0,0.0,0.0,0.0,0.0,0.0,0.0,0.0,0.0,0.0,0.0,0.0,0.0,0.0,0.0,0.0,0.0,0.0,0.0,0.259,0.298,0.3193,0.2983,0.2443,0.1276,0.0455,0.0,0.0,0.0,0.0,0.0,0.0,0.0,0.0,0.0,0.0,0.0,0.0,0.0,0.0,0.0,0.0,0.0,0.0,0.0,0.0,0.0,0.0,0.0,0.0,0.0,0.0,0.0,0.0,0.0,0.0,0.0,0.0,0.0,0.0,0.0,0.0,0.0,0.0,0.0,0.0,0.0,0.0,0.0,0.0,0.0,0.0,0.0,0.0,0.0,0.0,0.0,0.0,0.0,0.0,0.0,0.0,0.0,0.0,0.0,0.0,0.0,0.0,0.0,0.0,0.0,0.0,0.0,0.0,0.0,0.0,0.0,0.0,0.0,0.0,0.0,0.0,0.0,0.0,0.0,0.0,0.0,0.0,0.0,0.0,0.0,0.0,0.0,0.0,0.0,0.0,0.0,0.0,0.0,0.0,0.0,0.0,0.0,0.0,0.0,0.0,0.0,0.0,0.0,0.0,0.0,0.0,0.0,0.0,0.1973,0.2696,0.201,0.1604,0.1574,0.1489,0.0985,0.0,0.0,0.0,0.0,0.0,0.0,0.0,0.0,0.0,0.0,0.0,0.0,0.0,0.0,0.0,0.0,0.0,0.0,0.0,0.0,0.0,0.0,0.0,0.0,0.0,0.0,0.0,0.0,0.0,0.0,0.0,0.0,0.0,0.0,0.0,0.0,0.0,0.0,0.0,0.0,0.0,0.0,0.0,0.0,0.0,0.0,0.0,0.0,0.0,0.0,0.0,0.0,0.0,0.0,0.0,0.0,0.0,0.0,0.0,0.0,0.0,0.0,0.0,0.0,0.0,0.0,0.0,0.0,0.0,0.0,0.0,0.0,0.0,0.0,0.0,0.0,0.0,0.0,0.0,0.0,0.0,0.0,0.0,0.0,0.0,0.0,0.0,0.0,0.0,0.0,0.0,0.0,0.0,0.0,0.0,0.0,0.0,0.0,0.0,0.0,0.0,0.0,0.0,0.0,0.0,0.0,0.0,0.0,0.203,0.2888,0.2071,0.1567,0.1607,0.0753,0.0208,0.0,0.0,0.0,0.0,0.0,0.0,0.0,0.0,0.0,0.0,0.0,0.0,0.0,0.0,0.0,0.0,0.0,0.0,0.0,0.0,0.0,0.0,0.0,0.0,0.0,0.0,0.0,0.0,0.0,0.0,0.0,0.0,0.0,0.0,0.0,0.0,0.0,0.0,0.0,0.0,0.0,0.0,0.0,0.0,0.0,0.0,0.0,0.0,0.0,0.0,0.0,0.0,0.0,0.0,0.0,0.0,0.0,0.0,0.0,0.0,0.0,0.0,0.0,0.0,0.0,0.0,0.0,0.0,0.0,0.0,0.0,0.0,0.0,0.0,0.0,0.0,0.0,0.0,0.0,0.0,0.0,0.0,0.0,0.0,0.0,0.0,0.0,0.0,0.0,0.0,0.0,0.0,0.0,0.0,0.0,0.0,0.0,0.0,0.0,0.0,0.0,0.0,0.0,0.0,0.0,0.0,0.0,0.0,0.1109,0.1562,0.1088,0.0834,0.0833,0.0308,0.0,0.0,0.0,0.0,0.0,0.0,0.0,0.0,0.0,0.0,0.0,0.0,0.0,0.0,0.0,0.0,0.0,0.0,0.0,0.0,0.0,0.0,0.0,0.0,0.0,0.0,0.0,0.0,0.0,0.0,0.0,0.0,0.0,0.0,0.0,0.0,0.0,0.0,0.0,0.0,0.0,0.0,0.0,0.0,0.0,0.0,0.0,0.0,0.0,0.0,0.0,0.0,0.0,0.0,0.0,0.0,0.0,0.0,0.0,0.0,0.0,0.0,0.0,0.0,0.0,0.0,0.0,0.0,0.0,0.0,0.0,0.0,0.0,0.0,0.0,0.0,0.0,0.0,0.0,0.0,0.0,0.0,0.0,0.0,0.0,0.0,0.0,0.0,0.0,0.0,0.0,0.0,0.0,0.0,0.0,0.0,0.0,0.0,0.0,0.0,0.0,0.0,0.0,0.0,0.0,0.0,0.0,0.0,0.0152,0.0081,0.0218,0.0089,0.0,0.0,0.0,0.0,0.0,0.0,0.0,0.0,0.0,0.0,0.0,0.0,0.0,0.0,0.0,0.0,0.0,0.0,0.0,0.0,0.0,0.0,0.0,0.0,0.0,0.0,0.0,0.0,0.0,0.0,0.0,0.0,0.0,0.0,0.0,0.0,0.0,0.0,0.0,0.0,0.0,0.0,0.0,0.0,0.0,0.0,0.0,0.0,0.0,0.0,0.0,0.0,0.0,0.0,0.0,0.0,0.0,0.0,0.0,0.0,0.0,0.0,0.0,0.0,0.0,0.0,0.0,0.0,0.0,0.0,0.0,0.0,0.0,0.0,0.0,0.0,0.0,0.0,0.0,0.0,0.0,0.0,0.0,0.0,0.0,0.0,0.0,0.0,0.0,0.0,0.0,0.0,0.0,0.0,0.0,0.0,0.0,0.0,0.0,0.0,0.0,0.0,0.0,0.0,0.0,0.0,0.0,0.0,0.0,0.0,0.2225,0.0764,0.0362,0.1113,0.0403,0.0,0.0,0.0,0.0,0.0,0.0,0.0,0.0,0.0,0.0,0.0,0.0,0.0,0.0,0.0,0.0,0.0,0.0,0.0,0.0,0.0,0.0,0.0,0.0,0.0,0.0,0.0,0.0,0.0,0.0,0.0,0.0,0.0,0.0,0.0,0.0,0.0,0.0,0.0,0.0,0.0,0.0,0.0,0.0,0.0,0.0,0.0,0.0,0.0,0.0,0.0,0.0,0.0,0.0,0.0,0.0,0.0,0.0,0.0,0.0,0.0,0.0,0.0,0.0,0.0,0.0,0.0,0.0,0.0,0.0,0.0,0.0,0.0,0.0,0.0,0.0,0.0,0.0,0.0,0.0,0.0,0.0,0.0,0.0,0.0,0.0,0.0,0.0,0.0,0.0,0.0,0.0,0.0,0.0,0.0,0.0,0.0,0.0,0.0,0.0,0.0,0.0,0.0,0.0,0.0,0.0,0.0,0.0,0.0,0.0,0.1215,0.0457,0.0201,0.0649,0.0261,0.0,0.0,0.0,0.0,0.0,0.0,0.0,0.0,0.0,0.0,0.0,0.0,0.0,0.0,0.0,0.0,0.0,0.0,0.0,0.0,0.0,0.0,0.0,0.0,0.0,0.0,0.0,0.0,0.0,0.0,0.0,0.0,0.0,0.0,0.0,0.0,0.0,0.0,0.0,0.0,0.0,0.0,0.0,0.0,0.0,0.0,0.0,0.0,0.0,0.0,0.0,0.0,0.0,0.0,0.0,0.0,0.0,0.0,0.0,0.0,0.0,0.0,0.0,0.0,0.0,0.0,0.0,0.0,0.0,0.0,0.0,0.0,0.0,0.0,0.0,0.0,0.0,0.0,0.0,0.0,0.0,0.0,0.0,0.0,0.0,0.0,0.0,0.0,0.0,0.0,0.0,0.0,0.0,0.0,0.0,0.0,0.0,0.0,0.0,0.0,0.0,0.0,0.0,0.0,0.0,0.0,0.0,0.0,0.0,0.0,0.0,0.0,0.0,0.0,0.0,0.0,0.0,0.0,0.0,0.0,0.0,0.0,0.0,0.0,0.0,0.0,0.0,0.0,0.0,0.0,0.0,0.0,0.0,0.0,0.0,0.0,0.0,0.0,0.0,0.0,0.0,0.0,0.0,0.0,0.0,0.0,0.0,0.0,0.0,0.0,0.0,0.0,0.0,0.0,0.0,0.0,0.0,0.0,0.0,0.0,0.0,0.0,0.0,0.0,0.0,0.0,0.0,0.0,0.0,0.0,0.0,0.0,0.0,0.0,0.0,0.0,0.0,0.0,0.0,0.0,0.0,0.0,0.0,0.0,0.0,0.0,0.0,0.0,0.0,0.0,0.0,0.0,0.0,0.0,0.0,0.0,0.0,0.0,0.0,0.0,0.0,0.0,0.0,0.0,0.0,0.0,0.0,0.0,0.0,0.0,0.0,0.0,0.0,0.0,0.0,0.0,0.0,0.0,0.0,0.0,0.0,0.0,0.0,0.0,0.0,0.0,0.0,0.0,0.0,0.0,0.0,0.0,0.0,0.0,0.0,0.0,0.0,0.0,0.0,0.0,0.0,0.0,0.0,0.0,0.0,0.0,0.0,0.0,0.0,0.0,0.0,0.0,0.0,0.0,0.0,0.0,0.0,0.0,0.0,0.0,0.0,0.0,0.0,0.0,0.0,0.0,0.0,0.0,0.0,0.0,0.0,0.0,0.0,0.0,0.0,0.0,0.0,0.0,0.0,0.0,0.0,0.0,0.0,0.0,0.0,0.0,0.0,0.0,0.0,0.0,0.0,0.0,0.0,0.0,0.0,0.0,0.0,0.0,0.0,0.0,0.0,0.0,0.0,0.0,0.0,0.0,0.0,0.0,0.0,0.0,0.0,0.0,0.0,0.0,0.0,0.0,0.0,0.0,0.0,0.0,0.0,0.0,0.0,0.0,0.0,0.0,0.0,0.0,0.0,0.0,0.0,0.0,0.0,0.0,0.0,0.0,0.0,0.0,0.0,0.0,0.0,0.0,0.0,0.0,0.0,0.0,0.0,0.0,0.0,0.0,0.0,0.0,0.0,0.0,0.0,0.0,0.0,0.0,0.0,0.0,0.0,0.0,0.0,0.0,0.0,0.0,0.0,0.0,0.0,0.0,0.0,0.0,0.0,0.0,0.0,0.0,0.0,0.0,0.0,0.0,0.0,0.0,0.0,0.0,0.0,0.0,0.0,0.0,0.0,0.0,0.0,0.0,0.0,0.0,0.0,0.0,0.0,0.0,0.0,0.0,0.0,0.0,0.0,0.0,0.0,0.0,0.0,0.0,0.0,0.0,0.0,0.0,0.0,0.0,0.0,0.0,0.0,0.0,0.0,0.0,0.0,0.0,0.0,0.0,0.0,0.0,0.0,0.0,0.0,0.0,0.0,0.0,0.0,0.0,0.0,0.0,0.0,0.0,0.0,0.0,0.0,0.0,0.0,0.0,0.0,0.0,0.0,0.0,0.0,0.0,0.0,0.0,0.0,0.0,0.0,0.0,0.0,0.0,0.0,0.0,0.0,0.0,0.0,0.0,0.0,0.0,0.0,0.0,0.0,0.0,0.0,0.0,0.0,0.0,0.0,0.0,0.0,0.0,0.0,0.0,0.0,0.0,0.0,0.0,0.0,0.0,0.0,0.0,0.0,0.0,0.0,0.0,0.0,0.0,0.0,0.0,0.0,0.0,0.0,0.0,0.0,0.0,0.0,0.0,0.0,0.0,0.0,0.0,0.0,0.0,0.0,0.0,0.0,0.0,0.0,0.0,0.0,0.0,0.0,0.0,0.0,0.0,0.0,0.0,0.0,0.0,0.0,0.0,0.0,0.0,0.0,0.0,0.0,0.0,0.0,0.0,0.0,0.0,0.0,0.0,0.0,0.0,0.0,0.0,0.0,0.0,0.0,0.0,0.0,0.0,0.0,0.0,0.0,0.0,0.0,0.0,0.0,0.0,0.0,0.0,0.0,0.0,0.0,0.0,0.0,0.0,0.0,0.0,0.0,0.0,0.0,0.0,0.0,0.0,0.0,0.0,0.0,0.0,0.0,0.0,0.0,0.0,0.0,0.0,0.0,0.0,0.0,0.0,0.0,0.0,0.0,0.0,0.0,0.0,0.0,0.0,0.0,0.0,0.0,0.0,0.0,0.0,0.0,0.0,0.0,0.0,0.0,0.0,0.0,0.0,0.0,0.0,0.0,0.0,0.0,0.0,0.0,0.0,0.0,0.0,0.0,0.0,0.0,0.0,0.0,0.0,0.0,0.0,0.0,0.0,0.0,0.0,0.0,0.0,0.0,0.0,0.0,0.0,0.0,0.0,0.0,0.0,0.0,0.0,0.0,0.0,0.0,0.0,0.0,0.0,0.0,0.0,0.0,0.0,0.0,0.0,0.0,0.0,0.0,0.0,0.0,0.0,0.0,0.0,0.0,0.0,0.0,0.0,0.0,0.0,0.0,0.0,0.0,0.0,0.0,0.0,0.0,0.0,0.0,0.0,0.0,0.0,0.0,0.0,0.0,0.0,0.0,0.0,0.0,0.0,0.0,0.0,0.0,0.0,0.0,0.0,0.0,0.0,0.0,0.0,0.0,0.0,0.0,0.0,0.0,0.0,0.0,0.0,0.0,0.0,0.0,0.0,0.0,0.0,0.0,0.0,0.0,0.0,0.0,0.0,0.0,0.0,0.0,0.0,0.0,0.0,0.0,0.0,0.0,0.0,0.0,0.0,0.0,0.0,0.0,0.0,0.0,0.0,0.0,0.0,0.0,0.0,0.0,0.0,0.0,0.0,0.0,0.0,0.0,0.0,0.0,0.0,0.0,0.0,0.0,0.0,0.0,0.0,0.0,0.0,0.0,0.0,0.0,0.0,0.0,0.0,0.0,0.0,0.0,0.0,0.0,0.0,0.0,0.0,0.0,0.0,0.0,0.0,0.0,0.0,0.0,0.0,0.0,0.0,0.0,0.0,0.0,0.0,0.0,0.0,0.0,0.0,0.0,0.0,0.0,0.0,0.0,0.0,0.0,0.0,0.0,0.0,0.0,0.0,0.0,0.0,0.0,0.0,0.0,0.0,0.0,0.0,0.0,0.0,0.0,0.0,0.0,0.0,0.0,0.0,0.0,0.0,0.0,0.0,0.0,0.0,0.0,0.0,0.0,0.0,0.0,0.0,0.0,0.0,0.0,0.0,0.0,0.0,0.0,0.0,0.0,0.0,0.0,0.0,0.0,0.0,0.0,0.0,0.0,0.0,0.0,0.0,0.0,0.0,0.0,0.0,0.0,0.0,0.0,0.0,0.0,0.0,0.0,0.0,0.0,0.0,0.0,0.0,0.0,0.0,0.0,0.0,0.0,0.0,0.0,0.0,0.0,0.0,0.0,0.0,0.0,0.0,0.0,0.0,0.0,0.0,0.0,0.0,0.0,0.0,0.0,0.0,0.0,0.0,0.0,0.0,0.0,0.0,0.0,0.0,0.0,0.0,0.0,0.0,0.0,0.0,0.0,0.0,0.0,0.0,0.0,0.0,0.0,0.0,0.0,0.0,0.0,0.0,0.0,0.0,0.0,0.0,0.0,0.0,0.0,0.0,0.0,0.0,0.0,0.0,0.0,0.0,0.0,0.0,0.0,0.0,0.0,0.0,0.0,0.0,0.0,0.0,0.0,0.0,0.0,0.0,0.0,0.0,0.0,0.0,0.0,0.0,0.0,0.0,0.0,0.0,0.0,0.0,0.0,0.0,0.0,0.0,0.0,0.0,0.0,0.0,0.0,0.0,0.0,0.0,0.0,0.0,0.0,0.0,0.0,0.0,0.0,0.0,0.0,0.0,0.0,0.0,0.0,0.0,0.0,0.0,0.0,0.0,0.0,0.0,0.0,0.0,0.0,0.0,0.0,0.0,0.0,0.0,0.0,0.0,0.0,0.0,0.0218,0.0,0.0,0.0,0.0,0.0,0.0,0.0,0.0,0.0,0.0,0.0,0.0,0.0,0.0,0.0,0.0,0.0,0.0,0.0,0.0,0.0,0.0,0.0,0.0,0.0,0.0,0.0,0.0,0.0,0.0,0.0,0.0,0.0,0.0,0.0,0.0,0.0,0.0,0.0,0.0,0.0,0.0,0.0,0.0,0.0,0.0,0.0,0.0,0.0,0.0,0.0,0.0,0.0,0.0,0.0,0.0,0.0,0.0,0.0,0.0,0.0,0.0,0.0,0.0,0.0,0.0,0.0,0.0,0.0,0.0,0.0,0.0,0.0,0.0,0.0,0.0,0.0,0.0,0.0,0.0,0.0,0.0,0.0,0.0,0.0,0.0,0.0,0.0,0.0,0.0,0.0,0.0,0.0,0.0,0.0,0.0,0.0,0.0156,0.0267,0.0274,0.0,0.0,0.0,0.0,0.0,0.0,0.0,0.0,0.0,0.0,0.0,0.0,0.0,0.0,0.0,0.0,0.0,0.0,0.0,0.0,0.0,0.0,0.0,0.0,0.0,0.0,0.0,0.0,0.0,0.0,0.0,0.0,0.0,0.0,0.0,0.0,0.0,0.0,0.0,0.0,0.0,0.0,0.0,0.0,0.0,0.0,0.0,0.0,0.0,0.0,0.0,0.0,0.0,0.0,0.0,0.0,0.0,0.0,0.0,0.0,0.0,0.0,0.0,0.0,0.0,0.0,0.0,0.0,0.0,0.0,0.0,0.0,0.0,0.0,0.0,0.0,0.0,0.0,0.0,0.0,0.0,0.0,0.0,0.0,0.0,0.0,0.0,0.0,0.0,0.0,0.0,0.0,0.0,0.0,0.0,0.0,0.0,0.0,0.0,0.0,0.0,-0.0699,-0.0095,-0.0517,-0.07,-0.0095,0.0,0.0,0.0,0.0,0.0,0.0,0.0219,0.0387,0.0395,0.0749,0.1064,0.1041,0.1201,0.1358,0.0,0.0,0.0,0.0,0.0,0.0,0.0,0.0,0.0,0.0,0.0,0.0,0.0,0.0,0.0,0.0,0.0,0.0,0.0,0.0,0.0,0.0,0.0,0.0,0.0,0.0,0.0,0.0,0.0,0.0,0.0,0.0,0.0,0.0,0.0,0.0,0.0,0.0,0.0,0.0,0.0,0.0,0.0,0.0,0.0,0.0,0.0,0.0,0.0,0.0,0.0,0.0,0.0,0.0,0.0,0.0,0.0,0.0,0.0,0.0,0.0,0.0,0.0,0.0,0.0,0.0,0.0,0.0,0.0,0.0,0.0,0.0,0.0,0.0,0.0,0.0,0.0,0.0,0.0,0.0,0.0,0.0,0.0,0.0,0.0,0.0,0.0,0.0,0.0,0.0,0.0,0.0,0.0,0.0,0.0,-0.0097,-0.0049,-0.0048,0.0,0.0,0.0,0.0,0.0,0.0,0.0,0.0,0.0,0.0254,0.0444,0.0451,0.0931,0.1304,0.1325,0.1451,0.1571,0.136,0.0,0.0,0.0,0.0,0.0,0.0,0.0,0.0,0.0,0.0,0.0,0.0,0.0,0.0,0.0,0.0,0.0,0.0,0.0,0.0,0.0,0.0,0.0,0.0,0.0,0.0,0.0,0.0,0.0,0.0,0.0,0.0,0.0,0.0,0.0,0.0,0.0,0.0,0.0,0.0,0.0,0.0,0.0,0.0,0.0,0.0,0.0,0.0,0.0,0.0,0.0,0.0,0.0,0.0,0.0,0.0,0.0,0.0,0.0,0.0,0.0,0.0,0.0,0.0,0.0,0.0,0.0,0.0,0.0,0.0,0.0,0.0,0.0,0.0,0.0,0.0,0.0,0.0,0.0,0.0,0.0,0.0,0.0,0.0,0.0,0.0,0.0,0.0,-0.0638,-0.1131,-0.114,-0.1142,0.0,-0.2182,-0.1577,-0.1037,-0.111,-0.0519,0.0,0.0,0.0,0.0,0.0,0.0,0.0,0.0,0.0425,0.0732,0.0787,0.1261,0.1634,0.1645,0.1723,0.1742,0.1393,0.1179,0.0628,0.024,0.0,0.0,0.0,0.0,0.0,0.0,0.0,0.0,0.0,0.0,0.0,0.0,0.0,0.0,0.0,0.0,0.0,0.0,0.0,0.0,0.0,0.0,0.0,0.0,0.0,0.0,0.0,0.0,0.0,0.0,0.0,0.0,0.0,0.0,0.0,0.0,0.0,0.0,0.0,0.0,0.0,0.0,0.0,0.0,0.0,0.0,0.0,0.0,0.0,0.0,0.0,0.0,0.0,0.0,0.0,0.0,0.0,0.0,0.0,0.0,0.0,0.0,0.0,0.0,-0.0773,-0.0861,-0.0558,-0.0915,0.0,0.0,0.0,0.0,0.0,0.0,0.0,0.0,-0.0378,-0.0632,-0.0637,-0.0987,-0.1094,-0.0702,-0.0648,-0.0794,-0.119,0.0,-0.2239,-0.2213,-0.2217,-0.2469,-0.3073,-0.2594,-0.2152,-0.2217,-0.1725,-0.111,-0.0692,-0.064,-0.0482,0.0,0.0,0.0,0.0,0.0483,0.0907,0.0907,0.1344,0.1731,0.1785,0.1746,0.1759,0.1262,0.0513,0.0422,0.0257,0.0,0.0,0.0,0.0,0.0,0.0,0.0,0.0,0.0,0.0,0.0,0.0,0.0,0.0,0.0,0.0,0.0,0.0,0.0,0.0,0.0,0.0,0.0,0.0,0.0,0.0,0.0,0.0,0.0,0.0,0.0,0.0,0.0,0.0,0.0,0.0,0.0,0.0,0.0,0.0,0.0,0.0,0.0,0.0,0.0,0.0,0.0,0.0,0.0,0.0,0.0,0.0,0.0,0.0,0.0,0.0,0.0,0.0,0.0,0.0,0.0,0.0,0.0,0.0,-0.2017,0.0,-0.161,-0.2288,0.0,0.0,0.0,-0.1331,-0.144,-0.0592,0.0,0.0,0.0,0.0,-0.1579,-0.2541,-0.289,-0.196,-0.1783,-0.2067,-0.3073,-0.3221,-0.3323,-0.3324,-0.3324,-0.3374,-0.3626,-0.347,-0.3237,-0.3136,-0.3203,-0.2755,-0.195,-0.1693,-0.1324,-0.0585,0.0,0.0,0.0,0.0319,0.0797,0.0901,0.133,0.1705,0.1707,0.1708,0.171,0.1015,0.045,0.0386,0.022,0.0,0.0,0.0,0.0,0.0,0.0,0.0,0.0,0.0,0.0,0.0,0.0,0.0,0.0,0.0,0.0,0.0,0.0,0.0,0.0,0.0,0.0,0.0,0.0,0.0,0.0,0.0,0.0,0.0,0.0,0.0,0.0,0.0,0.0,0.0,0.0,0.0,0.0,0.0,0.0,0.0,0.0,0.0,0.0,0.0,0.0,0.0,0.0,0.0,0.0,0.0,0.0,0.0,0.0,0.0,0.0,0.0,0.0,0.0,-0.0288,-0.0922,0.0,-0.1252,0.0,-0.2671,-0.2814,-0.2603,-0.2182,0.0,0.0,-0.0986,-0.035,-0.0376,-0.0143,0.0,0.0,-0.0954,-0.1568,-0.1604,-0.2513,-0.343,-0.3952,-0.3334,-0.2922,-0.3224,-0.3929,-0.4431,-0.4431,-0.4431,-0.4682,-0.5334,-0.4933,-0.4135,-0.3344,-0.3247,-0.3099,-0.2857,-0.2807,-0.2718,-0.2491,-0.2421,-0.2057,-0.1093,-0.0619,0.0,0.0872,0.1464,0.1704,0.1704,0.1703,0.1703,0.0897,0.0224,0.0336,0.0224,0.0,0.0,0.0,0.0,0.0,0.0,0.0,0.0,0.0,0.0,0.0,0.0,0.0,0.0,0.0,0.0,0.0,0.0,0.0,0.0,0.0,0.0,0.0,0.0,0.0,0.0,0.0,0.0,0.0,0.0,0.0,0.0,0.0,0.0,0.0,0.0,0.0,0.0,0.0,0.0,0.0,0.0,0.0,0.0,0.0,0.0,0.0,0.0,0.0,0.0,0.0,0.0,0.0,0.0,0.0,0.0,0.0,0.0,0.0,0.0,0.0,0.0,-0.2102,-0.2776,-0.3669,-0.4101,-0.3769,-0.3665,-0.3421,-0.3019,-0.2447,-0.1929,-0.1499,-0.1444,-0.1447,-0.1426,-0.2345,-0.3048,-0.3026,-0.3925,-0.483,-0.5434,-0.4983,-0.4628,-0.468,-0.5181,-0.5486,-0.5486,-0.5536,-0.5684,-0.6337,-0.5884,-0.5334,-0.4778,-0.4628,-0.4477,-0.4028,-0.3929,-0.3792,-0.3315,-0.3196,-0.2929,-0.2092,-0.127,-0.0504,0.0253,0.1129,0.1611,0.1665,0.1665,0.1665,0.0785,0.0056,0.028,0.0224,0.0,0.0,0.0,0.0,0.0,0.0,0.0,0.0,0.0,0.0,0.0,0.0,0.0,0.0,0.0,0.0,0.0,0.0,0.0,0.0,0.0,0.0,0.0,0.0,0.0,0.0,0.0,0.0,0.0,0.0,0.0,0.0,0.0,0.0,0.0,0.0,0.0,0.0,0.0,0.0,0.0,0.0,0.0,0.0,0.0,0.0,0.0,0.0,0.0,0.0,0.0,0.0,0.0164,0.0,0.0,0.0,0.0,0.0,0.0,0.0,0.0,-0.3081,-0.3203,-0.3344,-0.4834,-0.5528,-0.493,-0.5528,-0.5595,-0.4801,-0.4616,-0.4132,-0.3289,-0.3199,-0.3199,-0.3199,-0.4123,-0.4812,-0.4744,-0.5737,-0.6387,-0.6334,-0.6266,-0.6155,-0.6313,-0.6276,-0.6331,-0.642,-0.6365,-0.6258,-0.6381,-0.6387,-0.6337,-0.6337,-0.6237,-0.6084,-0.5135,-0.4985,-0.4734,-0.3929,-0.3778,-0.3525,-0.3122,-0.1914,-0.0907,-0.0403,0.0708,0.157,0.1622,0.1622,0.1566,0.0617,0.0,0.0055,0.0055,0.0,0.0,0.0,0.0,0.0,0.0,0.0,0.0,0.0,0.0,0.0,0.0,0.0,0.0,0.0,0.0,0.0,0.0,0.0,0.0,0.0,0.0,0.0,0.0,0.0,0.0,0.0,0.0,0.0,0.0,0.0,0.0,0.0,0.0,0.0,0.0,0.0,0.0,0.0,0.0,0.0,0.0,0.0,0.0,0.0,0.0,0.0,0.0,0.0,0.0,0.0,0.0,0.0,0.0,0.0,0.0,0.0,0.0,-0.2713,-0.3,-0.3979,-0.4789,-0.5271,-0.5218,-0.5806,-0.612,-0.6021,-0.5405,-0.4988,-0.4806,-0.4007,-0.3417,-0.324,-0.3241,-0.3189,-0.3241,-0.4151,-0.4802,-0.4889,-0.5734,-0.6384,-0.6376,-0.6355,-0.6306,-0.6301,-0.6374,-0.6399,-0.632,-0.6312,-0.6342,-0.642,-0.6384,-0.6387,-0.6387,-0.6387,-0.6337,-0.6084,-0.6037,-0.6087,-0.5732,-0.5782,-0.5331,-0.4329,-0.302,-0.1762,-0.0655,0.0656,0.1566,0.1566,0.1566,0.1566,0.0391,0.0,0.0,0.0,0.0,0.0,0.0,0.0,0.0,0.0,0.0,0.0,0.0,0.0,0.0,0.0,0.0,0.0,0.0,0.0,0.0,0.0,0.0,0.0,0.0,0.0,0.0,0.0,0.0,0.0,0.0,0.0,0.0,0.0,0.0,0.0,0.0,0.0,0.0,0.0,0.0,0.0,0.0,0.0,0.0,0.0,0.0,0.0,0.0,0.0,0.0,0.0,0.0,0.0,0.0,0.0,0.0118,-0.0317,-0.1338,-0.1381,-0.2204,-0.4239,-0.4513,-0.4712,-0.5081,-0.5737,-0.6059,-0.601,-0.6217,-0.635,-0.6303,-0.5857,-0.5386,-0.4885,-0.478,-0.458,-0.4178,-0.4479,-0.478,-0.4828,-0.5284,-0.5584,-0.5584,-0.5986,-0.6355,-0.6347,-0.6252,-0.6179,-0.6189,-0.6279,-0.6325,-0.6331,-0.6323,-0.635,-0.6355,-0.6357,-0.6387,-0.6387,-0.6387,-0.6387,-0.6387,-0.6387,-0.6387,-0.6387,-0.6387,-0.6087,-0.5334,-0.4227,-0.2968,-0.1511,-0.0202,0.0858,0.1364,0.1566,0.1566,0.0221,0.0,0.0,0.0,0.0,0.0,0.0,0.0,0.0,0.0,0.0,0.0,0.0,0.0,0.0,0.0,0.0,0.0,0.0,0.0,0.0,0.0,0.0,0.0,0.0,0.0,0.0,0.0,0.0,0.0,0.0,0.0,0.0,0.0,0.0,0.0,0.0,0.0,0.0,0.0,0.0,0.0,0.0,0.0,0.0,0.0,0.0,0.0,0.0,0.0,0.0,0.0,0.0,0.0,0.0,0.0,-0.0043,-0.0836,-0.2516,-0.274,-0.364,-0.5575,-0.6085,-0.6214,-0.601,-0.6181,-0.6298,-0.6298,-0.6382,-0.6387,-0.6387,-0.6387,-0.6037,-0.5186,-0.5887,-0.6034,-0.5286,-0.5834,-0.6287,-0.6387,-0.6337,-0.6379,-0.6354,-0.635,-0.6325,-0.6233,-0.6157,-0.6072,-0.6075,-0.6207,-0.6295,-0.632,-0.6331,-0.6361,-0.6287,-0.6355,-0.642,-0.6404,-0.6418,-0.6387,-0.6387,-0.6387,-0.6387,-0.6387,-0.6387,-0.6279,-0.6014,-0.4802,-0.3649,-0.2342,-0.0948,0.025,0.125,0.16,0.1603,0.0272,0.0,0.0,0.0,0.0,0.0,0.0,0.0,0.0,0.0,0.0,0.0,0.0,0.0,0.0,0.0,0.0,0.0,0.0,0.0,0.0,0.0,0.0,0.0,0.0,0.0,0.0,0.0,0.0,0.0,0.0,0.0,0.0,0.0,0.0,0.0,0.0,0.0,0.0,0.0,0.0,0.0,0.0,0.0,0.0,0.0,0.0,0.0,0.0,0.0,0.0,0.0,0.0,0.0,0.0,0.0,-0.0816,-0.1476,-0.1783,-0.2591,-0.3666,-0.4868,-0.5849,-0.6396,-0.6317,-0.6391,-0.6363,-0.6412,-0.6376,-0.6387,-0.6387,-0.6387,-0.6337,-0.6187,-0.6284,-0.6337,-0.6137,-0.6284,-0.6387,-0.6387,-0.6387,-0.6396,-0.6333,-0.635,-0.6304,-0.6162,-0.6094,-0.6051,-0.6002,-0.6032,-0.6149,-0.6241,-0.6282,-0.6241,-0.6187,-0.6301,-0.6372,-0.6306,-0.6377,-0.6379,-0.6387,-0.6387,-0.6387,-0.6387,-0.6337,-0.6302,-0.6175,-0.4321,-0.2982,-0.2175,-0.0578,0.1061,0.1451,0.1548,0.1511,0.0108,0.0,0.0,0.0,0.0,0.0,0.0,0.0,0.0,0.0,0.0,0.0,0.0,0.0,0.0,0.0,0.0,0.0,0.0,0.0,0.0,0.0,0.0,0.0,0.0,0.0,0.0,0.0,0.0,0.0,0.0,0.0,0.0,0.0,0.0,0.0,0.0,0.0,0.0,0.0,0.0,0.0,0.0,0.0,0.0,0.0,0.0,0.0,0.0,0.0,0.0,-0.0218,-0.0742,-0.0845,-0.1083,-0.1595,-0.2157,-0.2727,-0.3283,-0.4324,-0.5133,-0.5629,-0.6134,-0.6387,-0.6387,-0.6387,-0.6387,-0.6387,-0.6387,-0.6387,-0.6387,-0.6387,-0.6387,-0.6387,-0.6387,-0.6387,-0.6387,-0.6387,-0.6387,-0.6381,-0.6382,-0.635,-0.6358,-0.6236,-0.6184,-0.6151,-0.6086,-0.601,-0.6122,-0.6086,-0.6105,-0.6162,-0.627,-0.6292,-0.624,-0.6203,-0.6274,-0.6336,-0.635,-0.6374,-0.6418,-0.6387,-0.6384,-0.6337,-0.5987,-0.5795,-0.6095,-0.4354,-0.291,-0.2197,-0.0951,0.0477,0.1254,0.1551,0.1555,0.0,0.0,0.0,0.0,0.0,0.0,0.0,0.0,0.0,0.0,0.0,0.0,0.0,0.0,0.0,0.0,0.0,0.0,0.0,0.0,0.0,0.0,0.0,0.0,0.0,0.0,0.0,0.0,0.0,0.0,0.0,0.0,0.0,0.0,0.0,0.0,0.0,0.0,0.0,0.0,0.0,0.0,0.0,0.0,0.0,0.0,0.0,-0.0225,-0.0315,-0.0314,-0.0539,-0.0987,-0.166,-0.1835,-0.2229,-0.2936,-0.3375,-0.4039,-0.5076,-0.5936,-0.6387,-0.6387,-0.6387,-0.6387,-0.6387,-0.6387,-0.6387,-0.6387,-0.6387,-0.6426,-0.6399,-0.6396,-0.6399,-0.6349,-0.6396,-0.6407,-0.6381,-0.6387,-0.6387,-0.6376,-0.6361,-0.6339,-0.6336,-0.6184,-0.6111,-0.6257,-0.6078,-0.6029,-0.6146,-0.6116,-0.6086,-0.6083,-0.6189,-0.6249,-0.6219,-0.6203,-0.623,-0.6314,-0.6312,-0.6298,-0.6342,-0.6366,-0.6346,-0.6291,-0.5822,-0.549,-0.5706,-0.4255,-0.2711,-0.1946,-0.066,0.0379,0.1287,0.153,0.1535,0.0,0.0,0.0,0.0,0.0,0.0,0.0,0.0,0.0,0.0,0.0,0.0,0.0,0.0,0.0,0.0,0.0,0.0,0.0,0.0,0.0,0.0,0.0,0.0,0.0,0.0,0.0,0.0,0.0,0.0,0.0,0.0,0.0,0.0,0.0,0.0,0.0,0.0,0.0,0.0,0.0,0.0,0.0,0.0,0.0,0.0,0.0,-0.0808,-0.1256,-0.1345,-0.2106,-0.2644,-0.2744,-0.2834,-0.2938,-0.3086,-0.4081,-0.512,-0.6119,-0.6331,-0.6387,-0.6387,-0.6387,-0.6387,-0.6387,-0.6387,-0.6387,-0.6387,-0.6387,-0.6396,-0.6298,-0.6295,-0.6304,-0.6301,-0.6352,-0.6323,-0.6368,-0.6387,-0.6387,-0.6387,-0.636,-0.6388,-0.632,-0.6323,-0.6333,-0.6265,-0.6159,-0.6062,-0.6043,-0.6075,-0.6012,-0.5977,-0.6147,-0.6203,-0.6039,-0.6222,-0.6222,-0.6136,-0.6214,-0.6193,-0.6136,-0.6163,-0.629,-0.6309,-0.6132,-0.5743,-0.4867,-0.3567,-0.2218,-0.1169,0.0,0.1295,0.1412,0.1412,0.1466,0.0,0.0,0.0,0.0,0.0,0.0,0.0,0.0,0.0,0.0,0.0,0.0,0.0,0.0,0.0,0.0,0.0,0.0,0.0,0.0,0.0,0.0,0.0,0.0,0.0,0.0,0.0,0.0,0.0,-0.0641,-0.1201,-0.1716,-0.1853,-0.1847,-0.1783,-0.1847,-0.1905,-0.1858,-0.1836,-0.1779,-0.1686,-0.1173,-0.1122,-0.1659,-0.1704,-0.1705,-0.1749,-0.2106,-0.2285,-0.2331,-0.2689,-0.3198,-0.3826,-0.3932,-0.43,-0.4883,-0.5452,-0.5934,-0.6387,-0.6387,-0.6387,-0.6387,-0.6387,-0.6387,-0.6387,-0.6387,-0.6387,-0.6387,-0.6387,-0.6391,-0.6342,-0.6328,-0.6342,-0.6295,-0.6328,-0.6385,-0.6379,-0.6387,-0.6387,-0.6431,-0.6377,-0.6355,-0.6366,-0.6407,-0.6385,-0.6293,-0.6219,-0.6139,-0.6155,-0.6208,-0.5897,-0.5365,-0.5329,-0.5657,-0.585,-0.6113,-0.5909,-0.5581,-0.5891,-0.6147,-0.5508,-0.5976,-0.6369,-0.6311,-0.5797,-0.5358,-0.4827,-0.3074,-0.1522,-0.0554,0.0413,0.1472,0.1396,0.145,0.1461,0.0,0.0,0.0,0.0,0.0,0.0,0.0,0.0,0.0,0.0,0.0,0.0,0.0,0.0,0.0,0.0,0.0,0.0,0.0,0.0,0.0,0.0,0.0,0.0,0.0,0.0,0.0,0.0,-0.0504,-0.1533,-0.2364,-0.2971,-0.3172,-0.3162,-0.3078,-0.3165,-0.3185,-0.318,-0.3091,-0.3154,-0.327,-0.2639,-0.2478,-0.2869,-0.2911,-0.2911,-0.2911,-0.3181,-0.3269,-0.3269,-0.3537,-0.4021,-0.4835,-0.5029,-0.5477,-0.62,-0.6341,-0.6387,-0.6387,-0.6387,-0.6387,-0.6387,-0.6387,-0.6387,-0.6387,-0.6387,-0.6387,-0.6387,-0.6387,-0.6391,-0.6298,-0.6309,-0.6312,-0.6325,-0.6347,-0.6399,-0.6431,-0.6387,-0.6387,-0.6379,-0.638,-0.6342,-0.6363,-0.6384,-0.6305,-0.5893,-0.5829,-0.5674,-0.552,-0.5317,-0.5004,-0.4343,-0.424,-0.4495,-0.5118,-0.5117,-0.4901,-0.4718,-0.4844,-0.4954,-0.4419,-0.5062,-0.5405,-0.47,-0.4516,-0.4108,-0.3514,-0.2092,-0.0943,-0.0229,0.0683,0.1463,0.1395,0.1456,0.1455,0.0,0.0,0.0,0.0,0.0,0.0,0.0,0.0,0.0,0.0,0.0,0.0,0.0,0.0,0.0,0.0,0.0,0.0,0.0,0.0,0.0,0.0,0.0,0.0,0.0,0.0,0.0,-0.0656,-0.1611,-0.2618,-0.3131,-0.3267,-0.336,-0.3281,-0.3371,-0.343,-0.3282,-0.3436,-0.3425,-0.3671,-0.435,-0.438,-0.383,-0.3147,-0.2956,-0.3045,-0.309,-0.3762,-0.4255,-0.4253,-0.4971,-0.5605,-0.581,-0.5933,-0.6104,-0.6344,-0.6381,-0.6387,-0.6387,-0.6387,-0.6387,-0.6387,-0.6387,-0.6387,-0.6387,-0.6387,-0.6387,-0.6387,-0.6379,-0.6377,-0.6293,-0.6227,-0.6198,-0.6263,-0.6328,-0.6336,-0.6426,-0.6387,-0.6387,-0.6387,-0.6423,-0.6318,-0.6334,-0.6387,-0.5834,-0.5172,-0.4874,-0.4553,-0.3754,-0.3387,-0.3259,-0.3167,-0.3061,-0.3099,-0.3148,-0.3718,-0.3583,-0.3282,-0.3393,-0.3315,-0.3145,-0.3083,-0.3233,-0.3387,-0.3483,-0.3134,-0.2111,-0.1231,-0.0422,0.0277,0.086,0.1351,0.1392,0.1391,0.1392,0.0,0.0,0.0,0.0,0.0,0.0,0.0,0.0,0.0,0.0,0.0,0.0,0.0,0.0,0.0,0.0,0.0,0.0,0.0,0.0,0.0,0.0,0.0,0.0,0.0,0.0,-0.0707,-0.1916,-0.3512,-0.3903,-0.4448,-0.5079,-0.5202,-0.5184,-0.5193,-0.5243,-0.5223,-0.5265,-0.5218,-0.5355,-0.5543,-0.5469,-0.5189,-0.4836,-0.4732,-0.4701,-0.4701,-0.5015,-0.5196,-0.5193,-0.5508,-0.582,-0.601,-0.6206,-0.6342,-0.6373,-0.6387,-0.6387,-0.6387,-0.6387,-0.6387,-0.6387,-0.6387,-0.6387,-0.6387,-0.6387,-0.6387,-0.6376,-0.6363,-0.6331,-0.6369,-0.6333,-0.6295,-0.6282,-0.6333,-0.6388,-0.6373,-0.6387,-0.6387,-0.6387,-0.6387,-0.6187,-0.5584,-0.5386,-0.4933,-0.4028,-0.3776,-0.3513,-0.3299,-0.3141,-0.277,-0.2247,-0.2056,-0.1868,-0.1068,-0.2463,-0.3093,-0.2591,-0.2388,-0.2477,-0.2433,-0.2701,-0.291,-0.2827,-0.2845,-0.2466,-0.1563,-0.0601,0.0138,0.0508,0.1134,0.1393,0.1391,0.1391,0.1391,0.0,0.0,0.0,0.0,0.0,0.0,0.0,0.0,0.0,0.0,0.0,0.0,0.0,0.0,0.0,0.0,0.0,0.0,0.0,0.0,-0.0353,-0.0505,-0.0555,-0.0858,-0.1009,0.0,-0.2116,-0.3423,-0.4672,-0.5003,-0.5545,-0.6217,-0.6304,-0.6304,-0.6295,-0.6382,-0.6387,-0.6371,-0.6358,-0.6293,-0.6203,-0.6098,-0.592,-0.585,-0.5726,-0.5688,-0.5688,-0.5688,-0.571,-0.5782,-0.5742,-0.5896,-0.6135,-0.6331,-0.6387,-0.6387,-0.6387,-0.6387,-0.6387,-0.6387,-0.6387,-0.6387,-0.6387,-0.6387,-0.6387,-0.6387,-0.6387,-0.6368,-0.6377,-0.6361,-0.6412,-0.6384,-0.6404,-0.6344,-0.6393,-0.6387,-0.6387,-0.6387,-0.6387,-0.6337,-0.6037,-0.5536,-0.4933,-0.4531,-0.3827,-0.282,-0.267,-0.262,-0.2267,-0.2166,-0.1959,-0.1241,-0.1092,-0.0842,0.0,0.0,0.0,0.0,0.0,0.0,0.0,0.0,0.0,0.0,0.0,0.0,-0.1026,-0.0045,0.0498,0.0778,0.109,0.1391,0.1391,0.1391,0.1391,0.0,0.0,0.0,0.0,0.0,0.0,0.0,0.0,0.0,0.0,0.0,0.0,0.0,0.0,0.0,0.0,0.0,0.0,0.0,-0.0252,-0.116,-0.1613,-0.1663,-0.2469,-0.2972,-0.3073,-0.4176,-0.473,-0.4979,-0.5738,-0.6232,-0.6304,-0.6366,-0.6358,-0.6274,-0.6385,-0.6387,-0.6384,-0.6371,-0.6323,-0.6121,-0.6097,-0.5996,-0.5764,-0.5729,-0.5765,-0.571,-0.5696,-0.5737,-0.5877,-0.589,-0.6015,-0.6227,-0.6372,-0.6387,-0.6387,-0.6387,-0.6387,-0.6387,-0.6387,-0.6387,-0.6387,-0.6387,-0.6387,-0.6387,-0.6387,-0.6387,-0.6384,-0.6379,-0.6384,-0.6381,-0.6387,-0.6431,-0.6434,-0.6384,-0.6387,-0.6387,-0.6387,-0.6387,-0.6287,-0.5636,-0.4883,-0.4531,-0.3827,-0.2771,-0.1915,-0.1562,-0.1311,0.0,0.0,0.0,0.0,0.0,0.0,0.0,0.0,0.0,0.0,0.0,0.0,0.0,0.0,0.0,0.0,0.0,0.0,0.0,0.0411,0.0678,0.0952,0.1215,0.1392,0.1391,0.1391,0.1391,0.0,0.0,0.0,0.0,0.0,0.0,0.0,0.0,0.0,0.0,0.0,0.0,0.0,0.0,0.0,-0.0404,-0.1059,-0.111,-0.111,-0.1312,-0.2217,-0.272,-0.2771,-0.3073,-0.3577,-0.4221,-0.4569,-0.5172,-0.58,-0.6087,-0.6244,-0.6355,-0.6339,-0.635,-0.6377,-0.6371,-0.6387,-0.6387,-0.6387,-0.6344,-0.6323,-0.6249,-0.6218,-0.6102,-0.6024,-0.5975,-0.5969,-0.5777,-0.5793,-0.5901,-0.5901,-0.6015,-0.6236,-0.6377,-0.6384,-0.6387,-0.6387,-0.6387,-0.6387,-0.6387,-0.6387,-0.6387,-0.6387,-0.6387,-0.6387,-0.6387,-0.6387,-0.6387,-0.6387,-0.6387,-0.6387,-0.6387,-0.6387,-0.6387,-0.6387,-0.6387,-0.6387,-0.6387,-0.6387,-0.6284,-0.5486,-0.4583,-0.3728,-0.2821,-0.1815,0.0,0.0,0.0,0.0,0.0,0.0,0.0,0.0,0.0,0.0,0.0,0.0,0.0,0.0,0.0,0.0,0.0,0.0,0.0,0.0,0.0,0.0,0.0596,0.0816,0.104,0.1266,0.1353,0.1393,0.1391,0.1391,0.0,0.0,0.0,0.0,0.0,0.0,0.0,0.0,0.0,0.0,0.0,0.0,0.0,0.0,-0.0504,-0.1109,-0.1813,-0.2618,-0.3069,-0.3119,-0.3475,-0.3776,-0.3877,-0.4227,-0.468,-0.5275,-0.537,-0.5669,-0.6373,-0.6298,-0.6271,-0.6347,-0.6344,-0.6339,-0.638,-0.6368,-0.6387,-0.6387,-0.6387,-0.6415,-0.6369,-0.6306,-0.6246,-0.6243,-0.6172,-0.6089,-0.6072,-0.5939,-0.592,-0.6024,-0.6078,-0.6181,-0.6325,-0.6399,-0.6387,-0.6387,-0.6387,-0.6387,-0.6387,-0.6387,-0.6387,-0.6387,-0.6387,-0.6387,-0.6387,-0.6387,-0.6387,-0.6387,-0.6387,-0.6387,-0.6387,-0.6387,-0.6387,-0.6387,-0.6387,-0.6387,-0.6387,-0.6387,-0.6387,-0.6187,-0.5484,-0.4381,-0.3324,-0.2267,-0.1211,0.0,0.0,0.0,0.0,0.0,0.0,0.0,0.0,0.0,0.0,0.0,0.0,0.0,0.0,0.0,0.0,0.0,0.0,0.0,0.0,0.0,0.0458,0.059,0.0764,0.1038,0.1313,0.1353,0.1391,0.1391,0.1391,0.0,0.0,0.0,0.0,0.0,0.0,0.0,0.0,0.0,0.0,0.0,0.0,0.0,0.0,-0.136,-0.2013,-0.2614,-0.4321,-0.5275,-0.5327,-0.5231,-0.5033,-0.5133,-0.5784,-0.6184,-0.6331,-0.6226,-0.6282,-0.6437,-0.626,-0.6333,-0.6317,-0.6385,-0.6385,-0.6342,-0.6391,-0.6387,-0.6387,-0.6387,-0.6388,-0.6306,-0.6342,-0.6241,-0.6146,-0.6138,-0.6135,-0.6135,-0.6119,-0.6151,-0.626,-0.6336,-0.6344,-0.6379,-0.6387,-0.6387,-0.6387,-0.6387,-0.6387,-0.6387,-0.6387,-0.6387,-0.6387,-0.6387,-0.6387,-0.6387,-0.6387,-0.6387,-0.6387,-0.6387,-0.6387,-0.6387,-0.6408,-0.6414,-0.6414,-0.6408,-0.6392,-0.6387,-0.6387,-0.6387,-0.6237,-0.5436,-0.4332,-0.3224,-0.2167,-0.1059,0.0,0.0,0.0,0.0,0.0,0.0,0.0,0.0,0.0,0.0,0.0,0.0,0.0,0.0,0.0,0.0,0.0,0.0,0.0,0.0,0.0,0.0498,0.063,0.0897,0.1214,0.135,0.1391,0.1391,0.1391,0.1391,0.0,0.0,0.0,0.0,0.0,0.0,0.0,0.0,0.0,0.0,0.0,0.0,-0.0555,-0.1461,-0.1812,-0.2916,-0.427,-0.5222,-0.6126,-0.6681,-0.6637,-0.6584,-0.6587,-0.6836,-0.6986,-0.6886,-0.6287,-0.6137,-0.6592,-0.5989,-0.5924,-0.6346,-0.6415,-0.6373,-0.6354,-0.642,-0.6387,-0.6387,-0.6387,-0.6426,-0.6396,-0.6388,-0.633,-0.6352,-0.6339,-0.6287,-0.6344,-0.6344,-0.6312,-0.6325,-0.6377,-0.6387,-0.6387,-0.6387,-0.6387,-0.6387,-0.6387,-0.6387,-0.6387,-0.6387,-0.6387,-0.6387,-0.6398,-0.6387,-0.6387,-0.6389,-0.6389,-0.6387,-0.6387,-0.6395,-0.6406,-0.647,-0.66,-0.6668,-0.6556,-0.6406,-0.6395,-0.6387,-0.6387,-0.6237,-0.483,-0.3877,-0.3022,-0.1815,-0.0555,0.0,0.0,0.0,0.0,0.0,0.0,0.0,0.0,0.0,0.0,0.0,0.0,0.0,0.0,0.0,0.0,0.0,0.0,0.0,0.0,0.0,0.0,0.0673,0.1031,0.1301,0.1391,0.1391,0.1391,0.1391,0.1391,0.0,0.0,0.0,0.0,0.0,0.0,0.0,0.0,-0.0151,-0.0151,-0.0202,-0.0303,-0.0757,-0.1512,-0.2115,-0.3017,-0.4372,-0.5024,-0.5575,-0.6029,-0.6079,-0.6481,-0.6986,-0.7185,-0.7185,-0.7138,-0.6587,-0.6587,-0.6789,-0.6192,-0.6192,-0.6437,-0.6439,-0.6387,-0.6381,-0.6387,-0.6387,-0.6387,-0.6387,-0.6387,-0.6387,-0.6387,-0.6387,-0.6387,-0.6387,-0.6387,-0.6387,-0.6387,-0.6404,-0.6366,-0.6401,-0.6387,-0.6387,-0.6387,-0.6387,-0.6387,-0.6387,-0.6387,-0.6387,-0.6387,-0.6387,-0.64,-0.6425,-0.646,-0.6529,-0.6554,-0.6589,-0.6549,-0.6592,-0.6592,-0.66,-0.6657,-0.6725,-0.6763,-0.6673,-0.6519,-0.6473,-0.6468,-0.6486,-0.6102,-0.5329,-0.4076,-0.3423,-0.2016,-0.1009,0.0,0.0,0.0,0.0,0.0,0.0,0.0,0.0,0.0,0.0,0.0,0.0,0.0,0.0,0.0,0.0,0.0,0.0,0.0,0.0,0.0,0.0,0.0769,0.0987,0.1211,0.1301,0.1391,0.1391,0.1391,0.1391,0.0,0.0,0.0,0.0,0.0,0.0,0.0,0.0,-0.0252,-0.0404,-0.0455,-0.0707,-0.0959,-0.111,-0.2317,-0.2919,-0.3221,-0.4474,-0.4926,-0.5327,-0.5577,-0.6229,-0.7288,-0.7086,-0.7036,-0.7039,-0.7089,-0.7089,-0.7039,-0.6842,-0.6692,-0.6692,-0.6539,-0.6437,-0.6437,-0.6387,-0.6387,-0.6387,-0.6387,-0.6387,-0.6387,-0.6387,-0.6387,-0.6387,-0.6387,-0.6387,-0.6387,-0.6389,-0.6389,-0.6456,-0.6392,-0.6387,-0.6387,-0.6387,-0.6387,-0.6398,-0.6408,-0.6472,-0.6419,-0.6441,-0.6443,-0.6468,-0.6543,-0.6635,-0.6651,-0.6711,-0.676,-0.6755,-0.6798,-0.6782,-0.6804,-0.6817,-0.6839,-0.6866,-0.6847,-0.6782,-0.669,-0.6646,-0.6592,-0.6427,-0.6308,-0.5194,-0.3927,-0.2922,0.0,0.0,0.0,0.0,0.0,0.0,0.0,0.0,0.0,0.0,0.0,0.0,0.0,0.0,0.0,0.0,0.0,0.0,0.0,0.0,0.0,0.0,0.0,0.0828,0.0952,0.117,0.1399,0.1395,0.1391,0.1391,0.1391,0.0,0.0,0.0,0.0,0.0,0.0,-0.0101,-0.0303,-0.0404,-0.0557,-0.0707,-0.0808,-0.1412,-0.2318,-0.2622,-0.3321,-0.4033,-0.4585,-0.5177,-0.6132,-0.6983,-0.7385,-0.7587,-0.6986,-0.6637,-0.6686,-0.6634,-0.6939,-0.7191,-0.6789,-0.6387,-0.6745,-0.6692,-0.6592,-0.6437,-0.6387,-0.6387,-0.6387,-0.6387,-0.6387,-0.6387,-0.6387,-0.6387,-0.6387,-0.6387,-0.6387,-0.6387,-0.6387,-0.6483,-0.6532,-0.6452,-0.6469,-0.6414,-0.6408,-0.6411,-0.6433,-0.654,-0.6578,-0.6592,-0.6651,-0.6717,-0.6706,-0.673,-0.6763,-0.6763,-0.6793,-0.6812,-0.6804,-0.6804,-0.6864,-0.6929,-0.6945,-0.6978,-0.7027,-0.7106,-0.7018,-0.6918,-0.6817,-0.6711,-0.6462,-0.5799,-0.4753,-0.3383,-0.242,0.0,0.0,0.0,0.0,0.0,0.0,0.0,0.0,0.0,0.0,0.0,0.0,0.0,0.0,0.0,0.0,0.0,0.0,0.0,0.0,0.0,0.0,0.0,0.0747,0.0874,0.1189,0.1453,0.1402,0.1397,0.1395,0.1391,0.0,0.0,0.0,-0.0051,-0.0153,-0.0205,-0.036,-0.062,-0.077,-0.0921,-0.1022,-0.1117,-0.1615,-0.2222,-0.229,-0.2707,-0.3325,-0.4015,-0.4777,-0.5669,-0.6364,-0.6536,-0.6634,-0.6584,-0.6587,-0.7039,-0.7188,-0.7391,-0.7341,-0.6989,-0.6686,-0.6745,-0.6695,-0.6539,-0.6437,-0.6387,-0.6387,-0.6387,-0.6387,-0.6387,-0.6387,-0.6387,-0.6387,-0.6387,-0.6392,-0.6406,-0.6521,-0.6473,-0.6589,-0.6654,-0.6643,-0.6608,-0.6605,-0.6557,-0.6605,-0.6622,-0.666,-0.6703,-0.673,-0.676,-0.6796,-0.6812,-0.685,-0.6883,-0.6907,-0.6931,-0.6967,-0.6967,-0.6978,-0.7002,-0.7109,-0.7119,-0.7161,-0.7185,-0.721,-0.7182,-0.7114,-0.6959,-0.6839,-0.6519,-0.5714,-0.4637,-0.3475,-0.2334,0.0,0.0,0.0,0.0,0.0,0.0,0.0,0.0,0.0,0.0,0.0,0.0,0.0,0.0,0.0,0.0,0.0,0.0,0.0,0.0,0.0,0.0,0.0626,0.0712,0.0888,0.125,0.147,0.1413,0.1408,0.141,0.1403,0.0,0.0,0.0,-0.0154,-0.0363,-0.0417,-0.063,-0.0955,-0.1207,-0.1303,-0.1403,-0.1535,-0.1631,-0.1687,-0.1753,-0.1714,-0.2144,-0.3264,-0.4514,-0.5197,-0.5967,-0.6113,-0.6149,-0.6681,-0.719,-0.7975,-0.7899,-0.7846,-0.7646,-0.7409,-0.7121,-0.6906,-0.662,-0.6514,-0.6448,-0.6387,-0.6387,-0.6387,-0.6387,-0.6387,-0.6387,-0.6389,-0.6395,-0.648,-0.6433,-0.6489,-0.6619,-0.6603,-0.67,-0.6817,-0.6831,-0.6839,-0.6847,-0.6809,-0.6804,-0.6796,-0.6806,-0.6828,-0.6839,-0.6858,-0.688,-0.6864,-0.6945,-0.7005,-0.7032,-0.7073,-0.7161,-0.7182,-0.718,-0.718,-0.7207,-0.7196,-0.7199,-0.721,-0.721,-0.721,-0.7193,-0.7119,-0.6961,-0.669,-0.5769,-0.4618,-0.3516,-0.2353,-0.1219,0.0,0.0,0.0,0.0,0.0,0.0,0.0,0.0,0.0,0.0,0.0,0.0,0.0,0.0,0.0,0.0,0.0,0.0,0.0,0.0,0.0396,0.0637,0.0824,0.1098,0.1411,0.1494,0.1443,0.1437,0.1476,0.1467,0.0,0.0,0.0,-0.0155,-0.0364,-0.0422,-0.0744,-0.1171,-0.1329,-0.1432,-0.164,-0.1669,-0.1667,-0.1679,-0.1719,-0.1728,-0.2334,-0.3792,-0.4843,-0.5606,-0.66,-0.7324,-0.7428,-0.7559,-0.8024,-0.814,-0.8136,-0.7982,-0.7902,-0.7746,-0.7408,-0.7145,-0.6955,-0.676,-0.6486,-0.6392,-0.6472,-0.6486,-0.643,-0.6427,-0.6425,-0.6427,-0.646,-0.6578,-0.6589,-0.6654,-0.6741,-0.6777,-0.6828,-0.694,-0.6953,-0.7056,-0.7018,-0.691,-0.6839,-0.6847,-0.691,-0.6953,-0.6961,-0.7035,-0.7136,-0.7158,-0.7158,-0.7172,-0.7182,-0.7196,-0.7207,-0.721,-0.721,-0.721,-0.721,-0.721,-0.721,-0.721,-0.721,-0.721,-0.7204,-0.7177,-0.7015,-0.6642,-0.5719,-0.4704,-0.3524,-0.2278,-0.1025,0.0,0.0,0.0,0.0,0.0,0.0,0.0,0.0,0.0,0.0,0.0,0.0,0.0,0.0,0.0,0.0,0.0,0.0,0.0,0.0,0.0401,0.0646,0.0887,0.1171,0.1445,0.1484,0.1478,0.1513,0.1503,0.1508,0.0,0.0,-0.0153,-0.0362,-0.0631,-0.0796,-0.1131,-0.1528,-0.1572,-0.1619,-0.1719,-0.1752,-0.169,-0.1702,-0.1764,-0.2367,-0.375,-0.5019,-0.6131,-0.7065,-0.7793,-0.8259,-0.8394,-0.8432,-0.8429,-0.836,-0.8303,-0.816,-0.8019,-0.7772,-0.7549,-0.7225,-0.7007,-0.6788,-0.6641,-0.6635,-0.6619,-0.6619,-0.6619,-0.6619,-0.6619,-0.6622,-0.6665,-0.6692,-0.6722,-0.6777,-0.6869,-0.6896,-0.6953,-0.71,-0.7128,-0.7161,-0.7155,-0.7117,-0.698,-0.6989,-0.7089,-0.7128,-0.7128,-0.7185,-0.7202,-0.7207,-0.721,-0.721,-0.721,-0.721,-0.721,-0.721,-0.721,-0.721,-0.721,-0.721,-0.721,-0.721,-0.721,-0.721,-0.7154,-0.7154,-0.6785,-0.6236,-0.4971,-0.3999,-0.3479,-0.2212,-0.0829,0.0,0.0,0.0,0.0,0.0,0.0,0.0,0.0,0.0,0.0,0.0,0.0,0.0,0.0,0.0,0.0,0.0,0.0,0.0,0.0,0.0,0.0655,0.0898,0.119,0.148,0.1525,0.1564,0.1543,0.1532,0.1539,0.0,0.0,-0.0304,-0.0621,-0.0904,-0.1177,-0.1472,-0.1727,-0.1769,-0.1759,-0.1809,-0.1729,-0.1717,-0.1727,-0.202,-0.2927,-0.5081,-0.5855,-0.6803,-0.7847,-0.8263,-0.8407,-0.8511,-0.8526,-0.8526,-0.8526,-0.8516,-0.8407,-0.8148,-0.7874,-0.756,-0.732,-0.7018,-0.6817,-0.679,-0.676,-0.6801,-0.6804,-0.6804,-0.6804,-0.6804,-0.6804,-0.6817,-0.6836,-0.6839,-0.6896,-0.7002,-0.7018,-0.7054,-0.7172,-0.7202,-0.7207,-0.721,-0.721,-0.721,-0.721,-0.721,-0.721,-0.7207,-0.7204,-0.721,-0.721,-0.721,-0.721,-0.721,-0.721,-0.721,-0.721,-0.721,-0.721,-0.721,-0.721,-0.721,-0.721,-0.721,-0.7099,-0.6763,-0.6485,-0.5926,-0.5107,-0.3966,-0.3223,-0.2704,0.0,0.0,0.0,0.0,0.0,0.0,0.0,0.0,0.0,0.0,0.0,0.0,0.0,0.0,0.0,0.0,0.0,0.0,0.0,0.0,0.0,0.0,0.0505,0.0707,0.0909,0.1303,0.155,0.1558,0.1602,0.1579,0.157,0.1573,0.0,-0.0051,-0.0308,-0.0576,-0.0907,-0.1189,-0.1486,-0.179,-0.1788,-0.179,-0.1784,-0.1815,-0.1813,-0.1941,-0.2004,-0.2738,-0.397,-0.525,-0.6468,-0.7714,-0.8213,-0.8539,-0.8649,-0.8682,-0.8682,-0.8686,-0.8682,-0.8601,-0.8365,-0.7996,-0.7707,-0.7502,-0.7183,-0.6921,-0.6858,-0.6858,-0.6804,-0.6809,-0.6815,-0.6817,-0.6823,-0.6825,-0.688,-0.6937,-0.697,-0.7008,-0.7152,-0.7169,-0.7191,-0.7199,-0.721,-0.721,-0.721,-0.721,-0.721,-0.721,-0.721,-0.721,-0.721,-0.721,-0.721,-0.721,-0.721,-0.721,-0.721,-0.721,-0.721,-0.721,-0.721,-0.721,-0.721,-0.721,-0.721,-0.7099,-0.7043,-0.6485,-0.604,-0.559,-0.5033,-0.4136,-0.2998,-0.2371,0.0,0.0,0.0,0.0,0.0,0.0,0.0,0.0,0.0,0.0,0.0,0.0,0.0,0.0,0.0,0.0,0.0,0.0,0.0,0.0101,0.0,0.0,0.0505,0.0657,0.0859,0.1111,0.1412,0.1564,0.1564,0.1565,0.1562,0.1609,0.1601,-0.0101,-0.0253,-0.0509,-0.0827,-0.1158,-0.1391,-0.1632,-0.1769,-0.1788,-0.1795,-0.1793,-0.1782,-0.2116,-0.2742,-0.3469,-0.4528,-0.5588,-0.6424,-0.7315,-0.7875,-0.8426,-0.8621,-0.8801,-0.8838,-0.8842,-0.8828,-0.878,-0.8712,-0.8445,-0.8122,-0.7807,-0.7563,-0.7264,-0.7119,-0.698,-0.6994,-0.7056,-0.7062,-0.7008,-0.7056,-0.7002,-0.7002,-0.7024,-0.713,-0.713,-0.7163,-0.7193,-0.721,-0.721,-0.721,-0.721,-0.721,-0.721,-0.721,-0.721,-0.721,-0.721,-0.721,-0.721,-0.7213,-0.721,-0.721,-0.721,-0.721,-0.721,-0.721,-0.721,-0.721,-0.721,-0.721,-0.721,-0.721,-0.721,-0.7099,-0.6654,-0.5929,-0.5258,-0.4587,-0.3971,-0.2965,-0.2125,-0.1612,0.0,0.0,0.0,0.0,0.0,0.0,0.0,0.0,0.0,0.0,0.0,0.0,0.0,0.0,0.0,0.0,0.0,0.0,0.0,0.0151,0.0353,0.0556,0.0758,0.0859,0.101,0.1161,0.1413,0.1515,0.1566,0.1566,0.1566,0.1565,0.161,-0.0202,-0.0505,-0.0707,-0.1021,-0.1299,-0.158,-0.1716,-0.1807,-0.1828,-0.1787,-0.1794,-0.1849,-0.2464,-0.3525,-0.4414,-0.5363,-0.6985,-0.7817,-0.8432,-0.8657,-0.8768,-0.8764,-0.8861,-0.8871,-0.8871,-0.8937,-0.8861,-0.8741,-0.8472,-0.8146,-0.7864,-0.7607,-0.7299,-0.7196,-0.7204,-0.7188,-0.7177,-0.718,-0.7182,-0.7185,-0.7191,-0.7193,-0.7196,-0.7207,-0.721,-0.721,-0.721,-0.721,-0.721,-0.721,-0.721,-0.721,-0.721,-0.721,-0.721,-0.721,-0.721,-0.7235,-0.7243,-0.7243,-0.7218,-0.721,-0.721,-0.721,-0.721,-0.721,-0.721,-0.721,-0.721,-0.721,-0.721,-0.721,-0.6932,-0.6543,-0.5984,-0.5316,-0.4533,-0.3636,-0.2742,-0.1735,-0.1064,-0.0896,0.0,0.0,0.0,0.0,0.0,0.0,0.0,0.0,0.0,0.0,0.0,0.0,0.0,0.0,0.0,0.0,0.0,0.0,0.0,0.0252,0.0505,0.0758,0.096,0.1162,0.1313,0.1313,0.1364,0.1465,0.1566,0.1566,0.1566,0.1566,0.1566,-0.0303,-0.0758,-0.0808,-0.102,-0.1349,-0.156,-0.1751,-0.1796,-0.1806,-0.1826,-0.1793,-0.1851,-0.2465,-0.3525,-0.4195,-0.531,-0.7154,-0.7152,-0.7989,-0.866,-0.8881,-0.8881,-0.8937,-0.8937,-0.8937,-0.8937,-0.8881,-0.8768,-0.8484,-0.8156,-0.7823,-0.7604,-0.7324,-0.721,-0.721,-0.721,-0.721,-0.721,-0.721,-0.721,-0.721,-0.721,-0.721,-0.721,-0.721,-0.721,-0.721,-0.721,-0.721,-0.721,-0.721,-0.721,-0.721,-0.7232,-0.724,-0.7187,-0.7267,-0.7252,-0.729,-0.7236,-0.7226,-0.7215,-0.7224,-0.7237,-0.7243,-0.7226,-0.7218,-0.7237,-0.7245,-0.7224,-0.7218,-0.7099,-0.6541,-0.5926,-0.5089,-0.4027,-0.3245,-0.2407,-0.1512,-0.0504,0.0,0.0,0.0,0.0,0.0,0.0,0.0,0.0,0.0,0.0,0.0,0.0,0.0,0.0,0.0,0.0,0.0,0.0,0.0,0.0,0.0,0.0353,0.0657,0.0909,0.1162,0.1364,0.1566,0.1516,0.1465,0.1566,0.1566,0.1566,0.1566,0.1566,0.1566,-0.0303,-0.0808,-0.0808,-0.1065,-0.1482,-0.1654,-0.1727,-0.1753,-0.1788,-0.1821,-0.1795,-0.1907,-0.2911,-0.4247,-0.486,-0.5977,-0.7989,-0.8211,-0.8546,-0.8716,-0.8881,-0.8937,-0.8937,-0.8937,-0.8937,-0.8937,-0.8881,-0.8602,-0.8211,-0.8045,-0.7712,-0.7435,-0.7268,-0.721,-0.721,-0.721,-0.721,-0.721,-0.721,-0.721,-0.721,-0.721,-0.721,-0.721,-0.721,-0.721,-0.721,-0.721,-0.721,-0.721,-0.721,-0.7215,-0.7235,-0.7222,-0.7258,-0.7277,-0.7317,-0.7385,-0.7407,-0.7339,-0.7269,-0.7266,-0.7269,-0.7266,-0.7271,-0.7323,-0.7317,-0.7304,-0.7266,-0.7252,-0.7168,-0.6546,-0.5759,-0.5144,-0.4195,-0.2965,-0.2071,-0.1344,0.0,0.0,0.0,0.0,0.0,0.0,0.0,0.0,0.0,0.0,0.0,0.0,0.0,0.0,0.0,0.0,0.0,0.0,0.0,0.0,0.0,0.0,0.0151,0.0505,0.0808,0.1061,0.1263,0.1465,0.1566,0.1566,0.1566,0.1566,0.1566,0.1566,0.1566,0.1566,0.1566,-0.0303,-0.0758,-0.0808,-0.1111,-0.1569,-0.164,-0.1654,-0.1723,-0.1714,-0.1759,-0.1794,-0.1907,-0.3135,-0.486,-0.5417,-0.6644,-0.8266,-0.8826,-0.8881,-0.8937,-0.8937,-0.8937,-0.8937,-0.8937,-0.8937,-0.8937,-0.8881,-0.8602,-0.8211,-0.8042,-0.7768,-0.749,-0.721,-0.721,-0.721,-0.721,-0.721,-0.721,-0.721,-0.721,-0.721,-0.721,-0.721,-0.721,-0.721,-0.721,-0.721,-0.721,-0.721,-0.721,-0.7215,-0.7176,-0.7222,-0.7282,-0.729,-0.7404,-0.7462,-0.7529,-0.7532,-0.7467,-0.7336,-0.7391,-0.7391,-0.7388,-0.7355,-0.747,-0.7442,-0.7407,-0.7388,-0.7353,-0.7193,-0.6351,-0.5316,-0.4639,-0.325,-0.2015,-0.1288,0.0,0.0,0.0,0.0,0.0,0.0,0.0,0.0,0.0,0.0,0.0,0.0,0.0,0.0,0.0,0.0,0.0,0.0,0.0,0.0,0.0,0.0,0.0,0.0303,0.0657,0.0909,0.1111,0.1313,0.1516,0.1566,0.1566,0.1566,0.1566,0.1566,0.1566,0.1566,0.1566,0.1566,-0.0303,-0.0758,-0.0808,-0.1111,-0.1566,-0.1618,-0.1635,-0.1712,-0.1695,-0.1742,-0.1791,-0.1851,-0.3024,-0.486,-0.525,-0.6644,-0.8266,-0.8826,-0.8937,-0.8937,-0.8937,-0.8937,-0.8937,-0.8937,-0.8937,-0.8937,-0.8823,-0.8654,-0.8377,-0.8045,-0.7771,-0.7549,-0.7268,-0.721,-0.721,-0.721,-0.721,-0.721,-0.721,-0.721,-0.721,-0.721,-0.721,-0.721,-0.721,-0.721,-0.721,-0.721,-0.721,-0.721,-0.7237,-0.7222,-0.7298,-0.7353,-0.7426,-0.751,-0.7529,-0.7595,-0.7671,-0.7573,-0.7538,-0.7521,-0.7516,-0.7513,-0.7516,-0.7535,-0.7546,-0.7524,-0.7516,-0.7449,-0.699,-0.6187,-0.4999,-0.3717,-0.2268,-0.1297,-0.0565,0.0,0.0,0.0,0.0,0.0,0.0,0.0,0.0,0.0,0.0,0.0,0.0,0.0,0.0,0.0,0.0,0.0,0.0,0.0,0.0,0.0,0.0,0.0,0.0455,0.0707,0.096,0.1162,0.1364,0.1566,0.1566,0.1566,0.1566,0.1566,0.1566,0.1566,0.1566,0.1566,0.1566,-0.0303,-0.0808,-0.0808,-0.101,-0.1364,-0.1516,-0.1624,-0.164,-0.1684,-0.1738,-0.1786,-0.1795,-0.2576,-0.4026,-0.5139,-0.6197,-0.7598,-0.8771,-0.8937,-0.8881,-0.8881,-0.8937,-0.8937,-0.8937,-0.8881,-0.8826,-0.8712,-0.8488,-0.8156,-0.7878,-0.7601,-0.7324,-0.7268,-0.721,-0.721,-0.721,-0.721,-0.721,-0.721,-0.721,-0.721,-0.721,-0.721,-0.721,-0.721,-0.721,-0.721,-0.721,-0.7215,-0.7235,-0.7214,-0.7296,-0.7383,-0.7445,-0.7584,-0.7655,-0.7687,-0.7766,-0.7804,-0.7761,-0.7714,-0.7671,-0.7641,-0.7638,-0.7638,-0.772,-0.7703,-0.7598,-0.7522,-0.7133,-0.6219,-0.509,-0.3847,-0.2566,-0.1334,-0.0691,0.0,0.0,0.0,0.0,0.0,0.0,0.0,0.0,0.0,0.0,0.0,0.0,0.0,0.0,0.0,0.0,0.0,0.0,0.0,0.0,0.0,0.0,0.0,0.0,0.0606,0.0859,0.1111,0.1364,0.1516,0.1566,0.1566,0.1566,0.1566,0.1566,0.1566,0.1566,0.1566,0.1566,0.1566,-0.0301,-0.0758,-0.0808,-0.096,-0.1212,-0.1465,-0.1626,-0.1651,-0.1689,-0.1738,-0.1785,-0.1795,-0.2465,-0.358,-0.4414,-0.5697,-0.6927,-0.7706,-0.8602,-0.8657,-0.8768,-0.8823,-0.8881,-0.8881,-0.8823,-0.8768,-0.8598,-0.8318,-0.7881,-0.7718,-0.7493,-0.7268,-0.721,-0.721,-0.721,-0.721,-0.721,-0.721,-0.721,-0.721,-0.721,-0.721,-0.721,-0.721,-0.721,-0.721,-0.721,-0.7215,-0.7232,-0.7225,-0.729,-0.7325,-0.7481,-0.7589,-0.7722,-0.7774,-0.7815,-0.7925,-0.7922,-0.7861,-0.7807,-0.7771,-0.7761,-0.7761,-0.7766,-0.7812,-0.7809,-0.7719,-0.7457,-0.669,-0.5677,-0.4408,-0.2846,-0.1602,-0.0884,-0.0234,0.0,0.0,0.0,0.0,0.0,0.0,0.0,0.0,0.0,0.0,0.0,0.0,0.0,0.0,0.0,0.0,0.0,0.0,0.0,0.0,0.0,0.0,0.0303,0.0505,0.0808,0.1061,0.1313,0.1516,0.1566,0.1566,0.1566,0.1566,0.1566,0.1566,0.1566,0.1566,0.1566,0.1566,0.1566,-0.0298,-0.0757,-0.0808,-0.096,-0.1212,-0.1465,-0.1597,-0.17,-0.1703,-0.1739,-0.1794,-0.1795,-0.2465,-0.347,-0.3748,-0.4973,-0.6647,-0.7035,-0.7762,-0.8377,-0.8654,-0.8768,-0.8881,-0.8881,-0.8768,-0.8595,-0.8374,-0.8156,-0.7662,-0.7551,-0.7382,-0.7099,-0.7099,-0.6988,-0.6988,-0.7099,-0.7154,-0.721,-0.721,-0.721,-0.721,-0.721,-0.721,-0.721,-0.721,-0.721,-0.7218,-0.7176,-0.7233,-0.7293,-0.7301,-0.75,-0.7614,-0.7701,-0.7777,-0.7834,-0.7928,-0.793,-0.7933,-0.7933,-0.793,-0.7839,-0.785,-0.7864,-0.7861,-0.7861,-0.785,-0.7479,-0.7038,-0.6315,-0.5513,-0.3826,-0.211,-0.132,-0.0596,0.0,0.0,0.0,0.0,0.0,0.0,0.0,0.0,0.0,0.0,0.0,0.0,0.0,0.0,0.0,0.0,0.0,0.0,0.0,0.0,0.0,0.0,0.0,0.0405,0.0606,0.096,0.1213,0.1414,0.1516,0.1566,0.1566,0.1566,0.1566,0.1566,0.1566,0.1566,0.1566,0.1566,0.1566,0.1566,-0.0496,-0.0808,-0.101,-0.1111,-0.1212,-0.1313,-0.1444,-0.17,-0.1705,-0.1738,-0.1795,-0.1795,-0.2576,-0.3636,-0.4526,-0.5641,-0.6813,-0.782,-0.8377,-0.8657,-0.8657,-0.8768,-0.8881,-0.8881,-0.8712,-0.8488,-0.8208,-0.7989,-0.7604,-0.7438,-0.6765,-0.6096,-0.6707,-0.6596,-0.6429,-0.6763,-0.6988,-0.7154,-0.7099,-0.721,-0.721,-0.721,-0.721,-0.721,-0.721,-0.7213,-0.7176,-0.7241,-0.7301,-0.7288,-0.7513,-0.7657,-0.7676,-0.7774,-0.7917,-0.7922,-0.793,-0.7933,-0.7933,-0.7933,-0.7933,-0.7933,-0.7933,-0.7933,-0.7933,-0.7933,-0.7872,-0.7255,-0.6396,-0.5536,-0.4493,-0.2878,-0.1525,-0.073,0.0,0.0,0.0,0.0,0.0,0.0,0.0,0.0,0.0,0.0,0.0,0.0,0.0,0.0,0.0,0.0,0.0,0.0,0.0,0.0,0.0,0.0,0.0,0.0311,0.0512,0.0761,0.1114,0.1368,0.1467,0.1566,0.1566,0.1566,0.1566,0.1566,0.1566,0.1566,0.1566,0.1566,0.1566,0.1566,0.1566,-0.054,-0.0849,-0.1108,-0.1263,-0.1313,-0.1263,-0.1387,-0.1737,-0.2176,-0.222,-0.1886,-0.2347,-0.2912,-0.3526,-0.4193,-0.5198,-0.6705,-0.7041,-0.7657,-0.8436,-0.8602,-0.8716,-0.8771,-0.8768,-0.8543,-0.8266,-0.7989,-0.7715,-0.7438,-0.7213,-0.6654,-0.5648,-0.626,-0.5646,-0.5312,-0.5704,-0.6318,-0.6596,-0.6821,-0.7099,-0.721,-0.721,-0.721,-0.7215,-0.7215,-0.7235,-0.7228,-0.732,-0.7372,-0.7401,-0.7665,-0.7725,-0.7752,-0.7837,-0.793,-0.7933,-0.7933,-0.7933,-0.7933,-0.7933,-0.7933,-0.7933,-0.7933,-0.7933,-0.7933,-0.7933,-0.7503,-0.6888,-0.572,-0.4555,-0.3264,-0.2033,-0.1048,-0.0123,0.0,0.0,0.0,0.0,0.0,0.0,0.0,0.0,0.0,0.0,0.0,0.0,0.0,0.0,0.0,0.0,0.0,0.0,0.0,0.0,0.0,0.0,0.0,0.0473,0.0622,0.0924,0.1277,0.142,0.1517,0.1566,0.1566,0.1566,0.1566,0.1566,0.1566,0.1566,0.1566,0.1566,0.1566,0.1566,0.1566,-0.0578,-0.0837,-0.1103,-0.1364,-0.1566,-0.1364,-0.148,-0.1972,-0.3114,-0.3011,-0.2354,-0.3113,-0.3636,-0.3971,-0.4027,-0.4864,-0.6093,-0.6765,-0.7376,-0.7986,-0.8156,-0.8325,-0.8546,-0.8602,-0.8266,-0.7992,-0.7715,-0.7382,-0.7099,-0.6707,-0.6096,-0.5258,-0.5258,-0.4643,-0.3804,-0.4698,-0.5256,-0.5369,-0.5982,-0.6485,-0.7043,-0.721,-0.7215,-0.7179,-0.7198,-0.7225,-0.7323,-0.7344,-0.7467,-0.7622,-0.7728,-0.7777,-0.7826,-0.7861,-0.7869,-0.7933,-0.7933,-0.7933,-0.7933,-0.7933,-0.7933,-0.7933,-0.7933,-0.7933,-0.7933,-0.7933,-0.7503,-0.6396,-0.523,-0.394,-0.2649,0.0,0.0,0.0,0.0,0.0,0.0,0.0,0.0,0.0,0.0,0.0,0.0,0.0,0.0,0.0,0.0,0.0,0.0,0.0,0.0,0.0,0.0,0.0,0.0,0.0,0.0,0.0588,0.0789,0.109,0.1444,0.1532,0.1566,0.1566,0.1566,0.1566,0.1566,0.1566,0.1566,0.1566,0.1566,0.1566,0.1566,0.1566,0.1566,-0.0714,-0.0836,-0.1303,-0.1566,-0.1566,-0.1516,-0.2024,-0.2951,-0.4301,-0.4184,-0.3331,-0.3548,-0.4081,-0.4693,-0.4305,-0.5031,-0.6258,-0.6707,-0.7546,-0.7878,-0.7989,-0.8048,-0.8214,-0.8211,-0.7992,-0.7773,-0.7496,-0.6935,-0.6209,-0.5704,-0.4808,-0.3132,-0.3467,-0.3413,-0.2574,-0.3525,-0.4029,-0.4085,-0.4587,-0.5708,-0.6669,-0.7065,-0.724,-0.7193,-0.7182,-0.7236,-0.7332,-0.7568,-0.7619,-0.7703,-0.779,-0.7837,-0.7928,-0.793,-0.7933,-0.7933,-0.7933,-0.7933,-0.7933,-0.7933,-0.7933,-0.7933,-0.7933,-0.7933,-0.7933,-0.7933,-0.7255,-0.5904,-0.4677,-0.3387,0.0,0.0,0.0,0.0,0.0,0.0,0.0,0.0,0.0,0.0,0.0,0.0,0.0,0.0,0.0,0.0,0.0,0.0,0.0,0.0,0.0,0.0,0.0,0.0,0.0,0.0221,0.0494,0.0761,0.1017,0.1321,0.1616,0.1646,0.1626,0.1569,0.1566,0.1566,0.1566,0.1566,0.1566,0.1566,0.1566,0.1566,0.1566,0.1566,0.1566,-0.0707,-0.0875,-0.1399,-0.1566,-0.1566,-0.1566,-0.222,-0.3348,-0.4707,-0.5231,-0.4918,-0.4634,-0.4691,-0.497,-0.436,-0.492,-0.6091,-0.6596,-0.7157,-0.7546,-0.7823,-0.7934,-0.7934,-0.7878,-0.7771,-0.7551,-0.6824,-0.6098,-0.5427,-0.47,-0.3748,-0.2629,-0.291,-0.2519,-0.1847,-0.2519,-0.2798,-0.2853,-0.3191,-0.4267,-0.5628,-0.5684,-0.6036,-0.6157,-0.6553,-0.6849,-0.7503,-0.7676,-0.772,-0.7763,-0.7837,-0.7856,-0.793,-0.7933,-0.7933,-0.7933,-0.7933,-0.7933,-0.7933,-0.7933,-0.7933,-0.7933,-0.7933,-0.7933,-0.7686,-0.7503,-0.6211,-0.4983,-0.4492,-0.3324,-0.1541,0.0,0.0,0.0,0.0,0.0,0.0,0.0,0.0,0.0,0.0,0.0,0.0,0.0,0.0,0.0,0.0,0.0,0.0,0.0,0.0,0.0,0.0,0.0,0.0,0.039,0.0555,0.0879,0.1197,0.1441,0.1626,0.1656,0.1637,0.1628,0.162,0.1566,0.1566,0.1566,0.1566,0.1566,0.1566,0.1566,0.1566,0.1566,0.1566,-0.056,-0.091,-0.1343,-0.1566,-0.1566,-0.1566,-0.227,-0.3494,-0.4746,-0.5984,-0.6719,-0.5763,-0.5224,-0.4522,-0.3523,-0.4416,-0.5142,-0.5704,-0.6432,-0.7271,-0.7549,-0.7601,-0.7657,-0.766,-0.7549,-0.7215,-0.6546,-0.5929,-0.5369,-0.4475,-0.3636,-0.3189,-0.2407,-0.1512,-0.1567,-0.1567,-0.1568,-0.1795,-0.2137,-0.2776,-0.3231,-0.3514,-0.4562,-0.5159,-0.5662,-0.6331,-0.7231,-0.7739,-0.7788,-0.7818,-0.7861,-0.7867,-0.7933,-0.7933,-0.7933,-0.7933,-0.7933,-0.7933,-0.7933,-0.7933,-0.7933,-0.7933,-0.7933,-0.7747,-0.75,-0.658,-0.5289,-0.4244,-0.3753,-0.2832,-0.1048,0.0,0.0,0.0,0.0,0.0,0.0,0.0,0.0,0.0,0.0,0.0,0.0,0.0,0.0,0.0,0.0,0.0,0.0,0.0,0.0,0.0,0.0,0.0,0.0336,0.056,0.0725,0.1057,0.1376,0.1508,0.164,0.1678,0.1658,0.1634,0.1628,0.1628,0.157,0.1566,0.1566,0.1567,0.1566,0.1566,0.1566,0.1566,0.1566,-0.0692,-0.1148,-0.1244,-0.1414,-0.1566,-0.1414,-0.247,-0.434,-0.4941,-0.6276,-0.7226,-0.6063,-0.5068,-0.4853,-0.3357,-0.3526,-0.4475,-0.4979,-0.6093,-0.7154,-0.7324,-0.7321,-0.7376,-0.7435,-0.7324,-0.6932,-0.6485,-0.6207,-0.4698,-0.3804,-0.3078,-0.2239,-0.1008,-0.0448,-0.0448,0.0,0.0,0.0,0.0,0.0,0.0,-0.2418,-0.431,-0.5059,-0.572,-0.663,-0.7433,-0.7834,-0.7911,-0.7925,-0.7811,-0.7811,-0.7933,-0.7933,-0.7933,-0.7933,-0.7933,-0.7933,-0.7933,-0.7933,-0.7933,-0.7869,-0.7686,-0.7194,-0.6703,-0.5968,-0.4555,-0.2895,-0.2341,-0.1787,0.0,0.0,0.0,0.0,0.0,0.0,0.0,0.0,0.0,0.0,0.0,0.0,0.0,0.0,0.0,0.0,0.0,0.0,0.0,0.0,0.0,0.0,0.0,0.028,0.0392,0.0729,0.0951,0.1231,0.1506,0.1642,0.1727,0.171,0.1688,0.1661,0.1649,0.1647,0.1638,0.1626,0.1619,0.1619,0.1567,0.1566,0.1566,0.1566,0.1566]}]]